[[{"header":{"parameterUnit":"m.s-1","parameterCategory":1,"la1":30.6,"la2":29.2853,"lo1":-89.7004,"lo2":-87.6739,"dy":0.0162,"dx":0.0183,"nx":112,"ny":82,"refTime":"2026-04-09T12:00:00:Z","depth":0,"parameterNumber":2,"parameterNumberName":"U-component_of_WINDS"},"data":[0.0,0.0,0.0,0.0,0.0,0.0,0.0,0.0,0.0,0.0,0.0,0.0,0.0,0.0,0.0,0.0,0.0,0.0,0.0,0.0,0.0,0.0,0.0,0.0,0.0,0.0,0.0,0.0,0.0,0.0,0.0,0.0,0.0,0.0,0.0,0.0,0.0,0.0,0.0,0.0,0.0,0.0,0.0,0.0,0.0,0.0,0.0,0.0,0.0,0.0,0.0,0.0,0.0,0.0,0.0,0.0,0.0,0.0,0.0,0.0,0.0,0.0,0.0,0.0,0.0,0.0,0.0,0.0,0.0,0.0,0.0,0.0,0.0,0.0,0.0,0.0,0.0,0.0,0.0,0.0,0.0,0.0,0.0,0.0,0.0,0.0,0.0,0.0,0.0,0.0,0.0,0.0053,0.0,0.0,0.0,0.0829,0.1321,0.127,0.0,0.0,0.0,0.0,0.0,0.0,0.0,0.0,0.0,0.0,0.0,0.0,0.0,0.0,0.0,0.0,0.0,0.0,0.0,0.0,0.0,0.0,0.0,0.0,0.0,0.0,0.0,0.0,0.0,0.0,0.0,0.0,0.0,0.0,0.0,0.0,0.0,0.0,0.0,0.0,0.0,0.0,0.0,0.0,0.0,0.0,0.0,0.0,0.0,0.0,0.0,0.0,0.0,0.0,0.0,0.0,0.0,0.0,0.0,0.0,0.0,0.0,0.0,0.0,0.0,0.0,0.0,0.0,0.0,0.0,0.0,0.0,0.0,0.0,0.0,0.0,0.0,0.0,0.0,0.0,0.0,0.0,0.0,0.0,0.0,0.0,0.0,0.0,0.0,0.0,0.0,0.0,0.0,0.0,0.0,0.0,0.0,0.0,0.0,0.0,0.0,0.0,0.0,0.0,0.0097,0.002,0.0,0.0,0.0,0.0144,0.075,0.1963,0.0,0.0,0.0,0.0,0.0,0.0,0.0,0.0,0.0,0.0,0.0,0.0,0.0,0.0,0.0,0.0,0.0,0.0,0.0,0.0,0.0,0.0,0.0,0.0,0.0,0.0,0.0,0.0,0.0,0.0,0.0,0.0,0.0,0.0,0.0,0.0,0.0,0.0,0.0,0.0,0.0,0.0,0.0,0.0,0.0,0.0,0.0,0.0,0.0,0.0,0.0,0.0,0.0,0.0,0.0,0.0,0.0,0.0,0.0,0.0,0.0,0.0,0.0,0.0,0.0,0.0,0.0,0.0,0.0,0.0,0.0,0.0,0.0,0.0,0.0,0.0,0.0,0.0,0.0,0.0,0.0,0.0,0.0,0.0,0.0,0.0,0.0,0.0,0.0,0.0,0.0,0.0,0.0,0.0,0.0,0.0,0.0,0.0,0.0,0.0,0.0,0.0,0.0,0.013,0.0,0.0,0.0,0.0,0.0,0.0,0.0464,0.1541,0.1927,0.0,0.0,0.0,0.0,0.0,0.0,0.0,0.0,0.0,0.0,0.0,0.0,0.0,0.0,0.0,0.0,0.0,0.0,0.0,0.0,0.0,0.0,0.0,0.0,0.0,0.0,0.0,0.0,0.0,0.0,0.0,0.0,0.0,0.0,0.0,0.0,0.0,0.0,0.0,0.0,0.0,0.0,0.0,0.0,0.0,0.0,0.0,0.0,0.0,0.0,0.0,0.0,0.0,0.0,0.0,0.0,0.0,0.0,0.0,0.0,0.0,0.0,0.0,0.0,0.0,0.0,0.0,0.0,0.0,0.0,0.0,0.0,0.0,0.0,0.0,0.0,0.0,0.0,0.0,0.0,0.0,0.0,0.0,0.0,0.0,0.0,0.0,0.0,0.0,0.0,0.0,0.0,0.0,0.0,0.0,0.0,0.0,0.0,0.0,0.0,0.0,0.0,0.0,0.0,0.0,0.0,0.0,0.0,0.0,0.0384,0.1304,0.1645,0.0,0.0,0.0,0.0,0.0,0.0,0.0,0.0,0.0,0.0,0.0,0.0,0.0,0.0,0.0,0.0,0.0,0.0,0.0,0.0,0.0,0.0,0.0,0.0,0.0,0.0,0.0,0.0,0.0,0.0,0.0,0.0,0.0,0.0,0.0,0.0,0.0,0.0,0.0,0.0,0.0,0.0,0.0,0.0,0.0,0.0,0.0,0.0,0.0,0.0,0.0,0.0,0.0,0.0,0.0,0.0,0.0,0.0,0.0,0.0,0.0,0.0,0.0,0.0,0.0,0.0,0.0,0.0,0.0,0.0,0.0,0.0,0.0,0.0,0.0,0.0,0.0,0.0,0.0,0.0,0.0,0.0,0.0,0.0,0.0,0.0,0.0,0.0,0.0,0.0,0.0,0.0,0.0,0.0,0.0,0.0,0.0,0.0,0.0,0.0,0.0,0.0,0.0,0.0,0.0,0.0,0.0,0.0,0.0,0.0603,0.2029,0.1926,0.0,0.0,0.0,0.0,0.0,0.0,0.0,0.0,0.0,0.0,0.0,0.0,0.0,0.0,0.0,0.0,0.0,0.0,0.0,0.0,0.0,0.0,0.0,0.0,0.0,0.0,0.0,0.0,0.0,0.0,0.0,0.0,0.0,0.0,0.0,0.0,0.0,0.0,0.0,0.0,0.0,0.0,0.0,0.0,0.0,0.0,0.0,0.0,0.0,0.0,0.0,0.0,0.0,0.0,0.0,0.0,0.0,0.0,0.0,0.0,0.0,0.0,0.0,0.0,0.0,0.0,0.0,0.0,0.0,0.0,0.0,0.0,0.0,0.0,0.0,0.0,0.0,0.0,0.0,0.0,0.0,0.0,0.0,0.0,0.0,0.0,0.0,0.0,0.0,0.0,0.0,0.0,0.0,0.0,0.0,0.0,0.0,0.0,0.0,0.0,0.0,0.0,0.0,0.0,0.0,0.0,0.0,0.0,0.0,0.0428,0.1458,0.0,0.0,0.0,0.0,0.0,0.0,0.0,0.0,0.0,0.0,0.0,0.0,0.0,0.0,0.0,0.0,0.0,0.0,0.0,0.0,0.0,0.0,0.0,0.0,0.0,0.0,0.0,0.0,0.0,0.0,0.0,0.0,0.0,0.0,0.0,0.0,0.0,0.0,0.0,0.0,0.0,0.0,0.0,0.0,0.0,0.0,0.0,0.0,0.0,0.0,0.0,0.0,0.0,0.0,0.0,0.0,0.0,0.0,0.0,0.0,0.0,0.0,0.0,0.0,0.0,0.0,0.0,0.0,0.0,0.0,0.0,0.0,0.0,0.0,0.0,0.0,0.0,0.0,0.0,0.0,0.0,0.0,0.0,0.0,0.0,0.0,0.0,0.0,0.0,0.0,0.0,0.0,0.0,0.0,0.0,0.0,0.0,0.0,0.0,0.0,0.0,0.0,0.0,0.0,0.0,0.0,0.0,0.0,0.0,0.0,0.0411,0.139,0.0,0.0,0.0,0.0,0.0,0.0,0.0,0.0,0.0,0.0,0.0,0.0,0.0,0.0,0.0,0.0,0.0,0.0,0.0,0.0,0.0,0.0,0.0,0.0,0.0,0.0,0.0,0.0,0.0,0.0,0.0,0.0,0.0,0.0,0.0,0.0,0.0,0.0,0.0,0.0,0.0,0.0,0.0,0.0,0.0,0.0,0.0,0.0,0.0,0.0,0.0,0.0,0.0,0.0,0.0,0.0,0.0,0.0,0.0,0.0,0.0,0.0,0.0,0.0,0.0,0.0,0.0,0.0,0.0,0.0,0.0,0.0,0.0,0.0,0.0,0.0,0.0,0.0,0.0,0.0,0.0,0.0,0.0,0.0,0.0,0.0,0.0,0.0,0.0,0.0,0.0,0.0,0.0,0.0,0.0,0.0,0.0,0.0,0.0,0.0,0.0,0.0,0.0,0.0,0.0,0.0,0.0,0.0,0.0,0.0,0.0628,0.0,0.0,0.0,0.0,0.0,0.0,0.0,0.0,0.0,0.0,0.0,0.0,0.0,0.0,0.0,0.0,0.0,0.0,0.0,0.0,0.0,0.0,0.0,0.0,0.0,0.0,0.0,0.0,0.0,0.0,0.0,0.0,0.0,0.0,0.0,0.0,0.0,0.0,0.0,0.0,0.0,0.0,0.0,0.0,0.0,0.0,0.0,0.0,0.0,0.0,0.0,0.0,0.0,0.0,0.0,0.0,0.0,0.0,0.0,0.0,0.0,0.0,0.0,0.0,0.0,0.0,0.0,0.0,0.0,0.0,0.0,0.0,0.0,0.0,0.0,0.0,0.0,0.0,0.0,0.0,0.0,0.0,0.0,0.0,0.0,0.0,0.0,0.0,0.0,0.0,0.0,0.0,0.0,0.0,0.0,0.0,0.0,0.0,0.0,0.0,0.0,0.0,0.0,0.0,0.0,0.0,0.0,0.0,0.0,0.0,0.0,0.0631,0.2113,0.0,0.0,0.0,0.0,0.0,0.0,0.0,0.0,0.0,0.0,0.0,0.0,0.0,0.0,0.0,0.0,0.0,0.0,0.0,0.0,0.0,0.0,0.0,0.0,0.0,0.0,0.0,0.0,0.0,0.0,0.0,0.0,0.0,0.0,0.0,0.0,0.0,0.0,0.0,0.0,0.0,0.0,0.0,0.0,0.0,0.0,0.0,0.0,0.0,0.0,0.0,0.0,0.0,0.0,0.0,0.0,0.0,0.0,0.0,0.0,0.0,0.0,0.0,0.0,0.0,0.0,0.0,0.0,0.0,0.0,0.0,0.0,0.0,0.0,0.0,0.0,0.0,0.0,0.0,0.0,0.0,0.0,0.0,0.0,0.0,0.0,0.0,0.0,0.0,0.0,0.0,0.0,0.0,0.0,0.0,0.0,0.0,0.0,0.0,0.0,0.0,0.0,0.0,0.0,0.0,0.0,0.0,0.0,0.0,0.0,0.0629,0.211,0.0,0.0,0.0,0.0,0.0,0.0,0.0,0.0,0.0,0.0,0.0,0.0,0.0,0.0,0.0,0.0,0.0,0.0,0.0,0.0,0.0,0.0,0.0,0.0,0.0,0.0,0.0,0.0,0.0,0.0,0.0,0.0,0.0,0.0,0.0,0.0,0.0,0.0,0.0,0.0,0.0,0.0,0.0,0.0,0.0,0.0,0.0,0.0,0.0,0.0,0.0,0.0,0.0,0.0,0.0,0.0,0.0,0.0,0.0,0.0,0.0,0.0,0.0,0.0,0.0,0.0,0.0,0.0,0.0,0.0,0.0,0.0,0.0,0.0,0.0,0.0,0.0,0.0,0.0,0.0,0.0,0.0,0.0,0.0,0.0,0.0,0.0,0.0,0.0,0.0,0.0,0.0,0.0,0.0,0.0,0.0,0.0,0.0,0.0,0.0,0.0,0.0,0.0,0.0,0.0,0.0,0.0,0.0,0.0,0.0,0.0604,0.2015,0.0,0.0,0.0,0.0,0.0,0.0,0.0,0.0,0.0,0.0,0.0,0.0,0.0,0.0,0.0,0.0,0.0,0.0,0.0,0.0,0.0,0.0,0.0,0.0,0.0,0.0,0.0,0.0,0.0,0.0,0.0,0.0,0.0,0.0,0.0,0.0,0.0,0.0,0.0,0.0,0.0,0.0,0.0,0.0,0.0,0.0,0.0,0.0,0.0,0.0,0.0,0.0,0.0,0.0,0.0,0.0,0.0,0.0,0.0,0.0,1.1179,0.0,0.0,0.0,0.0,0.0,0.0,0.0,0.0,0.0,0.0,0.0,0.0,0.0,0.0,0.0,0.0,0.0,0.0,0.0,0.0,0.0,0.0,0.0,0.0,0.0,0.0,0.0,0.0,0.0,0.0,0.0,0.0,0.0,0.0,0.0,0.0,0.0,0.0,0.0,0.0,0.0,0.0,0.0,0.0,0.0,0.0,0.0,0.0,0.0,0.0389,0.1276,0.0,0.0,0.0,0.0,0.0,0.0,0.0,0.0,0.0,0.0,0.0,0.0,0.0,0.0,0.0,0.0,0.0,0.0,0.0,0.0,0.0,0.0,0.0,0.0,0.0,0.0,0.0,0.0,0.0,0.0,0.0,0.0,0.0,0.0,0.0,0.0,0.0,0.0,0.0,0.0,0.0,0.0,0.0,0.0,0.0,0.0,0.0,0.0,0.0,0.0,0.0,0.0,0.0,0.0,0.0,0.0,0.0,0.0,0.0,0.0,0.0,1.1654,0.0,0.0,0.0,0.0,0.0,0.0,0.0,0.0,0.0,0.0,0.0,0.0,0.0,0.0,0.0,0.0,0.0,0.0,0.0,0.0,0.0,0.0,0.0,0.0,0.0,0.0,0.0,0.0,0.0,0.0,0.0,0.0,0.0,0.0,0.0,0.0,0.0,0.0,0.0,0.0,0.0,0.0,0.0,0.0,0.0,0.0,0.0,0.0,0.0314,0.1058,0.103,0.0,0.0,0.0,0.0,0.0,0.0,0.0,0.0,0.0,0.0,0.0,0.0,0.0,0.0,0.0,0.0,0.0,0.0,0.0,0.0,0.0,0.0,0.0,0.0,0.0,0.0,0.0,0.0,0.0,0.0,0.0,0.0,0.0,0.0,0.0,0.0,0.0,0.0,0.0,0.0,0.0,0.0,0.0,0.0,0.0,0.0,0.0,0.0,0.0,0.0,0.0,0.0,0.0,1.34,1.3167,1.2949,1.3458,1.3733,1.3758,1.3081,1.2736,1.2625,0.0,0.0,0.0,0.0,0.0,0.0,0.0,0.0,0.0,0.0,0.0,0.0,0.0,0.0,0.0,0.0,0.0,0.0,0.0,0.0,0.0,0.0,0.0,0.0,0.0,0.3402,0.3242,0.0,0.0,0.0,0.0,0.0,0.0,0.0,0.0,0.0,0.0,0.0,0.0,0.0,0.0,0.0,0.0,0.0,0.0,0.0,0.0,0.0256,0.0864,0.09,0.1192,0.0,0.0,0.0,0.0,0.0,0.0,0.0,0.0,0.0,0.0,0.0,0.0,0.0,0.0,0.0,0.0,0.0,0.0,0.0,0.0,0.0,0.0,0.0,0.0,0.0,0.0,0.0,0.0,0.0,0.0,0.0,0.0,0.9044,0.9419,0.0,0.0,0.0,0.0,0.0,0.0,0.0,0.0,0.0,0.0,0.0,0.0,0.0,0.0,1.3501,1.4239,1.4029,1.2929,1.3402,1.302,1.1912,1.1986,1.2228,1.2607,1.2378,0.0,1.4141,1.326,0.0,0.0,0.0,0.0,0.0,0.0,0.0,0.0,0.0,0.0,0.0,0.0,0.0,0.0,0.0,0.0,0.0,0.0,0.0,0.0,0.0,0.0,0.378,0.3499,0.3307,0.3305,0.0,0.3141,0.2587,0.2388,0.0,0.0,0.0,0.0,0.0,0.0,0.0,0.0,0.0,0.0,0.0,0.0,0.0,0.0,0.0,0.0,0.0048,0.0141,0.0153,0.0472,0.1186,0.1117,0.0,0.0,0.0,0.0,0.0,0.0,0.0,0.0,0.0,0.0,0.0,0.0,0.0,0.0,0.0,0.0,0.0,0.0,0.0,0.0,0.0,0.0,0.0,0.0,0.0,0.0,0.0,0.0,0.0,0.9084,0.9765,0.9913,1.0089,1.0077,0.0,0.0,0.0,0.0,0.0,0.0,0.0,0.0,0.0,1.3774,1.2549,1.254,1.3974,1.3689,1.3385,1.3063,1.335,1.3245,1.2817,1.2817,1.2943,1.312,1.3086,1.3434,1.3934,1.2573,1.1826,1.1495,0.0,0.0,0.0,0.0,0.0,0.9995,0.9482,0.9195,0.0,0.0,0.0,0.0,0.0,0.0,0.0,0.0,0.0,0.0,0.0,0.0,0.0,0.257,0.2006,0.146,0.1486,0.1219,0.1245,0.0,0.2522,0.2275,0.1202,0.0,0.0,0.0,0.0,0.0,0.0,0.0,0.0,0.0,0.0,0.0,0.0,0.0,0.0,0.0,0.0,0.0135,0.0474,0.0435,0.0733,0.0,0.0,0.0,0.0,0.0,0.0,0.0,0.0,0.0,0.0,0.0,0.0,0.0,0.0,0.0,0.0,0.0,0.0,0.0,0.0,0.0,0.0,0.0,0.0,0.0,0.0,0.0,0.0,0.9834,1.0165,1.0261,1.0301,1.0095,0.0,0.0,0.0,0.0,0.0,0.0,1.2539,1.1695,1.218,1.4369,1.2489,1.2329,1.4184,1.3264,1.2863,1.2965,1.2965,1.2879,1.2756,1.2756,1.2792,1.2838,1.2783,1.2765,1.2722,1.1881,1.138,1.1101,1.0533,1.0295,1.0319,1.047,1.0412,1.021,0.985,0.9587,0.9193,0.7821,0.0,0.6292,0.4773,0.0,0.0,0.0,0.0,0.2469,0.2531,0.1876,0.1233,0.1437,0.0725,0.0,0.0,0.0,0.0386,0.0,0.2161,0.1986,0.099,0.0,0.0,0.0,0.0,0.0,0.0,0.0,0.0,0.0,0.0,0.0,0.0,0.0,0.0,0.0,0.0,0.0,0.0,0.0,0.0267,0.0817,0.0,0.0,0.0,0.0,0.0,0.0,0.0,0.0,0.0,0.0,0.0,0.0,0.0,0.0,0.0,0.0,0.0,0.0,0.0,0.0,0.0,0.0,0.0,0.0,0.0,0.0,0.0,0.0,0.0,1.0726,1.0044,0.0,0.0,0.0,0.0,0.9173,0.958,1.0146,1.0876,1.1376,1.205,1.2865,1.3076,1.3402,1.3915,1.3867,1.3226,1.2076,1.2076,1.1399,1.0198,1.0198,1.0281,1.0443,1.026,1.0229,1.0412,1.2031,1.2717,1.2632,1.2109,1.1894,1.1769,1.0783,1.0402,1.0241,0.9296,0.8954,0.8686,0.722,0.5404,0.3808,0.3818,0.3478,0.0,0.0,0.174,0.16,0.045,0.0114,0.0086,0.0088,0.0059,0.0,0.0,0.0,0.0027,0.0,0.0148,0.0145,0.0069,0.0,0.0046,0.0,0.0,0.0,0.0,0.0,0.0,0.0,0.0,0.0,0.0,0.0,0.0,0.0,0.0,0.0,0.0,0.0,0.0022,0.0063,0.0737,0.0,0.0,0.0,0.0,0.0,0.0,0.0,0.0,0.0,0.0,0.0,0.0,0.0,0.0,0.0,0.0,0.0,0.0,0.0,0.0,0.0,0.0,0.0,0.0,0.0,0.0,0.0,0.0,1.0254,1.0238,0.0,0.9463,0.9705,1.0073,1.0471,1.102,1.1627,1.2379,1.1801,1.2081,1.3467,1.1988,1.1709,1.2798,1.1992,1.1348,1.0919,1.0919,1.0674,1.0202,1.0202,1.0229,1.0308,1.0222,1.0202,1.0175,0.9656,1.0003,1.085,1.0668,1.0565,1.0544,1.0149,0.9292,0.8236,0.7854,0.6994,0.5993,0.547,0.4119,0.272,0.2747,0.1995,0.1028,0.0662,0.0612,0.0535,0.0116,0.0,0.0,0.0,0.0,0.0,0.0,0.0,0.0,0.0,0.0,0.0,0.0,0.0,0.0,0.0,0.0,0.0,0.0,0.0,0.0,0.0,0.0,0.0,0.0,0.0,0.0,0.0,0.0,0.0,0.0,0.0,0.0,0.0,-0.0583,-0.0777,0.0,0.0,0.0,0.0,0.0,0.0,0.0,0.0,0.0,0.0,0.0,0.0,0.0,0.0,0.0,0.0,0.0,0.0,0.0,0.0,0.0,0.0,0.0,0.0,0.0,0.0,0.9565,0.9881,1.0045,0.9901,0.9338,0.9784,1.0272,1.063,1.1079,1.1587,1.215,1.1352,1.1409,1.2659,1.1001,1.058,1.1627,1.0824,1.0453,1.0507,1.0555,1.0248,0.9619,0.9619,0.9252,0.8656,0.8656,0.8656,0.8558,0.7365,0.7447,0.8294,0.8191,0.8161,0.8161,0.8161,0.7382,0.6358,0.6358,0.5235,0.3832,0.3834,0.2766,0.1471,0.1448,0.0765,0.0,0.0,0.0,0.0,0.0,0.0,0.0,0.0,0.0,0.0,0.0,0.0,0.0,0.0,0.0,0.0,0.0,0.0,0.0,0.0,0.0,0.0,0.0,0.0,0.0,0.0,0.0,0.0,0.0,0.0,-0.0212,-0.0707,-0.071,-0.089,-0.1387,-0.132,-0.1286,-0.1285,-0.2149,-0.2472,-0.2209,0.0,0.0,0.0,0.0,0.0,0.0,0.0,0.0,0.0,0.0,0.0,0.0,0.0,0.0,0.0,0.0,0.0,0.0,0.0,0.0,0.0,0.0,0.0,0.9482,0.9435,0.941,0.9739,0.9436,0.9022,0.8587,0.8941,0.9267,0.9417,0.9537,0.9717,1.0008,0.9966,1.004,1.029,1.0201,1.0236,1.0442,1.0491,1.0605,1.0717,1.0994,1.0081,0.8199,0.8268,0.7252,0.5406,0.5406,0.5406,0.5406,0.5336,0.5302,0.5276,0.503,0.492,0.492,0.4916,0.4884,0.482,0.4753,0.3727,0.2407,0.2437,0.1325,0.0,0.0,0.0,0.0,0.0,0.0,0.0,0.0,0.0,0.0,0.0,0.0,0.0,0.0,0.0,0.0,0.0,0.0,0.0,0.0,0.0,0.0,0.0,0.0,0.0,0.0,-0.0027,-0.0082,-0.008,-0.0107,-0.0134,-0.0137,-0.0135,-0.0756,-0.217,-0.213,-0.2711,-0.413,-0.3956,-0.3833,-0.3881,-0.3875,-0.3949,-0.411,0.0,0.0,0.0,0.0,0.0,0.0,0.0,0.0,0.0,0.0,0.0,0.0,0.0,0.0,0.0,0.0,0.0,0.0,0.0,0.0,0.0,0.0,0.8058,0.8411,0.861,0.8872,0.9314,0.9446,0.9435,0.9313,0.9503,0.97,0.9825,0.9873,0.9981,1.0209,0.9058,0.9069,1.053,0.8092,0.7444,0.8882,0.7536,0.6876,0.6936,0.8391,0.809,0.6244,0.7673,0.7252,0.5406,0.5406,0.5406,0.5302,0.3983,0.3425,0.3556,0.4793,0.5248,0.5275,0.5255,0.4441,0.3113,0.1804,0.1046,0.0685,0.0676,0.0385,0.0,0.0,0.0,0.0,0.0,0.0,0.0,0.0,0.0,0.0,0.0,0.0,0.0,0.0,0.0,0.0,0.0,0.0,0.0,0.0,0.0,0.0,0.0,0.0,0.0,0.0,-0.0946,-0.1609,-0.1601,-0.2592,-0.3255,-0.327,-0.3257,-0.3385,0.0,-0.361,-0.3779,-0.419,-0.4128,-0.4564,-0.5601,-0.5369,-0.5647,0.0,0.0,0.0,0.0,0.0,0.0,0.0,0.0,0.0,0.0,0.0,0.0,0.0,0.0,0.0,0.0,0.0,0.0,0.0,0.0,0.0,0.0,0.5865,0.6396,0.6584,0.7965,0.8788,0.8364,0.8576,0.8462,0.7715,0.7712,0.7801,0.7949,0.7943,0.8022,0.8241,0.7317,0.7296,0.8444,0.6492,0.5953,0.7078,0.6034,0.5487,0.5487,0.6689,0.6245,0.4401,0.5534,0.497,0.0,0.3126,0.3126,0.3057,0.1992,0.1566,0.0,0.0,0.0,0.0,0.0,0.246,0.1434,0.0373,0.0,0.0,0.0,0.0,0.0,0.0,0.0,0.0,0.0,0.0,0.0,0.0,0.0,0.0,0.0,0.0,0.0,0.0,0.0,0.0,0.0,0.0,0.0,-0.1032,-0.0477,-0.0235,-0.0929,-0.1044,-0.13,-0.1972,-0.2796,-0.3335,-0.3335,-0.4126,-0.4651,-0.4592,-0.4584,0.0,0.0,0.0,-0.5391,-0.5887,-0.5908,0.0,0.0,0.0,0.0,0.0,0.0,0.0,0.0,-0.7356,-0.7502,0.0,0.0,0.0,0.0,0.0,0.0,0.0,0.0,0.0,0.0,0.0,0.0,0.0,0.0,0.0,0.0,0.3751,0.4224,0.4656,0.7226,0.8527,0.7025,0.7115,0.6695,0.5061,0.4942,0.5011,0.5116,0.5148,0.5214,0.5382,0.0,0.0,0.0,0.0,0.4899,0.5115,0.5003,0.4962,0.4962,0.5309,0.4467,0.2581,0.28,0.1856,0.0,0.0,0.0,0.0,0.0,0.0,0.0,0.0,0.0,0.0,0.0,0.0,0.0,0.0,0.0,0.0,0.0,0.0,0.0,0.0,0.0,0.0,0.0,0.0,0.0,0.0,0.0,0.0,0.0,0.0,0.0,0.0,-0.0162,-0.0259,-0.0032,-0.1531,-0.2777,-0.2557,-0.1432,-0.1064,-0.2533,-0.2767,-0.3293,-0.4721,-0.5042,-0.5159,-0.5159,0.0,0.0,-0.5226,-0.5233,-0.5712,-0.6871,-0.6824,-0.7235,-0.8297,-0.8376,-0.8389,-0.8369,-0.8403,-0.8539,-0.8757,-0.8906,-0.8987,-0.8967,-0.8058,-0.7927,0.0,0.0,0.0,0.0,0.0,0.0,0.0,0.0,0.0,0.0,0.0,0.0,0.0,0.0,0.0,0.3682,0.4199,0.459,0.4692,0.5437,0.5817,0.5382,0.5494,0.5446,0.5079,0.5205,0.5305,0.534,0.5357,0.5373,0.5386,0.4011,0.0,0.553,0.2629,0.1787,0.3353,0.1847,0.1089,0.1089,0.0,0.0,0.062,0.2183,0.1856,0.0,0.0,0.0,0.0,0.0,0.0,0.0,0.0,0.0,0.0,0.0,0.0,0.0,0.0,0.0,0.0,0.0,0.0,0.0,0.0,0.0,0.0,0.0,0.0,0.0,0.0,0.0,0.0,0.0,0.0,0.0,0.0,-0.1147,-0.1731,-0.0291,-0.2632,-0.4383,-0.2913,-0.3364,-0.4065,-0.4372,-0.4425,-0.4552,-0.4874,-0.5948,-0.6681,-0.6681,-0.7793,-0.852,-0.8489,-0.8493,-0.8502,-0.8476,-0.8357,-0.8381,-0.8628,-0.8879,-0.8954,-0.8784,-0.9042,-0.9165,-0.9097,-0.9347,-0.9453,-0.9447,-0.9273,-0.9171,0.0,0.0,0.0,0.0,0.0,0.0,0.0,0.0,0.0,0.0,0.0,0.17,0.1394,0.0,0.1821,0.1882,0.2164,0.2347,0.235,0.2464,0.285,0.3607,0.3807,0.3533,0.2643,0.2645,0.2708,0.269,0.2708,0.2684,0.2684,0.185,0.179,0.2773,0.0974,0.0471,0.1456,0.0474,0.0,0.0,0.0991,0.0957,0.0037,0.1,0.0929,0.0,0.0,0.0,0.0,0.0,0.0,0.0,0.0,0.0,0.0,0.0,0.0,0.0,0.0,0.0,0.0,0.0,0.0,0.0,0.0,0.0,0.0,0.0,0.0,0.0,0.0,0.0,0.0,0.0,0.0,-0.0237,-0.1168,-0.206,-0.2684,-0.27,-0.4799,-0.6328,-0.5418,-0.6565,-0.7283,-0.6399,-0.6263,-0.6532,-0.7269,-0.8004,-0.8456,-0.8456,-0.9146,-0.9571,-0.9503,-0.9422,-0.932,-0.9171,-0.9089,-0.9049,-0.9049,-0.922,-0.9273,-0.9244,-0.9422,-0.953,-0.9598,-0.9724,-0.9839,-0.9951,-1.0093,-1.0005,0.0,0.0,0.0,0.0,0.0,0.0,0.0,0.2384,0.1614,0.1013,0.0896,0.0704,0.0106,0.0,0.0,0.0,0.0,0.0,0.0,0.0,0.0496,0.1849,0.2093,0.1614,0.0138,0.0,0.0,0.0,0.0,0.0,0.0,0.0,0.0,0.0,0.0,0.0,0.0,0.0,0.0,0.0,0.0,0.0,0.0,0.0,0.0,0.0,0.0,0.0,0.0,0.0,0.0,0.0,0.0,0.0,0.0,0.0,0.0,0.0,0.0,0.0,0.0,0.0,0.0,0.0,0.0,0.0,0.0,0.0,0.0,0.0,0.0,0.0,0.0,0.0,0.0,-0.0413,-0.1868,-0.2734,-0.3537,-0.4647,-0.675,-0.8263,-0.7903,-0.9263,-0.9851,-0.8346,-0.813,-0.8571,-0.9739,-0.991,-0.991,-0.991,-0.991,-0.9863,-0.9747,-0.9598,-0.9539,-0.951,-0.9483,-0.9469,-0.9469,-0.9496,-0.9571,-0.9663,-0.9727,-0.9856,-1.0062,-1.0123,-1.0211,-1.0371,-1.067,-1.0549,0.4901,0.4207,0.3591,0.3302,0.229,0.1476,0.0,0.1154,0.0225,0.0132,0.011,0.0085,0.0029,0.0,0.0,0.0,0.0,0.0,0.0,0.0,0.0067,0.0268,0.0306,0.0207,0.0035,0.0,0.0,0.0,0.0,0.0,0.0,0.0,0.0,0.0,0.0,0.0,0.0,0.0,0.0,0.0,0.0,0.0,0.0,0.0,0.0,0.0,0.0,0.0,0.0,0.0,0.0,0.0,0.0,0.0,0.0,0.0,0.0,0.0,0.0,0.0,0.0,0.0,0.0,0.0,0.0,0.0,0.0,0.0,0.0,0.0,0.0,0.0,0.0,0.0,0.0,-0.007,-0.0244,-0.2827,-0.468,-0.3281,-0.6984,-0.9856,-0.8247,-0.9474,-1.0509,-1.0067,-0.9996,-1.0059,-1.0229,-1.0229,-1.0229,-1.0229,-1.0229,-1.0254,-1.0209,-1.0097,-1.0009,-0.994,-0.9819,-0.9744,-0.9744,-0.9873,-0.9954,-0.9967,-1.0134,-1.0254,-1.0256,-1.0521,-1.0623,-1.0644,-1.0975,-1.0948,0.3288,0.2666,0.2151,0.1468,0.0868,0.0537,0.0777,0.0399,0.0,0.0,0.0,0.0,0.0,0.0,0.0,0.0,0.0,0.0,0.0,0.0,0.0,0.0,0.0,0.0,0.0,0.0,0.0,0.0,0.0,0.0,0.0,0.0,0.0,0.0,0.0,0.0,0.0,0.0,0.0,0.0,0.0,0.0,0.0,0.0,0.0,0.0,0.0,0.0,0.0,0.0,0.0,0.0,0.0,0.0,0.0,0.0,0.0,0.0,0.0,0.0,0.0,0.0,0.0,0.0,0.0,0.0,0.0,0.0,0.0,0.0,0.0,0.0,0.0,0.0,0.0,-0.0283,-0.1333,-0.2751,-0.426,-0.5677,-0.7781,-0.9375,-0.9636,-1.0309,-1.0745,-1.0568,-1.046,-1.0403,-1.0322,-1.0315,-1.0315,-1.0315,-1.0315,-1.0315,-1.0315,-1.0254,-1.0188,-1.0181,-1.012,-1.0086,-1.0086,-1.0148,-1.0222,-1.0304,-1.046,-1.0582,-1.0637,-1.0873,-1.0975,-1.1016,-1.1192,-1.1274,0.12,0.1042,0.0869,-0.039,-0.0335,-0.0134,-0.0592,-0.0333,-0.0144,-0.0581,-0.0685,-0.0701,-0.0681,-0.0697,-0.0551,-0.0066,-0.0433,-0.074,-0.074,-0.0737,-0.0733,-0.0758,-0.0301,0.0,0.0,0.0,0.0,0.0,0.0,0.0,0.0,0.0,0.0,0.0,0.0,0.0,0.0,0.0,0.0,0.0,0.0,0.0,0.0,0.0,0.0,0.0,0.0,0.0,0.0,0.0,0.0,0.0,0.0,0.0,0.0,0.0,0.0,0.0,0.0,0.0,0.0,0.0,0.0,0.0,0.0,0.0,0.0,0.0,0.0,0.0,0.0,0.0,0.0,0.0,0.0,-0.0359,-0.1667,-0.2786,-0.4321,-0.7017,-0.8392,-0.9492,-1.0784,-1.0975,-1.0934,-1.086,-1.0711,-1.0568,-1.0419,-1.0399,-1.0399,-1.0399,-1.0399,-1.0399,-1.0399,-1.0399,-1.0399,-1.0399,-1.0399,-1.0399,-1.0399,-1.0439,-1.0514,-1.0616,-1.0765,-1.0894,-1.0975,-1.1158,-1.1261,-1.1261,-1.1423,-1.1572,-0.172,-0.0844,-0.0339,-0.2006,-0.1212,-0.0415,-0.2057,-0.1158,-0.0451,-0.2102,-0.2433,-0.2411,-0.2417,-0.242,-0.1907,-0.0263,-0.1465,-0.2618,-0.2618,-0.262,-0.2631,-0.2629,-0.1074,0.0,0.0,0.0,0.0,0.0,0.0,0.0,0.0,0.0,0.0,0.0,0.0,0.0,0.0,0.0,0.0,0.0,0.0,0.0,0.0,0.0,0.0,0.0,0.0,0.0,0.0,0.0,0.0,0.0,0.0,0.0,0.0,0.0,0.0,0.0,0.0,0.0,0.0,0.0,0.0,0.0,0.0,0.0,0.0,0.0,0.0,0.0,0.0,0.0,0.0,0.0,0.0,0.0,-0.0073,-0.295,-0.555,-0.5657,-0.8618,-1.1124,-1.1193,-1.1193,-1.1186,-1.1186,-1.1029,-1.0846,-1.0691,-1.0704,-1.0704,-1.0704,-1.0704,-1.0704,-1.0704,-1.0704,-1.0704,-1.0704,-1.0704,-1.0704,-1.0704,-1.0819,-1.0894,-1.0901,-1.1077,-1.1186,-1.1193,-1.1342,-1.1382,-1.1389,-1.1644,-1.1786,-0.3101,-0.1745,-0.0651,-0.3416,-0.2853,-0.2078,-0.3712,-0.365,-0.3417,-0.3966,-0.401,-0.3955,-0.3954,-0.395,-0.3805,-0.3321,-0.2874,-0.3021,-0.4325,-0.347,-0.3109,-0.4155,-0.2821,0.0,0.0,0.0,0.0,0.0,0.0,0.0,0.0,0.0,0.0,0.0,0.0,0.0,0.0,0.0,0.0,0.0,0.0,0.0,0.0,0.0,0.0,0.0,0.0,0.0,0.0,0.0,0.0,0.0,0.0,0.0,0.0,0.0,0.0,0.0,0.0,0.0,0.0,0.0,0.0,0.0,0.0,0.0,0.0,0.0,0.0,0.0,0.0,0.0,0.0,0.0,0.0,0.0,0.0,-0.1995,-0.4186,-0.5483,-0.779,-0.9924,-1.1118,-1.1314,-1.1315,-1.1213,-1.1043,-1.086,-1.0704,-1.0684,-1.0684,-1.0684,-1.0684,-1.0684,-1.0684,-1.0779,-1.084,-1.084,-1.0962,-1.1016,-1.1016,-1.1063,-1.109,-1.109,-1.124,-1.1314,-1.1314,-1.1558,-1.1681,-1.1651,-1.1891,-1.204,-0.3342,-0.2137,-0.1536,-0.423,-0.3699,-0.3071,-0.5286,-0.5286,-0.4997,-0.5574,-0.554,-0.5414,-0.5409,-0.5361,-0.5218,-0.4872,-0.4535,-0.4811,-0.6229,-0.542,-0.5077,-0.6113,-0.4158,-0.2651,0.0,0.0,0.0,0.0,0.0,0.0,0.0,0.0,0.0,0.0,0.0,0.0,0.0,0.0,0.0,0.0,0.0,0.0,0.0,0.0,0.0,0.0,0.0,0.0,0.0,0.0,0.0,0.0,0.0,0.0,0.0,0.0,0.0,0.0,0.0,0.0,0.0,0.0,0.0,0.0,0.0,0.0,0.0,0.0,0.0,0.0,0.0,0.0,0.0,0.0,0.0,0.0,0.0,-0.2081,-0.4322,-0.5555,-0.7946,-1.0096,-1.1271,-1.147,-1.1423,-1.1302,-1.1165,-1.1016,-1.09,-1.088,-1.088,-1.088,-1.088,-1.088,-1.088,-1.0968,-1.1023,-1.1023,-1.1145,-1.12,-1.12,-1.1247,-1.1281,-1.1281,-1.1443,-1.1545,-1.1552,-1.1796,-1.1911,-1.1918,-1.2074,-1.2234,-0.2977,-0.2411,-0.3039,-0.4726,-0.3943,-0.3595,-0.678,-0.6185,-0.5369,-0.6886,-0.7,-0.6809,-0.6799,-0.6696,-0.6234,-0.5104,-0.6419,-0.7794,-0.8361,-0.8358,-0.8356,0.0,0.0,0.0,0.0,0.0,0.0,0.0,0.0,0.0,0.0,0.0,0.0,0.0,0.0,0.0,0.0,0.0,0.0,0.0,0.0,0.0,0.0,0.0,0.0,0.0,0.0,0.0,0.0,0.0,0.0,0.0,0.0,0.0,0.0,0.0,0.0,0.0,0.0,0.0,0.0,0.0,0.0,0.0,0.0,0.0,0.0,0.0,0.0,0.0,0.0,0.0,0.0,0.0,0.0,0.0,0.0,-0.2978,-0.5673,-0.5779,-0.893,-1.1584,-1.1584,-1.1584,-1.1572,-1.1423,-1.1402,-1.1348,-1.122,-1.12,-1.12,-1.12,-1.12,-1.12,-1.12,-1.1206,-1.1206,-1.1206,-1.122,-1.122,-1.122,-1.1335,-1.1416,-1.1416,-1.1694,-1.1807,-1.1807,-1.1999,-1.2111,-1.2118,-1.2268,-1.2305,-0.7138,-0.5904,-0.511,-0.7876,-0.7413,-0.6794,-0.8606,-0.8665,-0.8408,-0.8615,-0.8407,-0.8121,-0.7919,-0.8025,-0.8125,-0.8048,-0.7804,0.0,-0.9977,-0.9222,0.0,-1.0097,0.0,-0.4832,-0.4731,-0.1841,0.0,0.0,0.0,0.0,0.0,0.0,0.0,0.0,0.0,0.0,0.0,0.0,0.0,0.0,0.0,0.0,0.0,0.0,0.0,0.0,0.0,0.0,0.0,0.0,0.0,0.0,0.0,0.0,0.0,0.0,0.0,0.0,0.0,0.0,0.0,0.0,0.0,0.0,0.0,0.0,0.0,0.0,0.0,0.0,0.0,0.0,0.0,0.0,0.0,0.0,0.0,-0.1913,-0.4064,-0.5535,-0.8946,-1.1584,-1.1584,-1.1584,-1.1606,-1.1565,-1.1558,-1.1463,-1.1234,-1.12,-1.12,-1.12,-1.12,-1.12,-1.12,-1.1302,-1.1335,-1.1335,-1.1443,-1.1504,-1.1504,-1.164,-1.1685,-1.1685,-1.1904,-1.2006,-1.2006,-1.2193,-1.223,-1.2237,-1.2379,-1.2508,-0.7441,-0.6863,-0.6687,-0.841,-0.8158,-0.7847,-0.9131,-0.9306,-0.911,-0.8743,-0.8431,-0.8153,-0.7947,-0.8119,-0.8459,0.0,0.0,0.0,-1.0671,-1.02,-1.005,0.0,-0.8611,0.0,-0.6749,-0.3427,-0.1256,0.0,-0.0473,0.0,0.0,0.0,0.0,0.0,0.0,0.0,0.0,0.0,0.0,0.0,0.0,0.0,0.0,0.0,0.0,0.0,0.0,0.0,0.0,0.0,0.0,0.0,0.0,0.0,0.0,0.0,0.0,0.0,0.0,0.0,0.0,0.0,0.0,0.0,0.0,0.0,0.0,0.0,0.0,0.0,0.0,0.0,0.0,0.0,0.0,-0.0267,-0.1182,-0.288,-0.5118,-0.7993,-1.0344,-1.1816,-1.1816,-1.1816,-1.1789,-1.1685,-1.1678,-1.159,-1.1396,-1.1362,-1.1362,-1.1362,-1.1362,-1.1362,-1.1362,-1.1443,-1.1491,-1.1491,-1.1597,-1.1678,-1.1678,-1.1857,-1.1932,-1.1932,-1.2088,-1.22,-1.22,-1.2311,-1.242,-1.2488,-1.2562,-1.2684,-0.6411,-0.692,-0.8108,-0.7974,-0.783,-0.8015,-0.8946,-0.8893,-0.8547,-0.8054,-0.7722,-0.7495,-0.7362,-0.757,-0.7991,-0.8608,0.0,-1.0062,-1.0833,-1.1104,-1.1288,-1.1402,-0.97,-0.8525,-0.854,-0.5116,-0.304,-0.3337,-0.1268,0.0,0.0,0.0,0.0,0.0,0.0,0.0,0.0,0.0,0.0,0.0,0.0,0.0,0.0,0.0,0.0,0.0,0.0,0.0,0.0,0.0,0.0,0.0,0.0,0.0,0.0,0.0,0.0,0.0,0.0,0.0,0.0,0.0,0.0,-0.0039,-0.0314,-0.0392,-0.0471,-0.0746,-0.0628,-0.0392,-0.0392,-0.0196,0.0,0.0,-0.0195,-0.0888,-0.27,-0.4842,-0.7473,-1.1027,-1.1925,-1.2098,-1.2098,-1.2098,-1.205,-1.1884,-1.1827,-1.1816,-1.1694,-1.1647,-1.1584,-1.1584,-1.164,-1.1647,-1.1647,-1.1667,-1.1681,-1.1681,-1.1796,-1.1827,-1.1827,-1.2013,-1.2132,-1.2132,-1.2244,-1.2332,-1.2345,-1.2474,-1.261,-1.272,-1.272,-1.284,-0.9242,-0.9583,-0.9967,-0.9675,-0.9622,-0.9518,-0.9045,-0.8743,-0.8357,-0.7794,-0.7411,-0.7154,-0.7012,-0.7353,-0.7875,-0.8594,-0.9305,-1.0127,-1.1036,-1.1253,-1.1409,0.0,-0.9833,-0.8709,-0.8805,0.0,0.0,0.0,0.0,0.0,0.0,0.0,0.0,0.0,0.0,0.0,0.0,0.0,0.0,0.0,0.0,0.0,0.0,0.0,0.0,0.0,0.0,0.0,0.0,0.0,0.0,0.0,0.0,0.0,0.0,0.0,0.0,0.0,0.0,0.0,0.0,0.0,0.0,-0.0314,-0.2037,-0.2545,-0.2936,-0.4693,-0.3914,-0.2545,-0.2545,-0.1294,0.0,0.0,-0.1331,-0.2654,-0.3005,-0.6018,-0.8868,-0.9558,-1.1001,-1.2098,-1.2098,-1.2098,-1.2091,-1.2064,-1.2057,-1.205,-1.2023,-1.1769,-1.1584,-1.1584,-1.1692,-1.1759,-1.1759,-1.1911,-1.2023,-1.2023,-1.2043,-1.2057,-1.2057,-1.2207,-1.2288,-1.2288,-1.2393,-1.2528,-1.2618,-1.2638,-1.2773,-1.2962,-1.2962,-1.3037,-1.0076,-1.0385,-1.0541,-1.0243,-1.0046,-0.97,-0.8798,-0.8296,-0.7807,-0.7076,-0.6804,-0.6634,-0.6465,-0.6931,-0.7506,-0.8045,-0.8757,-0.9557,-1.0453,-1.0778,-1.0687,-1.0048,-0.9206,-0.8749,0.0,0.0,0.0,0.0,0.0,-0.2808,-0.1656,-0.0585,0.0,0.0,0.0,0.0,0.0,0.0,0.0,0.0,0.0,0.0,0.0,0.0,0.0,0.0,0.0,0.0,0.0,0.0,0.0,0.0,0.0,0.0,0.0,0.0,0.0,0.0,0.0,0.0,-0.0205,-0.1344,-0.1734,-0.1956,-0.2951,-0.4007,-0.5089,-0.6112,-0.4792,-0.3365,-0.4459,-0.321,-0.188,-0.3016,-0.4849,-0.6368,-0.6368,-0.8784,-1.0916,-1.0916,-1.1676,-1.2329,-1.2329,-1.2329,-1.2264,-1.2189,-1.2182,-1.2186,-1.2111,-1.1975,-1.185,-1.185,-1.1911,-1.1952,-1.1952,-1.2057,-1.2098,-1.2098,-1.2173,-1.2182,-1.2182,-1.24,-1.2522,-1.2522,-1.2664,-1.2779,-1.2854,-1.2854,-1.2929,-1.3111,-1.3111,-1.3193,-1.0114,-1.0399,-1.0561,-1.0297,-0.9978,-0.9469,-0.8519,-0.7868,-0.7265,-0.647,-0.6099,-0.5873,-0.5752,-0.6069,-0.6583,-0.7264,-0.7877,-0.8683,-0.9896,-1.0324,-1.0174,-0.9222,-0.9245,0.0,-0.9566,0.0,0.0,0.0,0.0,0.0,-0.3205,-0.1132,0.0,0.0,0.0,0.0,0.0,0.0,0.0,0.0,0.0,0.0,0.0,0.0,0.0,0.0,0.0,0.0,0.0,0.0,0.0,0.0,0.0,0.0,0.0,0.0,0.0,0.0,0.0,-0.0335,-0.0996,-0.2776,-0.3364,-0.3568,-0.4498,-0.5913,-0.7302,-0.7779,-0.5947,-0.4217,-0.5909,-0.4414,-0.3075,-0.5697,-0.7924,-0.9563,-0.9964,-1.1366,-1.2501,-1.2501,-1.2501,-1.2501,-1.2501,-1.2501,-1.2467,-1.2352,-1.2338,-1.2291,-1.2207,-1.2193,-1.2193,-1.2193,-1.2166,-1.2145,-1.2145,-1.2179,-1.2193,-1.2193,-1.2298,-1.2386,-1.2386,-1.2637,-1.2779,-1.2779,-1.2941,-1.3016,-1.305,-1.305,-1.3139,-1.3268,-1.3268,-1.3417,-0.9825,-1.0086,-1.0283,-1.0082,-0.9741,-0.9247,-0.8471,-0.7706,-0.6985,-0.6409,-0.5435,-0.4696,-0.4809,-0.4333,-0.4515,-0.6309,-0.6763,-0.7666,-0.9948,-1.0392,-1.0644,-1.1069,0.0,0.0,-1.179,0.0,0.0,0.0,0.0,0.0,-0.3203,-0.1137,0.0,0.0,0.0,0.0,0.0,0.0,0.0,0.0,0.0,0.0,0.0,0.0,0.0,0.0,0.0,0.0,0.0,0.0,0.0,0.0,0.0,0.0,0.0,0.0,0.0,0.0,0.0,-0.1344,-0.3102,-0.3311,-0.3386,-0.4133,-0.8048,-0.9336,-0.9893,-1.1841,-0.9402,-0.6254,-0.6415,-0.3396,-0.1293,-0.534,-0.7983,-1.0055,-1.1824,-1.2385,-1.2501,-1.2501,-1.2501,-1.2501,-1.2501,-1.2501,-1.2494,-1.2481,-1.2481,-1.2474,-1.2461,-1.2461,-1.2461,-1.2461,-1.2345,-1.2271,-1.2271,-1.2386,-1.2461,-1.2461,-1.2603,-1.2652,-1.2652,-1.2854,-1.2982,-1.2982,-1.2996,-1.3064,-1.3193,-1.3193,-1.3302,-1.3545,-1.3545,-1.3632,-0.9744,-1.0046,-1.0222,-0.994,-0.9646,-0.9165,-0.8208,-0.7459,-0.6796,-0.6125,-0.5102,-0.4339,-0.4384,-0.3899,-0.4,-0.5591,-0.5944,-0.6495,-0.7831,-0.8137,-0.8144,-0.7927,-0.8021,0.0,0.0,0.0,0.0,0.0,0.0,0.0,-0.6952,-0.3677,-0.1294,-0.0039,0.0,0.0,0.0,0.0,0.0,0.0,0.0,0.0,0.0,0.0,0.0,0.0,0.0,0.0,0.0,0.0,0.0,0.0,0.0,0.0,0.0,0.0,0.0,-0.021,-0.1513,-0.2562,-0.3776,-0.6495,-0.7368,-0.7683,-0.9414,-1.0805,-1.2019,-1.2882,-1.0901,-0.8451,-0.8375,-0.7084,-0.6553,-0.9617,-1.1015,-1.1846,-1.2628,-1.2819,-1.2819,-1.2819,-1.2819,-1.2819,-1.2819,-1.2819,-1.2819,-1.2819,-1.2819,-1.2819,-1.2819,-1.2819,-1.2819,-1.2819,-1.2562,-1.2454,-1.2549,-1.261,-1.2678,-1.2773,-1.2834,-1.2868,-1.2868,-1.301,-1.3125,-1.3125,-1.322,-1.3302,-1.3444,-1.3444,-1.3553,-1.3714,-1.3714,-1.3795,-0.946,-0.9781,-0.9971,-0.9802,-0.9469,-0.8871,-0.7697,-0.6914,-0.6172,-0.516,-0.4085,-0.3346,-0.3337,-0.2815,-0.2956,-0.4654,-0.5041,-0.5603,-0.6971,-0.7319,-0.7296,-0.6956,0.0,0.0,0.0,0.0,0.0,0.0,0.0,0.0,0.0,-0.6251,-0.3716,-0.102,-0.0902,-0.0628,0.0,0.0,0.0,0.0,0.0,0.0,0.0,0.0,0.0,0.0,0.0,0.0,0.0,0.0,0.0,0.0,0.0,0.0,0.0,0.0,0.0,-0.0337,-0.2519,-0.3734,-0.4947,-0.879,-1.0466,-1.1006,-1.1006,-1.2072,-1.3282,-1.3282,-1.1639,-0.9723,-0.8951,-0.9241,-1.0089,-1.1686,-1.2574,-1.305,-1.3009,-1.3003,-1.3003,-1.3003,-1.3003,-1.3003,-1.3003,-1.3003,-1.3003,-1.3003,-1.3003,-1.3003,-1.3003,-1.3003,-1.3003,-1.3003,-1.2805,-1.2684,-1.2786,-1.28,-1.2847,-1.2996,-1.3043,-1.3064,-1.3064,-1.3207,-1.3282,-1.3282,-1.339,-1.3519,-1.3585,-1.3632,-1.3727,-1.3905,-1.3905,-1.3994,-0.8879,-0.9164,-0.9429,-0.9578,-0.9164,-0.8328,-0.6836,-0.594,-0.4946,-0.3274,-0.207,-0.1337,-0.1334,-0.0618,-0.0863,-0.34,-0.3919,-0.5116,-0.8236,-0.896,-0.9374,0.0,0.0,0.0,0.0,0.0,0.0,0.0,0.0,0.0,0.0,-0.8244,-0.7423,-0.3208,-0.3052,-0.2076,-0.0039,0.0,0.0,0.0,0.0,0.0,0.0,0.0,0.0,0.0,0.0,0.0,0.0,0.0,0.0,0.0,0.0,0.0,0.0,0.0,0.0,-0.0337,-0.2519,-0.4779,-0.7034,-0.9337,-1.1594,-1.3355,-1.3355,-1.3403,-1.3397,-1.3397,-1.1801,-0.9582,-0.7326,-0.8369,-0.9972,-0.9856,-1.1557,-1.3173,-1.303,-1.3003,-1.3003,-1.3003,-1.3003,-1.3003,-1.3003,-1.3003,-1.3003,-1.3003,-1.3003,-1.3003,-1.3003,-1.3003,-1.3003,-1.3003,-1.2996,-1.2996,-1.3003,-1.3003,-1.3003,-1.3003,-1.3132,-1.3214,-1.3214,-1.3315,-1.3397,-1.3397,-1.3546,-1.3585,-1.3585,-1.3727,-1.3919,-1.4112,-1.4112,-1.415,-0.8255,-0.8696,-0.8886,-0.8757,-0.7889,-0.6844,-0.6063,-0.4901,-0.3766,-0.3054,-0.2051,-0.1301,-0.1296,-0.0579,-0.0525,-0.2163,-0.3314,-0.4347,-0.5356,-0.6638,0.0,-0.841,-1.0218,0.0,0.0,0.0,0.0,0.0,0.0,0.0,0.0,-1.1172,-0.9604,-0.5435,-0.3873,-0.278,-0.2115,-0.0712,0.0,0.0,0.0,0.0,0.0,0.0,0.0,0.0,0.0,0.0,0.0,0.0,0.0,0.0,0.0,0.0,0.0,0.0,0.0,-0.0337,-0.2604,-0.386,-0.5072,-0.8832,-1.0507,-1.1386,-1.2941,-1.3403,-1.3403,-1.3403,-1.176,-1.0211,-1.1048,-1.0632,-1.0372,-1.1919,-1.2827,-1.3315,-1.3268,-1.3261,-1.3261,-1.3261,-1.3261,-1.3261,-1.3261,-1.3261,-1.3261,-1.3261,-1.3261,-1.3261,-1.3261,-1.3261,-1.3261,-1.3261,-1.3261,-1.322,-1.3152,-1.3146,-1.3193,-1.3254,-1.3302,-1.3329,-1.3329,-1.3478,-1.3559,-1.3559,-1.366,-1.3781,-1.3933,-1.3973,-1.4021,-1.4119,-1.4177,-1.4197,-0.6954,-0.7598,-0.7755,-0.766,-0.6904,-0.5866,-0.4694,-0.3588,-0.2627,-0.1942,-0.1277,-0.0806,-0.0809,-0.0694,-0.0862,-0.1666,-0.2946,-0.4097,-0.4777,-0.5976,0.0,-0.8673,0.0,0.0,0.0,0.0,0.0,0.0,0.0,0.0,0.0,-1.2501,-1.1327,-0.8711,-0.6562,-0.473,-0.313,-0.1816,-0.0793,0.0,0.0,0.0,0.0,0.0,0.0,0.0,0.0,0.0,0.0,0.0,0.0,0.0,0.0,0.0,0.0,0.0,0.0,-0.0337,-0.2562,-0.3944,-0.524,-0.8874,-1.059,-1.1552,-1.2982,-1.3403,-1.3403,-1.3403,-1.2395,-1.1594,-1.3024,-1.2347,-1.1635,-1.3065,-1.3403,-1.3403,-1.3403,-1.3403,-1.3403,-1.3403,-1.3403,-1.3403,-1.3403,-1.3403,-1.3403,-1.3403,-1.3403,-1.3403,-1.3403,-1.3403,-1.3403,-1.3403,-1.3403,-1.3363,-1.3268,-1.3302,-1.3302,-1.3397,-1.3403,-1.3424,-1.3485,-1.358,-1.3612,-1.3666,-1.3808,-1.3973,-1.4119,-1.4129,-1.4173,-1.4119,-1.4231,-1.4251,0.0,-0.5918,-0.6144,-0.6258,-0.5995,-0.512,-0.2955,-0.215,0.0,-0.0265,0.0,0.0,0.0,-0.087,-0.1622,-0.1673,-0.276,-0.4215,-0.5921,-0.6743,0.0,0.0,0.0,0.0,0.0,0.0,0.0,0.0,0.0,0.0,0.0,-1.2501,-1.2501,-1.2501,-1.0624,-0.7656,-0.3599,-0.3247,-0.2115,-0.0236,-0.0079,0.0,0.0,0.0,0.0,0.0,0.0,0.0,0.0,0.0,-0.0081,-0.0203,-0.0041,-0.0082,-0.0207,-0.0041,0.0,-0.0295,-0.2352,-0.457,-0.6871,-0.9295,-1.1594,-1.3403,-1.3403,-1.3403,-1.3403,-1.3403,-1.3403,-1.3403,-1.3403,-1.3403,-1.3403,-1.3403,-1.3403,-1.3403,-1.3403,-1.3403,-1.3403,-1.3403,-1.3403,-1.3403,-1.3403,-1.3403,-1.3403,-1.3403,-1.3403,-1.3403,-1.3403,-1.3403,-1.3403,-1.3403,-1.3403,-1.3403,-1.3403,-1.3403,-1.3403,-1.3403,-1.3403,-1.3464,-1.3565,-1.3578,-1.3646,-1.3781,-1.3987,-1.4119,-1.4119,-1.4224,-1.4224,-1.4119,-1.4231,-1.4292,-0.2358,0.0,-0.4363,-0.4296,-0.3537,-0.2653,0.0,-0.1182,-0.0379,-0.0074,0.0,0.0,0.0,-0.0871,-0.1343,-0.0543,-0.2298,-0.4035,-0.482,0.0,0.0,0.0,0.0,0.0,0.0,0.0,0.0,0.0,0.0,0.0,0.0,-1.2501,-1.2501,-1.2501,-1.203,-1.0546,-0.7929,-0.473,-0.2856,-0.235,-0.0753,0.0,0.0,0.0,0.0,0.0,0.0,0.0,0.0,0.0,-0.0935,-0.2232,-0.061,-0.0982,-0.2188,-0.0579,0.0,-0.0084,-0.0589,-0.2226,-0.4737,-0.8749,-1.1552,-1.3403,-1.3403,-1.3403,-1.3403,-1.3403,-1.3403,-1.3403,-1.3403,-1.3403,-1.3403,-1.3403,-1.3403,-1.3403,-1.3403,-1.3403,-1.3403,-1.3403,-1.3403,-1.3403,-1.3403,-1.3403,-1.3403,-1.3403,-1.3403,-1.3403,-1.3403,-1.3403,-1.3403,-1.3403,-1.3403,-1.3403,-1.3403,-1.3403,-1.3403,-1.3403,-1.3403,-1.3417,-1.3451,-1.3566,-1.3605,-1.3639,-1.3939,-1.4119,-1.4119,-1.4224,-1.4224,-1.4119,-1.4231,-1.4238,-0.0796,-0.19,-0.2857,-0.2801,-0.2276,-0.1646,-0.1102,-0.0465,0.0,0.0,0.0,0.0,0.0,-0.1379,-0.2161,-0.1082,-0.3055,-0.5014,0.0,0.0,0.0,0.0,0.0,0.0,0.0,0.0,0.0,0.0,0.0,0.0,0.0,-1.2501,-1.2501,-1.2501,-1.2501,-1.1482,-0.9415,-0.7146,-0.5003,-0.3091,-0.1972,-0.0911,0.0,0.0,0.0,0.0,0.0,0.0,0.0,0.0,-0.1239,-0.2874,-0.08,-0.1891,-0.418,-0.1139,-0.0615,-0.1284,-0.0334,-0.2134,-0.5449,-0.8874,-1.1552,-1.3403,-1.3403,-1.3403,-1.3403,-1.3403,-1.3403,-1.3403,-1.3403,-1.3403,-1.3403,-1.3403,-1.3403,-1.3403,-1.3403,-1.3403,-1.3403,-1.3403,-1.3403,-1.3403,-1.3403,-1.3403,-1.3403,-1.3403,-1.3403,-1.3403,-1.3403,-1.3403,-1.3403,-1.3403,-1.3403,-1.3403,-1.3403,-1.3403,-1.3403,-1.3403,-1.3403,-1.3431,-1.3505,-1.3545,-1.3653,-1.3831,-1.4061,-1.4143,-1.4119,-1.4224,-1.4224,-1.4119,-1.4231,-1.4258,0.0,-0.0889,-0.1827,-0.178,-0.1777,-0.1498,-0.048,-0.0253,-0.0237,-0.0248,-0.0108,-0.0112,-0.048,-0.2237,-0.3275,-0.2175,-0.4051,0.0,-0.7696,0.0,0.0,0.0,0.0,0.0,0.0,0.0,0.0,0.0,0.0,0.0,0.0,-1.2501,-1.2501,-1.2501,-1.2501,-1.1637,-0.9881,-0.9571,-0.7617,-0.4066,-0.3404,-0.2194,-0.0471,-0.0159,0.0,0.0,0.0,0.0,0.0,0.0,-0.1411,-0.3365,-0.0941,-0.2761,-0.6247,-0.2035,-0.1568,-0.2843,-0.1112,-0.299,-0.6603,-0.9161,-1.1303,-1.2941,-1.3272,-1.3403,-1.3403,-1.3403,-1.3403,-1.3403,-1.3403,-1.3403,-1.3403,-1.3403,-1.3403,-1.3403,-1.3403,-1.3403,-1.3403,-1.3403,-1.3403,-1.3403,-1.3403,-1.3403,-1.3403,-1.3403,-1.3403,-1.3403,-1.3403,-1.3403,-1.3403,-1.3403,-1.3403,-1.3403,-1.3403,-1.3424,-1.3437,-1.3437,-1.341,-1.3471,-1.3578,-1.3605,-1.3777,-1.4034,-1.419,-1.4204,-1.4119,-1.4224,-1.4231,-1.4109,-1.4265,-1.4333,0.0,-0.0971,-0.1925,-0.1685,-0.1635,-0.1577,-0.1403,-0.1349,-0.1361,-0.1344,-0.0639,-0.0633,-0.2668,-0.3451,-0.3373,-0.2189,0.0,-0.583,0.0,0.0,0.0,0.0,0.0,0.0,0.0,0.0,0.0,0.0,0.0,0.0,0.0,0.0,-1.2501,-1.2501,-1.2501,-1.2347,-1.203,-1.0269,-0.9061,-0.8395,-0.4808,-0.2936,-0.2584,-0.0786,0.0,0.0,0.0,0.0,0.0,0.0,-0.2311,-0.5435,-0.153,-0.3666,-0.8432,-0.4181,-0.2811,-0.3087,-0.2878,-0.3263,-0.4595,-0.868,-1.0252,-1.0882,-1.281,-1.3403,-1.3403,-1.3403,-1.3403,-1.3403,-1.3403,-1.3403,-1.3403,-1.3403,-1.3403,-1.3403,-1.3403,-1.3403,-1.3403,-1.3403,-1.3403,-1.3403,-1.3403,-1.3403,-1.3403,-1.3403,-1.3403,-1.3403,-1.3403,-1.3403,-1.3403,-1.3403,-1.3403,-1.3403,-1.3403,-1.3519,-1.3551,-1.3551,-1.3471,-1.3471,-1.3578,-1.37,-1.3788,-1.3829,-1.4027,-1.4139,-1.4119,-1.4224,-1.4285,-1.4272,-1.4414,-1.4482,-0.058,-0.1232,-0.2053,-0.3208,-0.3196,-0.2889,-0.2901,-0.2902,-0.2891,-0.2903,-0.2505,-0.2493,-0.3605,-0.4601,-0.5443,-0.6019,0.0,0.0,0.0,0.0,0.0,0.0,0.0,0.0,0.0,0.0,0.0,0.0,0.0,0.0,0.0,0.0,-1.2501,-1.2501,-1.2501,-1.2501,-1.2501,-1.156,-1.0507,-0.9371,-0.6293,-0.4224,-0.3013,-0.0941,0.0,0.0,0.0,0.0,0.0,0.0,-0.1803,-0.4381,-0.2429,-0.4826,-0.9017,-0.5951,-0.4093,-0.2937,-0.1875,-0.2301,-0.3884,-0.7134,-0.904,-1.0466,-1.2727,-1.3403,-1.3403,-1.3403,-1.3403,-1.3403,-1.3403,-1.3403,-1.3403,-1.3403,-1.3403,-1.3403,-1.3403,-1.3403,-1.3403,-1.3403,-1.3403,-1.3403,-1.3403,-1.3403,-1.3403,-1.3403,-1.3471,-1.3526,-1.3526,-1.3593,-1.3641,-1.3641,-1.3641,-1.3641,-1.3641,-1.366,-1.37,-1.37,-1.3632,-1.3626,-1.37,-1.3885,-1.3966,-1.3966,-1.4116,-1.4197,-1.4197,-1.434,-1.4414,-1.4421,-1.4563,-1.4586,-0.1121,-0.1818,-0.2799,-0.4601,-0.4602,-0.4227,-0.4428,-0.4407,-0.4364,-0.4445,-0.4279,-0.4281,-0.4826,-0.5846,0.0,-0.9357,-0.9645,0.0,0.0,0.0,0.0,0.0,0.0,0.0,0.0,0.0,0.0,0.0,0.0,0.0,0.0,0.0,-1.2501,-1.2501,-1.2501,-1.2501,-1.2501,-1.2501,-1.1721,-1.0114,-0.754,-0.5435,-0.3756,-0.1177,0.0,0.0,0.0,0.0,0.0,0.0,-0.1215,-0.3052,-0.2545,-0.4652,-0.7812,-0.6683,-0.4926,-0.2794,-0.0729,-0.1473,-0.3677,-0.5968,-0.8248,-1.0507,-1.2727,-1.3403,-1.3403,-1.3403,-1.3403,-1.3403,-1.3403,-1.3403,-1.3403,-1.3403,-1.3403,-1.3403,-1.3403,-1.3403,-1.3403,-1.3403,-1.3403,-1.341,-1.3451,-1.3451,-1.3464,-1.3498,-1.3558,-1.3639,-1.3639,-1.3734,-1.3795,-1.3795,-1.3795,-1.3815,-1.3849,-1.3849,-1.3869,-1.3903,-1.3869,-1.3849,-1.3849,-1.4041,-1.4166,-1.4166,-1.4238,-1.4319,-1.4346,-1.4462,-1.4529,-1.457,-1.4719,-1.4748,-0.1279,-0.2949,-0.4708,-0.4868,-0.4775,-0.4858,-0.5681,-0.556,-0.5408,-0.5791,-0.5109,-0.5136,-0.7297,-0.7244,-0.7551,-0.9623,-0.9118,0.0,0.0,0.0,0.0,0.0,0.0,0.0,0.0,0.0,0.0,0.0,0.0,0.0,0.0,0.0,0.0,-1.2501,-1.2501,-1.2501,-1.2501,-1.2501,-1.2424,-1.2231,-0.8205,-0.6218,-0.5942,-0.1842,0.0,0.0,0.0,0.0,0.0,0.0,-0.1215,-0.2897,-0.0981,-0.1607,-0.3795,-0.563,-0.4926,-0.2794,-0.0729,-0.1473,-0.3762,-0.5968,-0.8207,-1.0419,-1.2727,-1.3403,-1.3403,-1.3403,-1.3403,-1.3403,-1.3403,-1.3403,-1.3403,-1.3403,-1.3403,-1.3403,-1.3403,-1.3403,-1.3403,-1.3403,-1.3403,-1.3444,-1.3545,-1.3572,-1.3612,-1.3747,-1.3774,-1.3781,-1.3781,-1.3788,-1.3795,-1.3795,-1.3795,-1.3899,-1.4041,-1.4098,-1.4116,-1.4258,-1.4136,-1.4098,-1.4098,-1.4204,-1.4285,-1.4285,-1.4292,-1.4367,-1.4496,-1.4509,-1.4539,-1.4681,-1.4882,-1.5003,-0.2014,-0.35,-0.5108,-0.5939,-0.6253,-0.6526,-0.7123,-0.7359,-0.7547,-0.7901,-0.7689,-0.7684,-0.8581,-0.8647,-0.8966,-1.0109,0.0,0.0,0.0,0.0,0.0,0.0,0.0,0.0,0.0,0.0,0.0,0.0,0.0,0.0,0.0,0.0,0.0,-0.8672,-0.8633,-0.8633,-0.8633,-0.8633,-0.8633,-0.8633,-0.7033,-0.6293,-0.6137,-0.1921,0.0,0.0,0.0,0.0,0.0,0.0,-0.0471,-0.1215,-0.1724,-0.4808,-0.8555,-0.544,-0.4641,-0.4593,-0.1184,-0.1482,-0.3762,-0.5968,-0.8207,-1.0466,-1.2727,-1.3403,-1.3403,-1.3403,-1.3403,-1.3403,-1.3403,-1.3403,-1.3403,-1.3403,-1.3403,-1.3403,-1.3403,-1.3478,-1.3504,-1.3504,-1.3572,-1.3653,-1.3707,-1.372,-1.3734,-1.3788,-1.3926,-1.3987,-1.3987,-1.4068,-1.4129,-1.4129,-1.4129,-1.415,-1.4211,-1.4211,-1.4238,-1.4299,-1.4245,-1.4211,-1.4211,-1.4272,-1.434,-1.4428,-1.4434,-1.4502,-1.4606,-1.4746,-1.4828,-1.4889,-1.5031,-1.5106,-0.3116,-0.4308,-0.5623,-0.6595,-0.7149,-0.7584,-0.8101,-0.8466,-0.8825,-0.9247,-0.9288,-0.9267,-0.9315,-0.9503,0.0,0.0,0.0,0.0,0.0,0.0,0.0,0.0,0.0,0.0,0.0,0.0,0.0,0.0,0.0,0.0,0.0,0.0,0.0,0.0,-0.6293,-0.6293,-0.6293,-0.6293,-0.6293,-0.6293,-0.563,-0.5279,-0.5162,-0.1607,0.0,0.0,0.0,0.0,0.0,0.0,-0.0392,-0.1177,-0.334,-0.6794,-1.0185,-0.6529,-0.5734,-0.6009,-0.3119,-0.3598,-0.5725,-0.727,-0.929,-1.1427,-1.2941,-1.3403,-1.3403,-1.3403,-1.3403,-1.3403,-1.3403,-1.3403,-1.3403,-1.3403,-1.3403,-1.3417,-1.3464,-1.3553,-1.3599,-1.3646,-1.3734,-1.3815,-1.3862,-1.3869,-1.3933,-1.3937,-1.4075,-1.4143,-1.4143,-1.4238,-1.4299,-1.4299,-1.4299,-1.4319,-1.4367,-1.4367,-1.4387,-1.4434,-1.4441,-1.4421,-1.4367,-1.4414,-1.4482,-1.4584,-1.4539,-1.4658,-1.4814,-1.4916,-1.5037,-1.5085,-1.5187,-1.5255,-0.457,-0.5483,-0.6532,-0.6668,-0.7163,-0.7807,-0.8547,-0.8716,-0.8893,-0.9496,-0.9496,-0.9435,-0.9585,-0.9704,0.0,0.0,0.0,0.0,0.0,0.0,0.0,0.0,0.0,0.0,0.0,0.0,0.0,0.0,0.0,0.0,0.0,0.0,0.0,0.0,-0.6254,-0.6254,-0.6254,-0.6254,-0.6254,-0.6254,-0.4107,-0.3091,-0.3013,-0.0941,0.0,0.0,0.0,0.0,0.0,-0.0039,-0.1254,-0.3368,-0.5622,-0.6518,-0.6807,-0.8976,-0.8473,-0.6711,-0.6714,-0.8127,-1.0003,-1.0003,-1.1552,-1.3403,-1.3403,-1.3403,-1.3403,-1.3403,-1.3403,-1.3403,-1.3403,-1.3403,-1.3403,-1.3403,-1.3403,-1.3444,-1.3558,-1.3592,-1.3632,-1.3774,-1.3802,-1.3849,-1.4091,-1.4119,-1.4173,-1.4278,-1.4299,-1.4299,-1.4299,-1.4299,-1.4299,-1.4299,-1.4306,-1.436,-1.4502,-1.4516,-1.4577,-1.4687,-1.4694,-1.4626,-1.4523,-1.4613,-1.4694,-1.4694,-1.4694,-1.4821,-1.5017,-1.5017,-1.5091,-1.5187,-1.5343,-1.5411,-0.4342,-0.5444,-0.6695,-0.6924,-0.7675,-0.852,-0.9062,-0.9266,-0.951,-1.0107,-1.0114,-0.9992,-0.99,-1.0127,0.0,0.0,0.0,0.0,0.0,0.0,0.0,0.0,0.0,0.0,0.0,0.0,0.0,0.0,0.0,0.0,0.0,0.0,0.0,0.0,-0.1881,-0.1881,-0.1881,-0.3327,-0.4068,-0.4029,-0.3404,-0.3091,-0.3013,-0.0941,0.0,0.0,0.0,0.0,-0.0118,-0.1568,-0.4303,-0.7462,-0.6669,-0.8212,-1.0589,-0.8295,-0.8067,-0.8652,-0.7188,-0.8182,-1.0044,-1.0003,-1.1552,-1.3403,-1.3403,-1.3403,-1.3403,-1.3403,-1.3403,-1.3403,-1.3403,-1.3478,-1.3559,-1.3559,-1.3559,-1.3558,-1.3707,-1.3865,-1.3953,-1.3994,-1.4089,-1.4177,-1.4224,-1.4231,-1.4245,-1.4292,-1.4299,-1.4299,-1.4299,-1.4387,-1.4448,-1.4448,-1.4543,-1.4579,-1.462,-1.4626,-1.4647,-1.4687,-1.4841,-1.4835,-1.4633,-1.4667,-1.4794,-1.4903,-1.4903,-1.4977,-1.512,-1.512,-1.5194,-1.5343,-1.5391,-1.5466,-0.5351,-0.6185,-0.7143,-0.7502,-0.8175,-0.894,-0.9591,-0.9903,-1.0168,-1.0588,-1.0555,-1.0446,-1.038,-1.0468,0.0,0.0,0.0,0.0,0.0,0.0,0.0,0.0,0.0,0.0,0.0,0.0,0.0,0.0,0.0,0.0,0.0,0.0,0.0,0.0,-0.0784,-0.1215,-0.1215,-0.3327,-0.4381,-0.4381,-0.4381,-0.4381,-0.4263,-0.1333,0.0,-0.0039,-0.0863,-0.1215,-0.1411,-0.3521,-0.6368,-0.9304,-0.8133,-0.9787,-1.2523,-1.0149,-1.0091,-1.1029,-0.9811,-1.0252,-1.1386,-1.1344,-1.2264,-1.3403,-1.3403,-1.3403,-1.3403,-1.3403,-1.3403,-1.3417,-1.3478,-1.3559,-1.3585,-1.3585,-1.3632,-1.3707,-1.3899,-1.4007,-1.4132,-1.415,-1.4238,-1.4299,-1.4299,-1.4299,-1.4299,-1.4299,-1.4346,-1.4387,-1.4387,-1.4509,-1.4559,-1.4559,-1.464,-1.4721,-1.4828,-1.4835,-1.4855,-1.4909,-1.5004,-1.5011,-1.4916,-1.4916,-1.4957,-1.5098,-1.5105,-1.5099,-1.5181,-1.5242,-1.5323,-1.5411,-1.5533,-1.5635,-0.6979,-0.731,-0.7712,-0.8199,-0.8669,-0.923,-1.0107,-1.0527,-1.0745,-1.0887,-1.0813,-1.0772,-1.0907,-1.0833,0.0,0.0,0.0,0.0,0.0,0.0,0.0,0.0,0.0,0.0,0.0,0.0,0.0,0.0,0.0,0.0,0.0,0.0,0.0,0.0,-0.2115,-0.3208,-0.3404,-0.5513,-0.6566,0.0,-0.6566,-0.6566,-0.6449,-0.2429,-0.0589,-0.0667,-0.2584,-0.3482,-0.3834,-0.5786,-0.7821,-0.9724,-0.9969,-1.1286,-1.305,-1.3281,-1.339,-1.3403,-1.3403,-1.3403,-1.3403,-1.3403,-1.3403,-1.3403,-1.3403,-1.3403,-1.3403,-1.3403,-1.341,-1.3451,-1.3551,-1.3605,-1.3668,-1.3668,-1.3727,-1.3862,-1.4061,-1.4139,-1.4136,-1.4272,-1.4299,-1.4299,-1.4299,-1.4299,-1.4306,-1.4319,-1.4441,-1.4529,-1.4529,-1.462,-1.4714,-1.4714,-1.4728,-1.4835,-1.4977,-1.5037,-1.5091,-1.5174,-1.5181,-1.5187,-1.5201,-1.5187,-1.5181,-1.5181,-1.5194,-1.5201,-1.5201,-1.5357,-1.5438,-1.5459,-1.5779,-1.5908,-0.6586,-0.7095,-0.7733,-0.8321,-0.913,-0.9893,-1.0351,-1.065,-1.0874,-1.0873,-1.1009,-1.1111,-1.1145,0.0,0.0,0.0,0.0,0.0,0.0,0.0,0.0,0.0,0.0,0.0,0.0,0.0,0.0,0.0,0.0,0.0,0.0,0.0,0.0,-0.2427,-0.2856,-0.3912,-0.5591,-0.7695,-0.875,0.0,-0.875,-0.875,-0.8633,-0.6098,-0.493,-0.4969,-0.5435,-0.6527,-0.8084,-0.8555,-1.0018,-1.201,-1.2029,-1.2515,-1.3173,-1.3241,-1.3295,-1.3403,-1.3403,-1.3403,-1.3403,-1.3403,-1.3403,-1.3403,-1.3403,-1.3403,-1.3403,-1.3403,-1.3485,-1.3545,-1.3578,-1.3804,-1.3973,-1.3973,-1.4,-1.4061,-1.4217,-1.4251,-1.4265,-1.4292,-1.4299,-1.4299,-1.4299,-1.4299,-1.434,-1.4448,-1.4545,-1.4647,-1.4647,-1.4828,-1.4923,-1.4923,-1.5025,-1.5099,-1.5133,-1.514,-1.5153,-1.5181,-1.5181,-1.5235,-1.5357,-1.5248,-1.5181,-1.5181,-1.5303,-1.5364,-1.5364,-1.5465,-1.5649,-1.5806,-1.5874,-1.5969,-0.6899,-0.7478,-0.8133,-0.9015,-0.97,-1.0204,-1.0534,-1.0745,-1.0914,-1.0914,-1.1118,-1.1329,-1.1369,0.0,0.0,0.0,0.0,0.0,0.0,0.0,0.0,0.0,0.0,0.0,0.0,0.0,0.0,0.0,0.0,0.0,0.0,-0.4615,-0.4615,-0.4615,-0.5588,-0.6644,-0.7777,-0.9842,-1.0895,-1.0895,-1.0895,-1.0895,-1.0779,-0.7695,-0.6293,-0.6375,-0.7432,-0.8512,-0.9576,-1.056,-1.1665,-1.2693,-1.2693,-1.2868,-1.3118,-1.3186,-1.3268,-1.3403,-1.3403,-1.3403,-1.3403,-1.3403,-1.3403,-1.3403,-1.3403,-1.3403,-1.3403,-1.3403,-1.3512,-1.3605,-1.3666,-1.3899,-1.4132,-1.4163,-1.4183,-1.4204,-1.4285,-1.4299,-1.4299,-1.4299,-1.4299,-1.4299,-1.4299,-1.4353,-1.4448,-1.4597,-1.4753,-1.4848,-1.4848,-1.4984,-1.5119,-1.5119,-1.514,-1.5181,-1.5181,-1.5181,-1.5215,-1.5289,-1.5289,-1.5357,-1.5465,-1.5445,-1.5398,-1.5398,-1.5479,-1.552,-1.552,-1.5669,-1.5778,-1.5901,-1.5976,-1.6008,-0.719,-0.7893,-0.8621,-0.9731,-1.0168,-1.0358,-1.0656,-1.0786,-1.088,-1.0907,-1.1185,-1.143,0.0,0.0,0.0,0.0,0.0,0.0,0.0,0.0,0.0,0.0,0.0,0.0,0.0,0.0,0.0,0.0,0.0,0.0,-0.5864,-0.6449,-0.6839,-0.6839,-0.8517,-0.9571,-0.992,-1.1637,-1.2501,-1.2501,-1.2501,-1.2501,-1.2385,-0.8944,-0.7388,-0.747,-0.9316,-1.011,-1.0229,-1.1971,-1.2679,-1.2766,-1.2766,-1.2881,-1.3091,-1.3207,-1.3295,-1.3403,-1.3403,-1.3403,-1.3403,-1.3403,-1.3403,-1.3403,-1.3403,-1.3403,-1.3403,-1.3431,-1.3546,-1.366,-1.3802,-1.3994,-1.4143,-1.4272,-1.4299,-1.4299,-1.4299,-1.4299,-1.4299,-1.4299,-1.4319,-1.4346,-1.4373,-1.4496,-1.4631,-1.476,-1.4909,-1.5011,-1.5011,-1.5113,-1.5181,-1.5181,-1.5181,-1.5194,-1.5221,-1.5221,-1.5289,-1.5438,-1.5452,-1.552,-1.5669,-1.5627,-1.5641,-1.5668,-1.5641,-1.5627,-1.5627,-1.5825,-1.5942,-1.5942,-1.6071,-1.6083,-0.6539,-0.7617,-0.8879,-0.9846,-1.0199,-1.0358,-1.0656,-1.0704,-1.0752,0.0,-1.1185,0.0,0.0,0.0,0.0,0.0,0.0,0.0,0.0,0.0,0.0,0.0,0.0,0.0,0.0,0.0,0.0,0.0,0.0,0.0,-0.3753,-0.6995,-0.8983,-0.8983,-0.9255,-1.0275,-1.2069,-1.2347,-1.2501,-1.2501,-1.2501,-1.2501,-1.2463,-1.1914,-1.1676,-1.1682,-1.1973,-1.2102,-1.2141,-1.2412,-1.2691,-1.2969,-1.2969,-1.3139,-1.3342,-1.3363,-1.3383,-1.3403,-1.3403,-1.3403,-1.3403,-1.3403,-1.3403,-1.3403,-1.3403,-1.3403,-1.3431,-1.3559,-1.366,-1.3808,-1.4,-1.4156,-1.4278,-1.4292,-1.4299,-1.4299,-1.4299,-1.4299,-1.4299,-1.4299,-1.4401,-1.4523,-1.4613,-1.4808,-1.4962,-1.4936,-1.5065,-1.5153,-1.5153,-1.5167,-1.5181,-1.5181,-1.5181,-1.5235,-1.5371,-1.5377,-1.5445,-1.5553,-1.556,-1.5676,-1.5867,-1.5874,-1.5886,-1.6022,-1.5942,-1.5874,-1.5874,-1.5981,-1.6049,-1.6049,-1.6076,-1.6083,-0.6959,-0.7889,-0.8798,-0.97,-1.0039,-1.0197,-1.0527,-1.0656,-1.0704,-1.0772,0.0,0.0,0.0,0.0,0.0,0.0,0.0,0.0,0.0,0.0,0.0,0.0,0.0,0.0,0.0,0.0,0.0,0.0,0.0,-0.9687,-0.6687,-0.9452,-1.1134,-1.1134,-1.1134,-1.156,-1.2501,-1.2501,-1.2501,-1.2501,-1.2501,-1.2501,-1.2501,-1.2501,-1.2501,-1.2508,-1.2589,-1.2591,-1.2591,-1.2591,-1.199,-1.1106,-1.102,-1.0402,-0.9534,-0.9552,-0.9574,-0.9836,-1.1095,-1.1511,-1.1718,-1.2982,-1.3403,-1.3403,-1.3403,-1.3458,-1.3504,-1.3565,-1.3797,-1.3987,-1.4098,-1.4183,-1.4299,-1.4299,-1.4299,-1.4299,-1.4299,-1.4299,-1.4326,-1.4401,-1.4536,-1.4692,-1.4841,-1.493,-1.5044,-1.5126,-1.514,-1.5181,-1.5181,-1.5181,-1.5181,-1.5181,-1.5262,-1.5337,-1.5404,-1.5493,-1.5601,-1.575,-1.5757,-1.5825,-1.6024,-1.603,-1.6064,-1.6083,-1.6064,-1.603,-1.603,-1.6049,-1.6083,-1.6083,-1.6083,-1.613,-0.7115,-0.7828,-0.8444,-0.9313,-0.971,-0.9994,-1.0358,-1.0555,-1.067,0.0,0.0,0.0,0.0,0.0,0.0,0.0,0.0,0.0,0.0,0.0,0.0,0.0,0.0,0.0,0.0,0.0,0.0,0.0,0.0,-1.0822,-0.9279,-1.1292,-1.2501,-1.2501,-1.2501,-1.2501,-1.2501,-1.2501,-1.2501,-1.2501,-1.2501,-1.2501,-1.2501,-1.2501,-1.2501,-1.2508,-1.2623,-1.2632,-1.2632,-1.2632,-1.1421,-0.9589,-0.9496,-0.8246,-0.6553,-0.6547,-0.6611,-0.6951,-0.8665,-0.9586,-1.0294,-1.2015,-1.2941,-1.341,-1.3444,-1.3539,-1.3605,-1.3722,-1.3899,-1.4125,-1.4122,-1.4217,-1.4299,-1.4299,-1.4299,-1.4312,-1.4346,-1.4353,-1.4407,-1.459,-1.4719,-1.4848,-1.4997,-1.5071,-1.5059,-1.5167,-1.5181,-1.5181,-1.5181,-1.5215,-1.5242,-1.5242,-1.5377,-1.5486,-1.552,-1.5628,-1.5757,-1.5949,-1.5962,-1.601,-1.6076,-1.6083,-1.6083,-1.6083,-1.6083,-1.6083,-1.6083,-1.6083,-1.6103,-1.6137,-1.6137,-1.6218,-0.6348,-0.6995,-0.7668,-0.854,-0.9205,-0.9747,-1.0188,-1.0399,-1.0548,0.0,0.0,0.0,0.0,0.0,0.0,0.0,0.0,0.0,0.0,0.0,0.0,0.0,0.0,0.0,0.0,0.0,0.0,0.0,0.0,-0.9317,-0.9198,-1.1292,-1.2501,-1.2501,-1.2501,-1.2501,-1.2501,-1.2501,-1.2501,-1.2501,-1.2501,-1.2501,-1.2501,-1.2501,-1.2501,-1.2501,-1.2508,-1.2515,-1.2515,-1.2515,-1.1374,-0.9594,-0.9582,-0.8387,-0.6673,-0.6708,-0.6697,-0.67,-0.6825,-0.8248,-1.0044,-1.0211,-1.1683,-1.3424,-1.3531,-1.3578,-1.3688,-1.3966,-1.4105,-1.4146,-1.4251,-1.4292,-1.4299,-1.4299,-1.4299,-1.434,-1.4468,-1.4502,-1.459,-1.4889,-1.4996,-1.5051,-1.5147,-1.5174,-1.5174,-1.5181,-1.5181,-1.5181,-1.5181,-1.5309,-1.5398,-1.5398,-1.5485,-1.5683,-1.5867,-1.5888,-1.5956,-1.6062,-1.6069,-1.6076,-1.6083,-1.6083,-1.6083,-1.6083,-1.6083,-1.6083,-1.6083,-1.6083,-1.6157,-1.63,-1.63,-1.6374,-0.6037,-0.6627,-0.7278,-0.8054,-0.8635,-0.915,-0.9598,-0.9964,-1.0218,0.0,0.0,0.0,0.0,0.0,0.0,0.0,0.0,0.0,0.0,0.0,0.0,0.0,0.0,0.0,0.0,0.0,0.0,0.0,0.0,0.0,-1.1064,-1.1897,-1.2406,-1.2501,-1.2501,-1.2501,-1.2501,-1.2501,-1.2501,-1.2501,-1.2501,-1.2501,-1.2501,-1.2501,-1.2501,-1.2501,-1.2501,-1.2501,-1.2501,-1.2501,-1.0504,-0.7489,-0.7493,-0.5384,-0.2398,-0.2383,-0.2394,-0.2604,-0.4027,-0.599,-0.8123,-0.9628,-1.1652,-1.3559,-1.3572,-1.3763,-1.3933,-1.4084,-1.4143,-1.4231,-1.4285,-1.4299,-1.4326,-1.4414,-1.4557,-1.4699,-1.4787,-1.4808,-1.4841,-1.4996,-1.5091,-1.512,-1.5174,-1.5181,-1.5153,-1.5059,-1.5208,-1.5296,-1.5194,-1.5404,-1.5506,-1.5506,-1.5689,-1.5798,-1.5901,-1.599,-1.6071,-1.6076,-1.6083,-1.6083,-1.6083,-1.6083,-1.613,-1.6225,-1.6225,-1.6178,-1.6083,-1.6178,-1.6252,-1.6313,-1.6402,-1.6524,-0.5539,-0.5931,-0.6431,-0.753,-0.8079,-0.852,-0.9254,-0.9612,-0.9866,0.0,0.0,0.0,0.0,0.0,0.0,0.0,0.0,0.0,0.0,0.0,0.0,0.0,0.0,0.0,0.0,0.0,0.0,0.0,0.0,0.0,-1.2091,-1.2247,-1.2352,-1.2494,-1.2501,-1.2501,-1.2501,-1.2501,-1.2501,-1.2501,-1.2501,-1.2501,-1.2501,-1.2501,-1.2501,-1.2501,-1.2501,-1.2501,-1.2463,-1.176,-0.9443,-0.6218,-0.5523,-0.3105,0.0,0.0,0.0,-0.021,-0.1681,-0.4151,-0.6958,-0.8533,-1.1081,-1.3605,-1.3749,-1.3919,-1.4125,-1.4136,-1.4224,-1.4312,-1.436,-1.4407,-1.4468,-1.4563,-1.4753,-1.4969,-1.501,-1.5017,-1.503,-1.5078,-1.512,-1.5181,-1.5181,-1.5221,-1.5228,-1.5133,-1.533,-1.5452,-1.535,-1.5554,-1.571,-1.571,-1.5839,-1.5983,-1.5983,-1.6071,-1.6083,-1.6083,-1.6083,-1.6103,-1.6157,-1.6157,-1.6232,-1.6381,-1.6381,-1.6334,-1.6232,-1.6334,-1.6408,-1.6463,-1.6558,-1.6628,0.0,0.0,0.0,-0.6928,-0.7478,-0.7875,-0.9083,0.0,0.0,0.0,0.0,0.0,0.0,0.0,0.0,0.0,0.0,0.0,0.0,0.0,0.0,0.0,0.0,0.0,0.0,0.0,0.0,0.0,0.0,-1.1891,-1.2084,-1.2203,-1.2352,-1.2494,-1.2501,-1.2501,-1.2501,-1.2501,-1.2501,-1.2501,-1.2501,-1.2501,-1.2501,-1.2501,-1.2501,-1.2501,-1.2501,-1.2501,-1.2347,-1.0308,-0.8224,-0.6102,-0.3995,-0.1881,0.0,0.0,-0.0042,-0.0084,-0.0084,-0.3065,-0.6843,-0.6954,-1.0001,-1.3695,-1.3987,-1.4119,-1.4109,-1.4258,-1.4306,-1.434,-1.4482,-1.4586,-1.4701,-1.4701,-1.4862,-1.5023,-1.5023,-1.5023,-1.5018,-1.5153,-1.5181,-1.5181,-1.5187,-1.5309,-1.5411,-1.5411,-1.5492,-1.5593,-1.5593,-1.5764,-1.5901,-1.5908,-1.6044,-1.6083,-1.6083,-1.6083,-1.6083,-1.6083,-1.6083,-1.6157,-1.6307,-1.6313,-1.6381,-1.6524,-1.653,-1.653,-1.6537,-1.653,-1.6554,-1.6696,-1.6702,-1.6784,-0.5259,0.0,0.0,0.0,0.0,0.0,0.0,0.0,0.0,0.0,0.0,0.0,0.0,0.0,0.0,0.0,0.0,0.0,0.0,0.0,0.0,0.0,0.0,0.0,0.0,0.0,0.0,0.0,-1.1617,-1.1705,-1.1884,-1.2149,-1.2352,-1.2494,-1.2501,-1.2501,-1.2501,-1.2501,-1.2501,-1.2501,-1.2501,-1.2501,-1.2501,-1.2501,-1.2501,-1.2501,-1.2501,-1.2501,-1.2463,-1.1876,-0.9523,-0.6244,-0.5659,-0.3201,0.0,0.0,-0.1009,-0.2394,-0.2436,-0.5477,-0.9328,-0.9352,-1.1441,-1.3966,-1.4091,-1.415,-1.4245,-1.4285,-1.4373,-1.4489,-1.4593,-1.4794,-1.4909,-1.4909,-1.5018,-1.5126,-1.5126,-1.5126,-1.518,-1.5174,-1.5181,-1.5215,-1.533,-1.5384,-1.5411,-1.5411,-1.5492,-1.5593,-1.5593,-1.5764,-1.5942,-1.6008,-1.6056,-1.6083,-1.6083,-1.6083,-1.6083,-1.6083,-1.6185,-1.6266,-1.6307,-1.6408,-1.653,-1.6628,-1.6635,-1.6741,-1.6856,-1.6741,-1.6655,-1.6702,-1.6863,-1.6937,-0.5512,0.0,0.0,0.0,0.0,0.0,0.0,-0.7672,0.0,0.0,0.0,0.0,0.0,0.0,0.0,0.0,0.0,0.0,0.0,0.0,0.0,0.0,0.0,0.0,0.0,0.0,0.0,-1.1584,-1.1584,-1.1708,-1.1918,-1.2155,-1.2352,-1.2494,-1.2501,-1.2501,-1.2501,-1.2501,-1.2501,-1.2501,-1.2501,-1.2501,-1.2501,-1.2501,-1.2501,-1.2501,-1.2501,-1.2501,-1.2508,-1.2569,-1.0623,-0.7609,-0.6793,-0.4951,-0.2813,-0.2813,-0.3608,-0.474,-0.4846,-0.7243,-1.0318,-1.041,-1.2095,-1.4125,-1.4193,-1.4231,-1.4299,-1.4299,-1.4448,-1.4645,-1.4794,-1.495,-1.5059,-1.5059,-1.512,-1.5181,-1.5181,-1.5181,-1.5181,-1.5181,-1.5235,-1.5303,-1.5398,-1.5513,-1.5594,-1.5594,-1.5723,-1.5825,-1.5825,-1.59,-1.603,-1.6076,-1.6083,-1.6083,-1.6083,-1.6083,-1.611,-1.6171,-1.6259,-1.6368,-1.6439,-1.652,-1.6635,-1.6842,-1.6842,-1.689,-1.6978,-1.689,-1.6842,-1.6849,-1.6937,-1.6978,-0.5769,-0.554,0.0,0.0,0.0,0.0,-0.7587,-0.7749,0.0,0.0,0.0,0.0,0.0,0.0,0.0,0.0,0.0,0.0,0.0,0.0,0.0,0.0,0.0,0.0,0.0,-1.1592,-1.1563,-1.1619,-1.1584,-1.1742,-1.2057,-1.2182,-1.2332,-1.2474,-1.2494,-1.2501,-1.2501,-1.2501,-1.2501,-1.2501,-1.2501,-1.2501,-1.2501,-1.2501,-1.2501,-1.2501,-1.2501,-1.2508,-1.2535,-1.2652,-1.1509,-0.9441,-0.7705,-0.6884,-0.67,-0.67,-0.6874,-0.7101,-0.725,-0.8781,-1.0758,-1.1009,-1.2449,-1.4122,-1.4258,-1.4299,-1.4306,-1.434,-1.455,-1.4801,-1.4957,-1.5086,-1.5181,-1.5181,-1.5181,-1.5181,-1.5181,-1.5181,-1.5187,-1.5208,-1.5316,-1.5418,-1.5452,-1.5676,-1.5908,-1.5928,-1.603,-1.6062,-1.6083,-1.6069,-1.6062,-1.6083,-1.6083,-1.6083,-1.6083,-1.6096,-1.6164,-1.63,-1.6341,-1.6425,-1.6689,-1.6716,-1.6842,-1.6978,-1.6978,-1.6978,-1.6978,-1.6978,-1.6978,-1.6978,-1.6978,-1.6978,-0.6646,-0.6602,-0.6517,0.0,0.0,0.0,-0.6661,-0.6865,-0.7222,0.0,0.0,0.0,0.0,0.0,0.0,0.0,0.0,0.0,0.0,0.0,0.0,0.0,0.0,0.0,0.0,-1.1436,-1.1484,-1.1577,-1.1584,-1.1694,-1.1864,-1.202,-1.2213,-1.2325,-1.244,-1.2501,-1.2501,-1.2501,-1.2501,-1.2501,-1.2501,-1.2501,-1.2501,-1.2501,-1.2501,-1.2501,-1.2501,-1.2569,-1.2698,-1.2854,-1.1635,-0.9562,-0.9301,-0.8164,-0.67,-0.67,-0.7917,-0.9591,-0.961,-1.1282,-1.3381,-1.3433,-1.3799,-1.4265,-1.4292,-1.4299,-1.4346,-1.4539,-1.4787,-1.4957,-1.5106,-1.516,-1.5181,-1.5181,-1.5181,-1.5181,-1.5181,-1.5181,-1.5221,-1.5343,-1.5391,-1.5486,-1.5772,-1.586,-1.5942,-1.6015,-1.6003,-1.599,-1.6069,-1.6024,-1.5996,-1.6069,-1.6083,-1.6083,-1.6083,-1.6191,-1.6279,-1.6307,-1.6479,-1.6635,-1.6696,-1.687,-1.6951,-1.6978,-1.6978,-1.6978,-1.6978,-1.6978,-1.6978,-1.6978,-1.6978,-1.6978,-0.721,-0.7204,-0.7224,-0.7075,0.0,0.0,0.0,0.0,-0.7073,-0.7675,0.0,0.0,0.0,0.0,0.0,0.0,0.0,0.0,0.0,0.0,0.0,0.0,0.0,0.0,0.0,-1.1348,-1.1457,-1.1606,-1.1584,-1.1644,-1.1786,-1.1979,-1.2173,-1.2284,-1.2427,-1.2501,-1.2501,-1.2501,-1.2501,-1.2501,-1.2501,-1.2501,-1.2501,-1.2501,-1.2501,-1.2501,-1.2501,-1.2589,-1.2706,-1.2935,-1.2353,-1.1398,-1.1529,-1.095,-1.0049,-1.0111,-1.093,-1.198,-1.2154,-1.3027,-1.4125,-1.4163,-1.4238,-1.4299,-1.4299,-1.4346,-1.4448,-1.4633,-1.4848,-1.5051,-1.5194,-1.5181,-1.5181,-1.5181,-1.5181,-1.5181,-1.5181,-1.5242,-1.5343,-1.5445,-1.5581,-1.5676,-1.5874,-1.5969,-1.6044,-1.6069,-1.6015,-1.5995,-1.6069,-1.6064,-1.6044,-1.6076,-1.6083,-1.611,-1.6191,-1.6266,-1.6374,-1.6466,-1.6615,-1.673,-1.6863,-1.6937,-1.6978,-1.6978,-1.6978,-1.6978,-1.6978,-1.6978,-1.6978,-1.6978,-1.6978,-1.6978,0.0,0.0,0.0,0.0,0.0,-0.7242,0.0,0.0,0.0,-0.7378,0.0,0.0,0.0,0.0,0.0,0.0,0.0,0.0,0.0,0.0,0.0,0.0,0.0,0.0,0.0,-1.1145,-1.1314,-1.1558,-1.1497,-1.1509,-1.1739,-1.1932,-1.2125,-1.2244,-1.2386,-1.2474,-1.2501,-1.2501,-1.2501,-1.2501,-1.2501,-1.2501,-1.2501,-1.2501,-1.2501,-1.2501,-1.2535,-1.263,-1.2786,-1.2982,-1.3125,-1.3268,-1.3356,-1.3403,-1.3417,-1.3531,-1.3605,-1.3666,-1.398,-1.4132,-1.418,-1.4258,-1.4299,-1.4306,-1.4333,-1.4441,-1.4584,-1.474,-1.4896,-1.5038,-1.5153,-1.5181,-1.5181,-1.5181,-1.5181,-1.5194,-1.5221,-1.5323,-1.5466,-1.5593,-1.5778,-1.5908,-1.5942,-1.6051,-1.6083,-1.6083,-1.6083,-1.6083,-1.6083,-1.6083,-1.6083,-1.6083,-1.611,-1.6178,-1.63,-1.6361,-1.6446,-1.6682,-1.673,-1.6849,-1.6978,-1.6978,-1.6978,-1.6978,-1.6978,-1.6978,-1.6978,-1.6978,-1.6978,-1.6978,-1.6978,-1.6978,0.0,0.0,0.0,0.0,-0.7957,0.0,0.0,0.0,-0.7129,-0.5709,0.0,0.0,0.0,0.0,0.0,0.0,0.0,0.0,0.0,0.0,0.0,0.0,0.0,0.0,0.0,0.0,-1.0826,-1.1375,-1.105,-1.1029,-1.1577,-1.1746,-1.1932,-1.2118,-1.2237,-1.2372,-1.2501,-1.2501,-1.2501,-1.2501,-1.2501,-1.2501,-1.2501,-1.2501,-1.2501,-1.2508,-1.2644,-1.2793,-1.2989,-1.3132,-1.3282,-1.3376,-1.3397,-1.3403,-1.3417,-1.3531,-1.3666,-1.3795,-1.4014,-1.4163,-1.4278,-1.4292,-1.4299,-1.4326,-1.4448,-1.4545,-1.4701,-1.4903,-1.5052,-1.516,-1.5181,-1.5181,-1.5181,-1.5181,-1.5181,-1.5221,-1.5357,-1.5398,-1.5493,-1.5826,-1.5894,-1.5949,-1.6085,-1.6069,-1.6083,-1.6083,-1.6083,-1.6083,-1.6083,-1.6083,-1.6083,-1.6083,-1.6205,-1.6293,-1.6307,-1.65,-1.6662,-1.6696,-1.6876,-1.6965,-1.6978,-1.6978,-1.6978,-1.6978,-1.6978,-1.6978,-1.6978,-1.6978,-1.6978,-1.6978,-1.6978,-1.6978,0.0,0.0,0.0,0.0,0.0,0.0,0.0,0.0,-0.6003,0.0,0.0,0.0,0.0,0.0,0.0,0.0,0.0,0.0,0.0,0.0,0.0,0.0,0.0,0.0,0.0,0.0,0.0,0.0,0.0,-1.0812,-1.1328,-1.1579,-1.1816,-1.2091,-1.221,-1.2359,-1.2501,-1.2501,-1.2501,-1.2501,-1.2501,-1.2501,-1.2501,-1.2501,-1.2501,-1.2508,-1.2625,-1.282,-1.3009,-1.3152,-1.3261,-1.3403,-1.3403,-1.3403,-1.3431,-1.3619,-1.3747,-1.3835,-1.4122,-1.4245,-1.4299,-1.4299,-1.4299,-1.4326,-1.4468,-1.4572,-1.4728,-1.493,-1.5119,-1.5181,-1.5181,-1.5181,-1.5181,-1.5181,-1.5248,-1.533,-1.5398,-1.5547,-1.5751,-1.5874,-1.5976,-1.6008,-1.6069,-1.6083,-1.6083,-1.6083,-1.6083,-1.6083,-1.6083,-1.6083,-1.6117,-1.6205,-1.6273,-1.6381,-1.65,-1.6628,-1.6736,-1.6876,-1.6944,-1.6978,-1.6978,-1.6978,-1.6978,-1.6978,-1.6978,-1.6978,-1.6978,-1.6978,-1.6978,-1.6978,-1.6978,-1.6978,-0.877,0.0,0.0,0.0,0.0,0.0,0.0,0.0,0.0,0.0,0.0,0.0,0.0,0.0,0.0,0.0,0.0,0.0,0.0,0.0,0.0,0.0,0.0,0.0,0.0,0.0,0.0,0.0,0.0,0.0,-1.1159,-1.1375,-1.1667,-1.2084,-1.2207,-1.2318,-1.2501,-1.2501,-1.2501,-1.2501,-1.2501,-1.2501,-1.2501,-1.2501,-1.2522,-1.2569,-1.2725,-1.2881,-1.303,-1.2555,-1.2383,-1.2395,-1.1801,-1.1956,-1.265,-1.3487,-1.3822,-1.3939,-1.4211,-1.4299,-1.4299,-1.4299,-1.4326,-1.4387,-1.4529,-1.4679,-1.4835,-1.4984,-1.5106,-1.5181,-1.5181,-1.5181,-1.5194,-1.5235,-1.533,-1.5432,-1.5513,-1.5751,-1.5915,-1.5956,-1.6008,-1.6083,-1.6083,-1.6083,-1.6083,-1.6083,-1.6083,-1.6083,-1.6083,-1.6117,-1.6185,-1.63,-1.6381,-1.6466,-1.6682,-1.6736,-1.6863,-1.6971,-1.6978,-1.6978,-1.6978,-1.6978,-1.6978,-1.6978,-1.6978,-1.6978,-1.6978,-1.6978,-1.6978,-1.6978,-1.6978,-1.6978,0.0,0.0,0.0,-0.8277,0.0,0.0,0.0,0.0,-0.3325,0.0,0.0,0.0,0.0,0.0,0.0,0.0,0.0,0.0,0.0,0.0,0.0,0.0,0.0,0.0,0.0,0.0,0.0,0.0,0.0,0.0,-1.1138,-1.1206,-1.1485,-1.2077,-1.2104,-1.2247,-1.2501,-1.2501,-1.2501,-1.2501,-1.2501,-1.2501,-1.2501,-1.2501,-1.2583,-1.2693,-1.2888,-1.3077,-1.3051,-1.1033,-1.0169,-0.9878,-0.7744,-0.8345,-1.0694,-1.2966,-1.3933,-1.4132,-1.4245,-1.4299,-1.4299,-1.4299,-1.4394,-1.4529,-1.464,-1.4841,-1.5037,-1.518,-1.5181,-1.5181,-1.5181,-1.5181,-1.5221,-1.5371,-1.5404,-1.5486,-1.5826,-1.5894,-1.5949,-1.6092,-1.6076,-1.6083,-1.6083,-1.6083,-1.6083,-1.6083,-1.6083,-1.6083,-1.6083,-1.6212,-1.6307,-1.6307,-1.6513,-1.6689,-1.6696,-1.689,-1.6978,-1.6978,-1.6978,-1.6978,-1.6978,-1.6978,-1.6978,-1.6978,-1.6978,-1.6978,-1.6978,-1.6978,-1.6978,-1.6978,-1.6978,-1.6978,0.0,0.0,-0.9849,-0.9015,0.0,0.0,0.0,0.0,0.0,0.0,0.0,0.0,0.0,0.0,0.0,0.0,0.0,0.0,0.0,0.0,0.0,0.0,0.0,0.0,0.0,0.0,0.0,0.0,-0.9342,0.0,0.0,-1.0914,-1.1294,-1.1891,-1.2043,-1.2241,-1.2501,-1.2501,-1.2501,-1.2501,-1.2501,-1.2501,-1.2501,-1.2501,-1.2583,-1.2699,-1.2895,-1.3084,-1.3057,-1.0915,-1.0003,-0.9758,-0.7558,-0.8225,-1.0544,-1.131,-1.2675,-1.4139,-1.4245,-1.3268,-1.2204,-1.3866,-1.3381,-1.2458,-1.4349,-1.493,-1.5051,-1.514,-1.5181,-1.5181,-1.5181,-1.5255,-1.5343,-1.5398,-1.556,-1.5779,-1.5881,-1.5983,-1.6071,-1.6069,-1.6083,-1.6083,-1.6083,-1.6083,-1.6083,-1.6083,-1.6171,-1.6232,-1.6232,-1.6361,-1.649,-1.654,-1.6635,-1.6736,-1.6897,-1.6951,-1.6978,-1.6978,-1.6978,-1.6978,-1.6978,-1.6978,-1.6978,-1.6978,-1.6978,-1.6978,-1.6978,-1.6978,-1.6978,-1.6978,-1.6978,-1.6978,-1.0254,-1.0356,0.0,-0.9594,-0.9003,0.0,-0.7547,0.0,0.0,0.0,0.0,0.0,0.0,0.0,0.0,0.0,0.0,0.0,0.0,0.0,0.0,0.0,0.0,0.0,0.0,0.0,-0.8389,-0.9056,-0.8954,0.0,0.0,0.0,-1.113,-1.1773,-1.1979,-1.2241,-1.2501,-1.2501,-1.2501,-1.2501,-1.2501,-1.2501,-1.2501,-1.2556,-1.2664,-1.282,-1.2969,-1.3159,-1.3097,-1.089,-1.0028,-0.9901,-0.7642,-0.8329,-1.0567,-1.0523,-1.2042,-1.4163,-1.4265,-1.3299,-1.2312,-1.3982,-1.3532,-1.2683,-1.4441,-1.5051,-1.5112,-1.52,-1.5181,-1.5194,-1.5248,-1.5337,-1.5438,-1.554,-1.5765,-1.5915,-1.5976,-1.6058,-1.6083,-1.6083,-1.6083,-1.6083,-1.6083,-1.613,-1.6164,-1.6164,-1.6246,-1.6327,-1.6381,-1.651,-1.6588,-1.6689,-1.675,-1.687,-1.6971,-1.6978,-1.6978,-1.6978,-1.6978,-1.6978,-1.6978,-1.6978,-1.6978,-1.6978,-1.6978,-1.6978,-1.6978,-1.6978,-1.6978,-1.6978,-1.6978,-1.6978]},{"header":{"parameterUnit":"m.s-1","parameterCategory":1,"la1":30.6,"la2":29.2853,"lo1":-89.7004,"lo2":-87.6739,"dy":0.0162,"dx":0.0183,"nx":112,"ny":82,"refTime":"2026-04-09T12:00:00:Z","depth":0,"parameterNumber":3,"parameterNumberName":"V-component_of_WINDS"},"data":[0.0,0.0,0.0,0.0,0.0,0.0,0.0,0.0,0.0,0.0,0.0,0.0,0.0,0.0,0.0,0.0,0.0,0.0,0.0,0.0,0.0,0.0,0.0,0.0,0.0,0.0,0.0,0.0,0.0,0.0,0.0,0.0,0.0,0.0,0.0,0.0,0.0,0.0,0.0,0.0,0.0,0.0,0.0,0.0,0.0,0.0,0.0,0.0,0.0,0.0,0.0,0.0,0.0,0.0,0.0,0.0,0.0,0.0,0.0,0.0,0.0,0.0,0.0,0.0,0.0,0.0,0.0,0.0,0.0,0.0,0.0,0.0,0.0,0.0,0.0,0.0,0.0,0.0,0.0,0.0,0.0,0.0,0.0,0.0,0.0,0.0,0.0,0.0,0.0,0.0,0.0,3.2617,3.6484,3.875,3.8594,3.7061,3.4584,3.1029,0.0,0.0,0.0,0.0,0.0,0.0,0.0,0.0,0.0,0.0,0.0,0.0,0.0,0.0,0.0,0.0,0.0,0.0,0.0,0.0,0.0,0.0,0.0,0.0,0.0,0.0,0.0,0.0,0.0,0.0,0.0,0.0,0.0,0.0,0.0,0.0,0.0,0.0,0.0,0.0,0.0,0.0,0.0,0.0,0.0,0.0,0.0,0.0,0.0,0.0,0.0,0.0,0.0,0.0,0.0,0.0,0.0,0.0,0.0,0.0,0.0,0.0,0.0,0.0,0.0,0.0,0.0,0.0,0.0,0.0,0.0,0.0,0.0,0.0,0.0,0.0,0.0,0.0,0.0,0.0,0.0,0.0,0.0,0.0,0.0,0.0,0.0,0.0,0.0,0.0,0.0,0.0,0.0,0.0,0.0,0.0,0.0,0.0,0.0,0.0,0.0,0.0,0.0,0.0,2.957,3.5859,3.8437,3.9414,3.8672,3.7656,3.5265,3.0992,0.0,0.0,0.0,0.0,0.0,0.0,0.0,0.0,0.0,0.0,0.0,0.0,0.0,0.0,0.0,0.0,0.0,0.0,0.0,0.0,0.0,0.0,0.0,0.0,0.0,0.0,0.0,0.0,0.0,0.0,0.0,0.0,0.0,0.0,0.0,0.0,0.0,0.0,0.0,0.0,0.0,0.0,0.0,0.0,0.0,0.0,0.0,0.0,0.0,0.0,0.0,0.0,0.0,0.0,0.0,0.0,0.0,0.0,0.0,0.0,0.0,0.0,0.0,0.0,0.0,0.0,0.0,0.0,0.0,0.0,0.0,0.0,0.0,0.0,0.0,0.0,0.0,0.0,0.0,0.0,0.0,0.0,0.0,0.0,0.0,0.0,0.0,0.0,0.0,0.0,0.0,0.0,0.0,0.0,0.0,0.0,0.0,0.0,0.0,0.0,0.0,0.0,0.0,2.9726,3.2578,3.8125,3.9844,4.0078,3.8711,3.7812,3.5427,3.1016,2.8685,0.0,0.0,0.0,0.0,0.0,0.0,0.0,0.0,0.0,0.0,0.0,0.0,0.0,0.0,0.0,0.0,0.0,0.0,0.0,0.0,0.0,0.0,0.0,0.0,0.0,0.0,0.0,0.0,0.0,0.0,0.0,0.0,0.0,0.0,0.0,0.0,0.0,0.0,0.0,0.0,0.0,0.0,0.0,0.0,0.0,0.0,0.0,0.0,0.0,0.0,0.0,0.0,0.0,0.0,0.0,0.0,0.0,0.0,0.0,0.0,0.0,0.0,0.0,0.0,0.0,0.0,0.0,0.0,0.0,0.0,0.0,0.0,0.0,0.0,0.0,0.0,0.0,0.0,0.0,0.0,0.0,0.0,0.0,0.0,0.0,0.0,0.0,0.0,0.0,0.0,0.0,0.0,0.0,0.0,0.0,0.0,0.0,0.0,0.0,0.0,0.0,0.0,3.3672,3.5742,3.9492,4.0664,4.0508,3.875,3.7617,3.5193,3.1027,2.8155,0.0,0.0,0.0,0.0,0.0,0.0,0.0,0.0,0.0,0.0,0.0,0.0,0.0,0.0,0.0,0.0,0.0,0.0,0.0,0.0,0.0,0.0,0.0,0.0,0.0,0.0,0.0,0.0,0.0,0.0,0.0,0.0,0.0,0.0,0.0,0.0,0.0,0.0,0.0,0.0,0.0,0.0,0.0,0.0,0.0,0.0,0.0,0.0,0.0,0.0,0.0,0.0,0.0,0.0,0.0,0.0,0.0,0.0,0.0,0.0,0.0,0.0,0.0,0.0,0.0,0.0,0.0,0.0,0.0,0.0,0.0,0.0,0.0,0.0,0.0,0.0,0.0,0.0,0.0,0.0,0.0,0.0,0.0,0.0,0.0,0.0,0.0,0.0,0.0,0.0,0.0,0.0,0.0,0.0,0.0,0.0,0.0,0.0,0.0,0.0,0.0,0.0,3.457,3.7773,3.9687,4.0664,4.0508,3.875,3.707,3.4565,3.0949,2.755,0.0,0.0,0.0,0.0,0.0,0.0,0.0,0.0,0.0,0.0,0.0,0.0,0.0,0.0,0.0,0.0,0.0,0.0,0.0,0.0,0.0,0.0,0.0,0.0,0.0,0.0,0.0,0.0,0.0,0.0,0.0,0.0,0.0,0.0,0.0,0.0,0.0,0.0,0.0,0.0,0.0,0.0,0.0,0.0,0.0,0.0,0.0,0.0,0.0,0.0,0.0,0.0,0.0,0.0,0.0,0.0,0.0,0.0,0.0,0.0,0.0,0.0,0.0,0.0,0.0,0.0,0.0,0.0,0.0,0.0,0.0,0.0,0.0,0.0,0.0,0.0,0.0,0.0,0.0,0.0,0.0,0.0,0.0,0.0,0.0,0.0,0.0,0.0,0.0,0.0,0.0,0.0,0.0,0.0,0.0,0.0,0.0,0.0,0.0,0.0,0.0,0.0,3.4805,3.7578,0.0,4.1016,4.0508,3.875,3.8008,3.5661,3.1059,0.0,0.0,0.0,0.0,0.0,0.0,0.0,0.0,0.0,0.0,0.0,0.0,0.0,0.0,0.0,0.0,0.0,0.0,0.0,0.0,0.0,0.0,0.0,0.0,0.0,0.0,0.0,0.0,0.0,0.0,0.0,0.0,0.0,0.0,0.0,0.0,0.0,0.0,0.0,0.0,0.0,0.0,0.0,0.0,0.0,0.0,0.0,0.0,0.0,0.0,0.0,0.0,0.0,0.0,0.0,0.0,0.0,0.0,0.0,0.0,0.0,0.0,0.0,0.0,0.0,0.0,0.0,0.0,0.0,0.0,0.0,0.0,0.0,0.0,0.0,0.0,0.0,0.0,0.0,0.0,0.0,0.0,0.0,0.0,0.0,0.0,0.0,0.0,0.0,0.0,0.0,0.0,0.0,0.0,0.0,0.0,0.0,0.0,0.0,0.0,0.0,0.0,3.2812,3.5391,3.7969,0.0,4.1211,4.0625,3.9141,3.8242,3.5896,3.1454,0.0,0.0,0.0,0.0,0.0,0.0,0.0,0.0,0.0,0.0,0.0,0.0,0.0,0.0,0.0,0.0,0.0,0.0,0.0,0.0,0.0,0.0,0.0,0.0,0.0,0.0,0.0,0.0,0.0,0.0,0.0,0.0,0.0,0.0,0.0,0.0,0.0,0.0,0.0,0.0,0.0,0.0,0.0,0.0,0.0,0.0,0.0,0.0,0.0,0.0,0.0,0.0,0.0,0.0,0.0,0.0,0.0,0.0,0.0,0.0,0.0,0.0,0.0,0.0,0.0,0.0,0.0,0.0,0.0,0.0,0.0,0.0,0.0,0.0,0.0,0.0,0.0,0.0,0.0,0.0,0.0,0.0,0.0,0.0,0.0,0.0,0.0,0.0,0.0,0.0,0.0,0.0,0.0,0.0,0.0,0.0,0.0,0.0,0.0,0.0,0.0,0.0,3.2969,3.6445,3.9297,4.1016,4.1211,4.0859,3.9961,3.7539,3.4877,0.0,0.0,0.0,0.0,0.0,0.0,0.0,0.0,0.0,0.0,0.0,0.0,0.0,0.0,0.0,0.0,0.0,0.0,0.0,0.0,0.0,0.0,0.0,0.0,0.0,0.0,0.0,0.0,0.0,0.0,0.0,0.0,0.0,0.0,0.0,0.0,0.0,0.0,0.0,0.0,0.0,0.0,0.0,0.0,0.0,0.0,0.0,0.0,0.0,0.0,0.0,0.0,0.0,0.0,0.0,0.0,0.0,0.0,0.0,0.0,0.0,0.0,0.0,0.0,0.0,0.0,0.0,0.0,0.0,0.0,0.0,0.0,0.0,0.0,0.0,0.0,0.0,0.0,0.0,0.0,0.0,0.0,0.0,0.0,0.0,0.0,0.0,0.0,0.0,0.0,0.0,0.0,0.0,0.0,0.0,0.0,0.0,0.0,0.0,0.0,0.0,0.0,0.0,3.2969,3.6992,3.9961,4.1094,4.1719,4.1445,4.0039,3.8633,3.6166,3.2235,0.0,0.0,0.0,0.0,0.0,0.0,0.0,0.0,0.0,0.0,0.0,0.0,0.0,0.0,0.0,0.0,0.0,0.0,0.0,0.0,0.0,0.0,0.0,0.0,0.0,0.0,0.0,0.0,0.0,0.0,0.0,0.0,0.0,0.0,0.0,0.0,0.0,0.0,0.0,0.0,0.0,0.0,0.0,0.0,0.0,0.0,0.0,0.0,0.0,0.0,0.0,0.0,0.0,0.0,0.0,0.0,0.0,0.0,0.0,0.0,0.0,0.0,0.0,0.0,0.0,0.0,0.0,0.0,0.0,0.0,0.0,0.0,0.0,0.0,0.0,0.0,0.0,0.0,0.0,0.0,0.0,0.0,0.0,0.0,0.0,0.0,0.0,0.0,0.0,0.0,0.0,0.0,0.0,0.0,0.0,0.0,0.0,0.0,0.0,0.0,0.0,0.0,3.3476,3.7734,4.0898,4.207,4.2617,4.2383,4.1016,3.9805,3.7221,3.2744,0.0,0.0,0.0,0.0,0.0,0.0,0.0,0.0,0.0,0.0,0.0,0.0,0.0,0.0,0.0,0.0,0.0,0.0,0.0,0.0,0.0,0.0,0.0,0.0,0.0,0.0,0.0,0.0,0.0,0.0,0.0,0.0,0.0,0.0,0.0,0.0,0.0,0.0,0.0,0.0,0.0,0.0,0.0,0.0,0.0,0.0,0.0,0.0,0.0,0.0,0.0,0.0,0.0,0.0,0.0,0.0,0.0,0.0,0.0,0.0,0.0,0.0,0.0,0.0,0.0,0.0,0.0,0.0,0.0,0.0,0.0,0.0,0.0,0.0,0.0,0.0,0.0,0.0,0.0,0.0,0.0,0.0,0.0,0.0,0.0,0.0,0.0,0.0,0.0,0.0,0.0,0.0,0.0,0.0,0.0,0.0,0.0,0.0,0.0,0.0,0.0,0.0,3.4258,3.8555,4.1914,4.3516,4.3789,4.3476,4.2578,4.0976,3.8198,3.3846,0.0,0.0,0.0,0.0,0.0,0.0,0.0,0.0,0.0,0.0,0.0,0.0,0.0,0.0,0.0,0.0,0.0,0.0,0.0,0.0,0.0,0.0,0.0,0.0,0.0,0.0,0.0,0.0,0.0,0.0,0.0,0.0,0.0,0.0,0.0,0.0,0.0,0.0,0.0,0.0,0.0,0.0,0.0,0.0,0.0,0.0,0.0,0.0,0.0,0.0,0.0,0.0,0.0,0.0,0.0,0.0,0.0,0.0,0.0,0.0,2.6699,0.0,0.0,0.0,0.0,0.0,0.0,0.0,0.0,0.0,0.0,0.0,0.0,0.0,0.0,0.0,0.0,0.0,0.0,0.0,0.0,0.0,0.0,0.0,0.0,0.0,0.0,0.0,0.0,0.0,0.0,0.0,0.0,0.0,0.0,0.0,0.0,0.0,0.0,0.0,0.0,0.0,3.4336,3.9062,4.2539,4.3594,4.4297,4.4375,4.3516,4.1875,3.9607,3.654,0.0,0.0,0.0,0.0,0.0,0.0,0.0,0.0,0.0,0.0,0.0,0.0,0.0,0.0,0.0,0.0,0.0,0.0,0.0,0.0,0.0,0.0,0.0,0.0,0.0,0.0,0.0,0.0,0.0,0.0,0.0,0.0,0.0,0.0,0.0,0.0,0.0,0.0,0.0,0.0,0.0,0.0,0.0,0.0,0.0,0.0,0.0,0.0,0.0,0.0,0.0,0.0,0.0,0.0,0.0,0.0,0.0,0.0,0.0,0.0,0.0,2.9584,0.0,0.0,0.0,0.0,0.0,0.0,0.0,0.0,0.0,0.0,0.0,0.0,0.0,0.0,0.0,0.0,0.0,0.0,0.0,0.0,0.0,0.0,0.0,0.0,0.0,0.0,0.0,0.0,0.0,0.0,0.0,0.0,0.0,0.0,0.0,0.0,0.0,0.0,0.0,0.0,3.5586,4.0078,4.3516,4.4805,4.5351,4.5273,4.4414,4.3125,4.1092,3.8032,3.4946,0.0,0.0,0.0,0.0,0.0,0.0,0.0,0.0,0.0,0.0,0.0,0.0,0.0,0.0,0.0,0.0,0.0,0.0,0.0,0.0,0.0,0.0,0.0,0.0,0.0,0.0,0.0,0.0,0.0,0.0,0.0,0.0,0.0,0.0,0.0,0.0,0.0,0.0,0.0,0.0,0.0,0.0,0.0,0.0,0.0,0.0,0.0,0.0,0.0,0.0,0.0,0.0,0.0,3.7066,3.7771,3.8011,3.9364,4.0096,4.017,3.6434,3.4814,3.4688,0.0,0.0,0.0,0.0,0.0,0.0,0.0,0.0,0.0,0.0,0.0,0.0,0.0,0.0,0.0,0.0,0.0,0.0,0.0,0.0,0.0,0.0,0.0,0.0,0.0,3.9384,3.928,0.0,0.0,0.0,0.0,0.0,0.0,0.0,0.0,0.0,0.0,0.0,0.0,3.7539,4.1445,4.4609,4.6328,4.6406,4.6016,4.5273,4.4414,4.2616,3.96,3.7489,3.4667,0.0,0.0,0.0,0.0,0.0,0.0,0.0,0.0,0.0,0.0,0.0,0.0,0.0,0.0,0.0,0.0,0.0,0.0,0.0,0.0,0.0,0.0,0.0,0.0,0.0,0.0,0.0,0.0,0.0,0.0,0.0,0.0,2.4934,2.5878,0.0,0.0,0.0,0.0,0.0,0.0,0.0,0.0,0.0,0.0,0.0,0.0,0.0,0.0,3.678,3.8923,4.0242,4.0773,4.2344,4.3605,4.4649,4.4831,4.5737,4.7051,4.5697,0.0,3.8917,3.6494,0.0,0.0,0.0,0.0,0.0,0.0,0.0,0.0,0.0,0.0,0.0,0.0,0.0,0.0,0.0,0.0,0.0,0.0,0.0,0.0,0.0,0.0,4.4606,4.3845,4.386,4.3821,0.0,3.8309,3.3572,3.1668,0.0,0.0,0.0,0.0,0.0,0.0,0.0,0.0,4.0234,4.3125,4.5508,4.7226,4.6758,4.625,4.6133,4.5312,4.4297,4.3086,4.0,3.7614,3.6231,3.2481,0.0,0.0,0.0,0.0,0.0,0.0,0.0,0.0,0.0,0.0,0.0,0.0,0.0,0.0,0.0,0.0,0.0,0.0,0.0,0.0,0.0,0.0,0.0,0.0,0.0,0.0,0.0,0.0,0.0,2.5044,2.6875,2.7236,2.7671,2.7592,0.0,0.0,0.0,0.0,0.0,0.0,0.0,0.0,0.0,3.7845,3.95,4.1098,4.2611,4.4341,4.5738,4.6805,4.7536,4.8376,4.9339,4.9339,4.971,5.039,5.0036,4.8648,4.639,4.2108,3.9844,3.8883,0.0,0.0,0.0,0.0,0.0,3.7964,4.0466,4.1053,0.0,0.0,0.0,0.0,0.0,0.0,0.0,0.0,0.0,0.0,0.0,0.0,0.0,4.7548,4.7731,4.779,4.7789,4.4671,4.0762,0.0,3.6358,3.5004,3.0601,0.0,0.0,0.0,0.0,0.0,4.2226,4.4414,4.6211,4.7461,4.6836,4.6289,4.6289,4.6406,4.5898,4.4531,4.3047,4.1367,3.9528,3.6247,3.3586,0.0,0.0,0.0,0.0,0.0,0.0,0.0,0.0,0.0,0.0,0.0,0.0,0.0,0.0,0.0,0.0,0.0,0.0,0.0,0.0,0.0,0.0,0.0,0.0,0.0,0.0,0.0,0.0,2.8012,2.9468,2.9435,3.0618,3.0728,0.0,0.0,0.0,0.0,0.0,0.0,3.8025,3.8783,4.0391,4.318,4.4654,4.6317,4.8272,4.918,5.0416,5.1881,5.1881,5.2385,5.3259,5.3259,5.3411,5.3601,5.3373,5.3297,5.2866,4.732,4.4707,4.4012,4.2342,4.1677,4.1872,4.3403,4.3578,4.3465,4.6467,4.712,4.6482,4.5663,0.0,4.3729,4.1287,0.0,0.0,0.0,0.0,4.2663,4.5907,4.7736,4.9125,5.0644,5.1088,5.1094,5.0898,4.9648,4.7147,0.0,4.1663,4.042,3.5572,0.0,0.0,0.0,0.0,4.2031,4.4414,4.582,4.6875,4.7539,4.6836,4.6406,4.6601,4.7226,4.7148,4.6055,4.5586,4.4492,4.2578,4.0,3.7655,3.5655,0.0,0.0,0.0,0.0,0.0,0.0,0.0,0.0,0.0,0.0,0.0,0.0,0.0,0.0,0.0,0.0,0.0,0.0,0.0,0.0,0.0,0.0,0.0,0.0,0.0,0.0,0.0,0.0,0.0,3.389,3.6373,0.0,0.0,0.0,0.0,3.6965,3.8514,4.0506,4.3021,4.4587,4.6592,4.9084,4.9998,5.1245,5.2968,5.3021,5.3668,5.4898,5.4898,5.5561,5.6747,5.6747,5.7208,5.7933,5.7093,5.6742,5.6351,5.1344,4.9284,4.9064,4.7464,4.6833,4.6986,4.8143,4.8546,4.87,5.0003,5.0462,5.0548,5.137,4.9589,4.7073,4.6876,4.514,0.0,0.0,4.7585,4.888,5.1599,5.2383,5.2656,5.3594,5.3789,5.3594,5.2734,5.1875,5.0156,0.0,4.5312,4.4179,4.2226,0.0,4.2266,4.3047,4.4062,4.5391,4.7187,4.7461,4.7539,4.7617,4.6836,4.6641,4.7461,4.7578,4.793,4.8672,4.7148,4.6172,4.6055,4.3516,4.0976,3.8437,3.6516,0.0,0.0,0.0,0.0,0.0,0.0,0.0,0.0,0.0,0.0,0.0,0.0,0.0,0.0,0.0,0.0,0.0,0.0,0.0,0.0,0.0,0.0,0.0,0.0,0.0,0.0,0.0,0.0,3.7693,3.9677,0.0,3.8221,3.9288,4.0685,4.1996,4.3589,4.5571,4.808,4.9511,5.081,5.1955,5.3798,5.4938,5.5296,5.6116,5.6727,5.717,5.717,5.7415,5.7857,5.7857,5.8011,5.8275,5.7973,5.7857,5.7703,5.601,5.4639,5.3481,5.288,5.2662,5.2706,5.3141,5.3377,5.351,5.3963,5.3805,5.3375,5.3157,5.2338,5.1373,5.0824,5.0077,4.9599,5.0542,5.1012,5.1638,5.3125,5.3555,5.3594,5.3945,5.3984,5.3906,5.3594,5.3281,5.2695,5.1484,4.9219,4.6797,4.4453,4.5,4.5469,4.4648,4.6211,4.793,4.9101,4.9258,4.9258,4.9258,4.8008,4.7266,4.7578,4.8125,4.8086,4.7266,4.7695,4.7461,4.6367,4.4883,4.3398,4.1914,3.9566,3.6515,0.0,0.0,0.0,0.0,0.0,0.0,0.0,0.0,0.0,0.0,0.0,0.0,0.0,0.0,0.0,0.0,0.0,0.0,0.0,0.0,0.0,0.0,0.0,0.0,0.0,0.0,4.0326,4.1456,4.3945,4.4778,4.2782,4.4363,4.6096,4.7457,4.8837,5.0564,5.276,5.3696,5.4402,5.4967,5.6597,5.7432,5.7468,5.8579,5.9281,5.9588,5.9858,6.003,6.0094,6.0094,6.0112,6.0162,6.0162,6.0162,6.0176,6.0255,5.9575,5.8319,5.715,5.672,5.672,5.672,5.6788,5.6911,5.6911,5.6633,5.6119,5.5258,5.5087,5.5019,5.416,5.394,5.4062,5.4375,5.4453,5.4648,5.5547,5.5547,5.5312,5.5312,5.5078,5.4805,5.4492,5.4453,5.4336,5.4062,5.1914,4.9648,4.7891,4.832,4.8476,4.7344,4.8633,4.9844,5.0156,5.0195,5.0078,4.9805,4.8711,4.8164,4.8437,4.875,4.8632,4.8002,4.8237,4.7999,4.7089,4.5645,4.4473,4.3614,4.0998,3.8358,3.5791,0.0,0.0,0.0,0.0,0.0,0.0,0.0,0.0,0.0,0.0,0.0,0.0,0.0,0.0,0.0,0.0,0.0,0.0,0.0,0.0,0.0,0.0,0.0,3.8659,4.256,4.5362,4.5333,4.9261,5.1005,4.8543,5.0543,5.239,5.3236,5.4087,5.5285,5.694,5.7066,5.7489,5.8357,5.8413,5.8803,5.96,6.0464,6.1316,6.2169,6.2953,6.3422,6.3614,6.3605,6.3651,6.3795,6.3795,6.3795,6.3795,6.38,6.3803,6.3492,6.0141,5.8818,5.8818,5.8779,5.8782,5.8787,5.8753,5.8827,5.8818,5.7996,5.7836,5.7773,5.6953,5.668,5.6875,5.7695,5.793,5.8125,5.8984,5.8555,5.793,5.793,5.7305,5.6445,5.5586,5.539,5.5117,5.4258,5.3398,5.2773,5.2734,5.2031,5.1484,5.1445,5.1445,0.0,5.0351,5.0234,4.9922,4.9062,4.8945,4.9258,5.0117,4.9414,4.9525,5.0969,4.8782,4.7735,4.8418,4.608,4.4366,4.3538,4.095,3.9216,3.8296,0.0,0.0,0.0,0.0,0.0,0.0,0.0,0.0,0.0,0.0,0.0,0.0,0.0,0.0,0.0,0.0,0.0,0.0,0.0,0.0,0.0,0.0,4.3478,4.365,4.5759,4.8015,4.98,5.2239,5.351,5.2818,5.3895,5.5011,5.5901,5.617,5.6786,5.7896,5.864,5.935,6.01,6.0949,6.174,6.2457,6.2791,6.3103,6.3332,6.3471,6.3589,6.3757,6.3641,6.3651,6.3795,6.3795,6.3795,6.3803,6.3978,6.401,6.3846,6.2198,6.1534,6.1454,6.0828,6.0658,6.0662,6.0129,5.9952,5.984,5.9058,5.8827,5.8789,5.8555,5.8476,5.8555,5.8789,5.8828,5.8906,5.914,5.9023,5.8828,5.8828,5.8672,5.8242,5.7383,5.7187,5.6914,5.6055,5.5195,5.4375,5.375,5.3437,5.3086,5.2422,5.2344,0.0,5.1172,5.1007,5.0834,5.06,4.9972,4.9659,4.9893,4.9698,4.918,0.0,4.8224,4.8015,4.7589,4.6889,4.6338,4.6028,4.4128,4.2359,0.0,0.0,0.0,0.0,0.0,0.0,0.0,0.0,0.0,0.0,0.0,0.0,0.0,0.0,0.0,0.0,0.0,0.0,0.0,0.0,0.0,0.0,4.4734,4.7974,4.9801,5.0469,5.1482,5.3372,5.5118,5.6202,5.6231,5.6665,5.7323,5.817,5.8605,5.9185,6.0062,6.0969,6.164,6.2045,6.2751,6.3275,6.367,6.4131,6.4337,6.4337,6.4655,6.4856,6.4968,6.4881,6.4966,0.0,6.5081,6.5081,6.5123,6.5204,6.5254,0.0,0.0,0.0,0.0,0.0,6.2608,6.2601,6.2186,6.2031,6.1953,6.1484,6.1094,6.0781,6.0781,6.0547,6.0234,6.0234,6.0234,6.0234,6.0234,5.9961,5.9687,5.9687,5.9453,5.9062,5.8555,5.8437,5.8281,5.7773,0.0,0.0,5.5654,5.4685,5.3827,5.3234,5.3154,5.2953,5.2385,5.2269,5.2198,5.2198,5.171,5.1234,5.0887,5.0495,0.0,0.0,0.0,4.8018,4.7094,4.7052,0.0,0.0,0.0,0.0,0.0,0.0,0.0,0.0,4.281,4.2547,0.0,0.0,0.0,0.0,0.0,0.0,0.0,0.0,0.0,0.0,0.0,0.0,0.0,0.0,0.0,0.0,4.8684,5.1859,5.5665,5.5587,5.5402,5.6203,5.7688,5.876,5.8963,5.909,5.9516,6.0369,6.1151,6.1929,6.2699,0.0,0.0,0.0,0.0,6.4031,6.4093,6.4925,6.5319,6.5319,6.6076,6.6491,6.663,6.6621,6.6693,6.6914,6.6914,6.6914,6.6914,6.6914,6.6914,6.6758,6.5078,6.4375,6.4297,6.4297,6.4297,0.0,0.0,0.0,0.0,6.4297,6.3789,6.3164,6.3164,6.2617,6.1992,6.1992,6.1914,6.1836,6.1836,6.1211,6.0547,6.0547,6.0,5.9453,5.9375,5.9336,5.9296,5.9219,5.8456,5.7824,5.7834,5.5841,5.4169,5.3964,5.3913,5.3845,5.3621,5.3591,5.358,5.358,0.0,0.0,5.2475,5.1689,5.1127,5.0905,4.9335,4.8052,4.7206,4.7351,4.7428,4.7312,4.7505,4.8274,4.9663,5.0668,5.113,5.1015,4.5701,4.4812,0.0,0.0,0.0,0.0,0.0,0.0,0.0,0.0,0.0,0.0,0.0,0.0,0.0,0.0,0.0,4.7788,5.1901,5.5239,5.6093,5.7792,5.8736,5.8228,5.9081,5.9988,6.0725,6.142,6.2196,6.3016,6.3211,6.3405,6.3561,6.3858,0.0,6.4843,6.5103,6.5522,6.6048,6.638,6.6553,6.6553,0.0,0.0,6.6833,6.6683,6.6693,6.6914,6.6914,6.6914,6.6914,6.6914,6.6914,6.6797,6.5742,6.4922,6.4297,6.4297,6.4297,6.4297,6.4297,6.4297,6.4297,6.4297,6.418,6.4062,6.4062,6.3945,0.0,6.3789,6.3281,6.2734,6.2734,6.2109,6.1445,6.1445,6.1328,6.1015,6.0312,6.0067,5.9858,5.9296,5.8808,5.8547,5.8639,5.7049,5.5515,5.4787,5.4704,5.4419,5.3685,5.3498,5.3451,5.3451,5.334,5.3229,5.3036,5.2877,5.2203,5.0821,4.9772,4.9094,4.8933,5.0197,5.062,4.9976,5.1279,5.1813,5.1428,5.301,5.3785,5.3746,5.2587,5.201,0.0,0.0,0.0,0.0,0.0,0.0,0.0,0.0,0.0,0.0,0.0,4.1528,4.3298,0.0,5.0553,5.2271,5.5075,5.7335,5.8195,5.9402,6.001,5.95,6.0623,6.1617,6.2092,6.2952,6.3614,6.4006,6.4435,6.471,6.471,6.5208,6.5639,6.5996,6.6165,6.6404,6.6742,6.6834,6.6914,6.6914,6.7258,6.7454,6.7578,6.7883,6.8119,6.8203,6.8203,6.8164,6.8164,6.8203,6.8164,6.8125,6.7656,6.6719,6.5586,6.5586,6.5586,6.5586,6.5586,6.5586,6.5586,6.5586,6.5312,6.4961,6.4961,6.4648,6.4297,6.4297,6.3984,6.3633,6.3633,6.332,6.289,6.2461,6.2344,6.2109,6.1161,6.0903,6.0722,6.033,5.9729,5.9272,5.9323,5.8185,5.6997,5.616,5.6057,5.5712,5.4754,5.4572,5.4544,5.4544,5.4472,5.428,5.3895,5.3433,5.2856,5.201,5.1548,5.1318,5.1318,5.212,5.2587,5.2592,5.3433,5.4049,5.4434,5.5324,5.5978,5.6434,5.7242,5.6742,0.0,0.0,0.0,0.0,0.0,0.0,0.0,3.6993,3.8404,4.0378,4.3233,4.6088,4.8398,5.1367,5.4219,5.6484,5.7734,5.8867,6.0195,6.0547,6.0623,6.0518,6.1879,6.2948,6.3242,6.4023,6.4609,6.4805,6.5469,6.5859,6.5859,6.6523,6.6914,6.6914,6.707,6.7148,6.7148,6.7305,6.7383,6.7383,6.8125,6.8437,6.8476,6.914,6.9492,6.9492,6.9492,6.9453,6.9414,6.9453,6.9453,6.9414,6.9414,6.8594,6.7422,6.7422,6.7305,6.7148,6.7148,6.7031,6.6914,6.6914,6.6406,6.5859,6.5859,6.5351,6.4805,6.4805,6.4687,6.4531,6.4531,6.4414,6.4101,6.3437,6.3242,6.3045,6.2237,6.1854,6.1695,6.1622,6.072,5.998,6.0029,5.932,5.8473,5.7562,5.7396,5.7134,5.6312,5.6203,5.6203,5.6203,5.6203,5.5934,5.528,5.4434,5.3928,5.3933,5.378,5.3703,5.3703,5.3857,5.428,5.4977,5.5164,5.5895,5.7247,5.7594,5.8094,5.8819,6.0512,6.0017,3.4063,3.3211,3.399,3.7746,3.7782,3.8644,0.0,4.6001,4.5859,4.8359,5.039,5.1992,5.3086,5.4844,5.6523,5.7578,5.9101,6.0195,6.0351,6.1055,6.1562,6.1523,6.2382,6.3281,6.4062,6.4922,6.5781,6.6562,6.6719,6.6758,6.6758,6.6836,6.6914,6.6914,6.7656,6.8047,6.8047,6.8828,6.918,6.9101,6.9297,6.9336,6.9258,6.9375,6.9414,6.9414,6.9453,6.9453,6.9414,6.9453,6.9492,6.9492,6.9492,6.9375,6.9219,6.9219,6.8711,6.8047,6.8047,6.7539,6.6914,6.6914,6.6836,6.6758,6.6758,6.668,6.6601,6.6601,6.6055,6.5469,6.5469,6.4883,6.4297,6.418,6.414,6.4101,6.4023,6.3179,6.252,6.2609,6.1597,6.0729,6.085,6.0671,5.9985,5.8396,5.8171,5.816,5.8011,5.8011,5.8011,5.8011,5.8011,5.7967,5.7896,5.7082,5.6582,5.6555,5.5862,5.5439,5.5439,5.617,5.6632,5.6709,5.7473,5.7967,5.8165,5.9665,6.0441,6.0556,6.2243,6.2089,4.0374,3.9363,3.9003,4.138,4.2999,4.4723,4.7454,4.8709,4.9726,5.1328,5.3008,5.4492,5.5351,5.6953,5.8398,0.0,6.0351,6.1172,6.1172,6.1484,6.1523,6.1015,6.2148,6.3359,6.4219,6.5078,6.5976,6.6836,6.6914,6.6914,6.6914,6.7383,6.7656,6.7656,6.8515,6.8945,6.8945,6.9336,6.9453,6.9414,6.9922,7.0195,7.0156,7.0664,7.0898,7.0898,7.0937,7.0937,7.0937,7.0937,7.0937,7.0937,7.0937,7.0937,7.082,6.9805,6.9219,6.8906,6.8945,6.8672,6.8281,6.7812,6.7656,6.7578,6.7031,6.6914,6.6914,6.6914,6.664,6.6367,6.6367,6.6094,6.5703,6.5195,6.5078,6.4882,6.4322,6.3808,6.3412,6.33,6.2801,6.2267,6.1713,6.1604,6.1133,5.9935,5.9319,5.8813,5.8352,5.8313,5.8313,5.8313,5.8313,5.8313,5.8313,5.7967,5.778,5.7742,5.7396,5.7203,5.7203,5.755,5.7973,5.8434,5.9319,6.0012,6.0517,6.1666,6.2243,6.2275,6.3474,6.3935,4.4007,4.3425,4.3077,4.4686,4.7186,4.9258,4.9293,5.0936,5.2656,5.3239,5.4566,5.5855,5.6754,5.8121,5.9411,6.0273,6.1092,6.1636,6.1636,6.1441,6.105,6.0425,6.1288,6.2383,6.3476,6.4805,6.5859,6.6484,6.6758,6.6992,6.7265,6.7851,6.8281,6.8515,6.9375,6.9844,6.9844,7.0078,7.0156,7.0117,7.0742,7.1055,7.1094,7.1719,7.1992,7.1992,7.1992,7.1992,7.1992,7.1992,7.1992,7.1992,7.1992,7.1992,7.1836,7.0586,6.9961,6.9765,6.9805,6.9648,6.9297,6.875,6.8555,6.8398,6.7773,6.7617,6.7578,6.7344,6.7265,6.7187,6.6953,6.6914,6.6758,6.6094,6.5976,6.5741,6.5018,6.4627,6.4308,6.407,6.3747,6.3276,6.2554,6.2441,6.221,6.1589,6.0742,5.9935,5.9088,5.8973,5.8973,5.8973,5.8973,5.8973,5.8973,5.8973,5.8973,5.8973,5.8973,5.8973,5.8973,5.9204,5.9627,6.0204,6.105,6.1781,6.2441,6.3281,6.366,6.366,6.4782,6.5628,4.2582,4.2999,4.4452,4.7731,4.936,5.0779,5.3085,5.4441,5.5154,5.5038,5.5728,5.6628,5.7527,5.8348,5.9227,6.0234,6.1037,6.1507,6.1507,6.0764,6.0255,6.0216,5.9678,5.9961,0.0,6.4101,6.5625,6.5625,6.6406,6.7265,6.8125,6.8203,6.8555,6.9336,7.0195,7.0664,7.0664,7.1484,7.1914,7.1914,7.1953,7.1953,7.1953,7.1992,7.1992,7.1992,7.1992,7.1992,7.1992,7.1992,7.1992,7.1992,7.1992,7.1992,7.1992,7.1953,7.1406,7.0664,7.0664,7.0117,6.9414,6.9453,6.9414,6.9375,6.9336,6.9375,6.9258,6.8398,6.8164,6.7969,6.7109,6.6914,6.6875,6.6875,6.6875,6.6836,6.6836,6.591,6.5076,6.5067,6.4111,6.3288,6.3275,6.3275,6.3237,6.3237,6.2551,6.171,6.0825,6.0704,6.0704,6.0704,6.0704,6.0704,6.0704,6.0704,6.0704,6.0704,6.0704,6.0704,6.0704,6.1556,6.1979,6.2018,6.282,6.3237,6.3275,6.4122,6.4551,6.4589,6.625,6.7058,4.505,4.6334,4.7769,5.0431,5.2266,5.3632,5.4365,5.5231,5.5872,5.5836,5.5598,5.568,5.6541,5.6933,5.757,5.9047,6.0518,6.1488,6.1371,6.1699,6.1249,5.9425,6.009,0.0,0.0,0.0,0.0,6.5469,6.5859,6.668,6.8125,6.875,6.9414,7.0234,7.1094,7.1562,7.1562,7.1836,7.1992,7.1992,7.1992,7.1992,7.1992,7.1992,7.1992,7.1992,7.1992,7.1992,7.1992,7.1992,7.1992,7.1992,7.1992,7.1992,7.1992,7.1992,7.1797,7.1562,7.1562,7.1367,7.1015,7.0469,7.0273,7.0156,6.9648,6.9492,6.9453,6.914,6.9023,6.8945,6.8633,6.8164,6.7773,6.7773,6.7305,6.6914,6.6914,6.6493,6.6078,6.5983,6.5515,6.4949,6.428,6.4166,6.3968,6.3391,6.2627,6.1787,6.0902,6.0787,6.0787,6.0787,6.0787,6.0787,6.0787,6.1325,6.1672,6.1672,6.2166,6.2474,6.2474,6.2743,6.2897,6.2897,6.3743,6.4166,6.4166,6.5551,6.6244,6.6288,6.7436,6.8282,4.7421,4.8938,5.0289,5.2643,5.4171,5.5149,5.5216,5.553,5.5714,5.5659,5.472,5.4065,5.4615,5.4738,5.5458,5.7489,5.928,6.0708,6.1521,6.1951,6.1509,5.9727,6.0404,6.0723,0.0,0.0,0.0,6.4961,6.5703,6.6797,6.8555,6.914,7.0,7.1133,7.1719,7.1992,7.1992,7.1992,7.1992,7.1992,7.1992,7.1992,7.1992,7.1992,7.1992,7.1992,7.1992,7.1992,7.1992,7.1992,7.1992,7.1992,7.1992,7.1992,7.1992,7.1992,7.1992,7.1992,7.1992,7.1992,7.1914,7.1367,7.1172,7.1055,7.0547,7.039,7.0312,7.0039,6.9883,6.9805,6.9492,6.9023,6.8633,6.8633,6.7969,6.7344,6.7344,6.6921,6.65,6.6409,6.6204,6.5832,6.5165,6.5051,6.4782,6.3891,6.332,6.2672,6.182,6.1704,6.1704,6.1704,6.1704,6.1704,6.1704,6.2204,6.2512,6.2512,6.3006,6.3314,6.3314,6.3583,6.3775,6.3775,6.4897,6.5474,6.5513,6.6898,6.7552,6.759,6.8475,6.9161,4.9559,5.0763,5.2021,5.4365,5.5093,5.5313,5.5722,5.5359,5.4816,5.4606,5.3174,5.1938,5.1861,5.1953,5.2915,5.5547,5.7455,5.9452,6.1938,6.1663,6.115,0.0,0.0,0.0,0.0,0.0,0.0,6.4258,0.0,6.7578,6.9297,6.9453,7.0234,7.1953,7.1992,7.1992,7.1992,7.1992,7.1992,7.1992,7.1992,7.1992,7.1992,7.1992,7.1992,7.1992,7.1992,7.1992,7.1992,7.1992,7.1992,7.1992,7.1992,7.1992,7.1992,7.1992,7.1992,7.1992,7.1992,7.1992,7.1992,7.1992,7.1992,7.1992,7.1992,7.1992,7.1836,7.1015,7.0781,7.0586,6.9765,6.9492,6.9453,6.9453,6.8867,6.8281,6.8242,6.7356,6.6516,6.6468,6.6158,6.5904,6.5904,6.5904,6.5628,6.4782,6.4666,6.4359,6.3429,6.3314,6.3314,6.3314,6.3314,6.3314,6.3314,6.3352,6.3352,6.3352,6.3429,6.3429,6.3429,6.4282,6.4743,6.4743,6.632,6.7173,6.7173,6.8052,6.8468,6.8507,6.9353,6.9783,5.079,5.311,5.4958,5.538,5.6074,5.635,5.5113,5.4709,5.4235,5.2897,5.1268,4.9692,4.8459,4.9273,5.076,5.267,5.6652,0.0,6.1896,6.3119,0.0,6.1996,0.0,6.2705,6.2281,6.3684,0.0,0.0,6.5664,6.6953,6.9297,7.0039,7.0859,7.1953,7.1992,7.1992,7.1992,7.1992,7.1992,7.1992,7.1992,7.1992,7.1992,7.1992,7.1992,7.1992,7.1992,7.1992,7.1992,7.1992,7.1992,7.1992,7.1992,7.1992,7.1992,7.1992,7.1992,7.1992,7.1992,7.1992,7.1992,7.1992,7.1992,7.1992,7.1992,7.1992,7.1953,7.1719,7.168,7.1601,7.1406,7.0859,7.0351,7.0351,6.9765,6.914,6.9101,6.8762,6.8277,6.7508,6.655,6.5904,6.5904,6.5904,6.582,6.559,6.5551,6.5013,6.3506,6.3314,6.3314,6.3314,6.3314,6.3314,6.3314,6.3891,6.4282,6.4282,6.4897,6.5243,6.5243,6.6013,6.6481,6.6481,6.7513,6.809,6.809,6.893,6.936,6.9398,7.0206,7.0937,5.3153,5.5397,5.7031,5.6487,5.6484,5.6055,5.3841,5.2779,5.1664,4.9586,4.7817,4.624,4.4927,4.6047,4.7971,0.0,0.0,0.0,6.1701,6.3285,6.3902,0.0,6.3796,0.0,6.3549,6.4714,6.5808,0.0,6.6678,6.7539,6.9297,7.0234,7.1094,7.1953,7.1992,7.1992,7.1992,7.1992,7.1992,7.1992,7.1992,7.1992,7.1992,7.1992,7.1992,7.1992,0.0,7.1992,7.1992,7.1992,7.1992,7.1992,7.1992,7.2226,7.2578,7.2578,7.2812,7.3125,7.3125,7.289,7.25,7.2109,7.1992,7.1992,7.1992,7.1992,7.1992,7.1992,7.1992,7.1992,7.1992,7.164,7.1289,7.1289,7.0625,6.9999,6.9912,6.9432,6.8872,6.8166,6.7453,6.7013,6.7013,6.7013,6.6859,6.6481,6.6442,6.5942,6.4628,6.4436,6.4436,6.4436,6.4436,6.4436,6.4436,6.4897,6.5166,6.5166,6.5981,6.6442,6.6442,6.7244,6.7667,6.7667,6.8552,6.8968,6.8968,6.9821,7.0437,7.0821,7.1245,7.1937,5.5726,5.7397,5.8385,5.7418,5.6609,5.5281,5.2406,5.0433,4.8471,4.5821,4.3936,4.2508,4.1619,4.2931,4.5316,4.8817,0.0,5.7247,6.1633,6.2974,6.3814,6.4666,6.4904,6.5029,6.5146,6.5464,6.6297,6.7926,6.8347,6.8828,6.9531,7.039,7.1211,7.1992,7.1992,7.1992,7.1992,7.1992,7.1992,7.1992,7.1992,7.1992,7.1992,7.1992,7.1992,7.1992,0.0,0.0,7.2187,7.2305,7.2344,7.2344,7.2344,7.2812,7.3476,7.3476,7.3945,7.4609,7.4609,7.4101,7.332,7.2461,7.2109,7.1992,7.1952,7.1952,7.1951,7.1949,7.195,7.1952,7.1952,7.1992,7.1992,7.1992,7.1406,7.0815,7.069,6.9793,6.8932,6.8651,6.8501,6.8391,6.8391,6.8391,6.8122,6.7398,6.7289,6.7013,6.632,6.6051,6.5904,6.5904,6.6013,6.6051,6.6051,6.6167,6.6244,6.6244,6.6898,6.7289,6.7289,6.8129,6.8584,6.8584,6.9436,6.9937,7.0014,7.0744,7.1514,7.2367,7.2367,7.2822,5.6554,5.8042,5.8968,5.7433,5.6927,5.5756,5.1794,4.9586,4.7394,4.4201,4.2166,4.0704,3.9896,4.17,4.4662,4.874,5.2938,5.7434,6.2391,6.382,6.4705,0.0,6.5793,6.6148,6.6884,0.0,0.0,0.0,0.0,7.0312,7.0469,7.1289,7.1836,7.1992,7.1992,7.1992,7.1992,7.1992,7.1992,7.1992,7.1992,7.1992,7.1992,7.1992,7.1992,7.2031,0.0,0.0,7.3125,7.3867,7.414,7.414,7.414,7.4258,7.4375,7.4375,7.4453,7.4609,7.4609,7.4492,7.4219,7.3359,7.2578,7.1952,7.1807,7.1752,7.1737,7.1604,7.169,7.1752,7.1752,7.1863,7.1992,7.1992,7.1745,7.1513,7.1499,7.0564,6.9711,6.966,6.8972,6.8391,6.8391,6.8391,6.8353,6.8199,6.816,6.8122,6.7968,6.6744,6.5904,6.5904,6.6519,6.6904,6.6904,6.7552,6.7968,6.7968,6.8084,6.816,6.816,6.9007,6.9468,6.9468,7.0283,7.1052,7.179,7.1905,7.2437,7.3276,7.3276,7.3699,5.7324,5.8896,5.9781,5.8088,5.6973,5.5011,4.9894,4.7048,4.4278,4.0004,3.8465,3.7623,3.678,3.9434,4.2705,4.5624,4.9663,5.4203,5.9281,6.1127,6.2808,6.5049,6.5765,6.6458,0.0,0.0,0.0,0.0,0.0,7.0491,7.0605,7.1482,7.1992,7.1992,7.1992,7.1992,7.1992,7.1992,7.1992,7.1992,7.1992,7.2226,7.2695,7.2695,7.293,7.3398,7.3789,0.0,7.4023,7.4414,7.4609,7.4609,7.4609,7.4883,7.5273,7.5273,7.5547,7.5937,7.5937,7.5664,7.5195,7.4675,7.3925,7.3177,7.3065,7.2663,7.2204,7.2124,7.1911,7.1679,7.1619,7.1725,7.1811,7.1772,7.1594,7.1435,7.1435,7.0903,7.0409,7.0409,7.0009,6.9699,6.9699,6.9699,6.9552,6.9129,6.909,6.8891,6.8468,6.7699,6.7205,6.7205,6.7552,6.7782,6.7782,6.816,6.8391,6.8391,6.8814,6.909,6.909,7.0321,7.1014,7.1014,7.1822,7.2476,7.2899,7.2899,7.3322,7.4123,7.4123,7.4822,5.7357,5.8973,5.9896,5.8396,5.6588,5.3703,4.8159,4.4624,4.12,3.6462,3.5377,3.5098,3.4603,3.752,4.084,4.3262,4.6604,5.0866,5.6483,5.855,6.0795,6.4342,6.5523,0.0,6.7529,0.0,0.0,0.0,0.0,0.0,7.0748,7.1553,7.1992,7.1992,7.1992,7.1992,7.1992,7.1992,7.2109,7.2265,7.2265,7.2734,7.3594,7.3594,7.3945,7.4609,7.4805,0.0,0.0,7.5078,7.5156,7.5156,7.5156,7.5586,7.6172,7.6172,7.6601,7.7187,7.7187,7.6718,7.6087,7.5926,7.5159,7.4289,7.42,7.3591,7.2916,7.2867,7.253,7.2181,7.2063,7.217,7.2239,7.1884,7.1633,7.1433,7.1181,7.101,7.0898,7.0898,7.0898,7.0898,7.0898,7.0898,7.0706,7.0052,6.9975,6.9706,6.9007,6.893,6.893,6.893,6.8776,6.866,6.866,6.8853,6.893,6.893,6.9744,7.0244,7.0244,7.1668,7.2476,7.2476,7.3161,7.3584,7.3776,7.3776,7.4276,7.5245,7.5245,7.6092,5.5901,5.7203,5.8319,5.7363,5.5241,5.2274,4.7889,4.3701,3.9742,3.6234,3.4931,3.4644,3.5338,3.7131,4.0019,4.4713,4.6463,4.9804,5.7148,5.8934,6.0754,6.4209,0.0,0.0,6.8167,0.0,0.0,0.0,0.0,0.0,7.1569,7.1866,7.1992,7.1992,7.1992,7.1992,7.1992,7.1992,7.2383,7.3164,7.3164,7.3633,7.4492,7.4492,7.4531,7.4648,0.0,0.0,0.0,7.664,7.6953,7.6953,7.6953,7.6992,7.707,7.707,7.7148,7.7187,7.7187,7.7019,7.6812,7.6803,7.5666,7.4221,7.386,7.3708,7.3596,7.3466,7.3581,7.3798,7.3784,7.4063,7.4051,7.293,7.2531,7.2115,7.1133,7.0919,7.0898,7.0898,7.0898,7.0898,7.0898,7.0898,7.086,7.0783,7.0783,7.0744,7.0667,7.0667,7.0667,7.0667,7.0014,6.959,6.959,7.0244,7.0667,7.0667,7.1475,7.1982,7.1982,7.2899,7.3392,7.3392,7.3469,7.3853,7.4584,7.4584,7.5438,7.7061,7.7061,7.7561,5.5439,5.6973,5.7973,5.6555,5.4703,5.1813,4.6547,4.2435,3.8665,3.4737,3.3757,3.3667,3.4015,3.5961,3.8464,4.1421,4.2634,4.5318,5.1438,5.3447,5.617,6.1247,6.3046,0.0,0.0,0.0,0.0,0.0,0.0,0.0,7.1381,7.1663,7.1863,7.1992,7.1992,7.1992,7.1992,7.2539,7.2969,7.332,7.3828,7.4531,7.539,7.539,7.5664,7.6172,0.0,0.0,0.0,7.707,7.7187,7.7187,7.7187,7.7187,7.7187,7.7187,7.7187,7.7187,7.7055,7.6988,7.686,7.6639,7.6089,7.5469,7.5312,7.4809,7.4308,7.4242,7.4045,7.3815,7.3862,7.3997,7.3968,7.3357,7.316,7.299,7.2542,7.2469,7.2469,7.2469,7.2469,7.2469,7.2469,7.2469,7.2469,7.2469,7.2469,7.2469,7.2469,7.2469,7.2469,7.2469,7.1245,7.0629,7.1168,7.1514,7.1898,7.2437,7.2783,7.2976,7.2976,7.3783,7.4199,7.4199,7.4738,7.5438,7.6245,7.6245,7.6861,7.8023,7.8023,7.8484,5.3823,5.5472,5.6549,5.5588,5.3703,5.0794,4.5843,4.1736,3.7899,3.4143,3.3266,3.323,3.3506,3.5278,3.7305,3.9138,4.0153,4.2562,4.7894,5.0093,5.3174,5.8494,0.0,0.0,0.0,0.0,0.0,0.0,0.0,0.0,0.0,7.1446,7.1661,7.1907,7.1908,7.195,7.1992,7.2617,7.3047,7.332,7.3906,7.4805,7.5898,7.5898,7.6367,7.7187,0.0,0.0,0.0,7.7187,7.7187,7.7187,7.7187,7.7187,7.7187,7.7187,7.7187,7.7187,7.6951,7.6862,7.6755,7.641,7.6277,7.6201,7.6201,7.5684,7.5084,7.5084,7.4803,7.4485,7.4582,7.4586,7.4436,7.4044,7.3899,7.3776,7.3546,7.3507,7.3507,7.3507,7.3507,7.3507,7.3507,7.3507,7.3507,7.3507,7.3507,7.3507,7.3507,7.3507,7.3507,7.3507,7.2392,7.1937,7.2514,7.2591,7.286,7.3469,7.3738,7.3853,7.3853,7.4661,7.5084,7.5084,7.5938,7.6669,7.7292,7.7561,7.8099,7.8861,7.8861,7.9361,5.0515,5.1972,5.3472,5.4318,5.1972,4.8786,4.6255,4.1767,3.7409,3.5003,3.3843,3.3567,3.4427,3.5385,3.6787,3.911,4.0239,4.282,4.8564,5.0818,5.3164,0.0,0.0,0.0,0.0,0.0,0.0,0.0,0.0,0.0,0.0,7.1322,7.1373,7.1686,7.1693,7.1806,7.1992,7.1992,7.2461,7.3281,7.332,7.4219,7.5898,7.5898,7.6367,0.0,0.0,0.0,0.0,7.7187,7.7187,7.7187,7.7187,7.7187,7.7187,7.7187,7.7187,7.7187,7.6951,7.6765,7.6552,7.6384,7.6154,7.5984,7.5984,7.6015,7.5976,7.5976,7.6122,7.6315,7.6525,7.6418,7.6068,7.5177,7.4816,7.4469,7.3661,7.3507,7.3507,7.3507,7.3507,7.3507,7.3507,7.3507,7.3507,7.3507,7.3507,7.3507,7.3507,7.3507,7.3507,7.3507,7.3469,7.3469,7.3507,7.3507,7.3507,7.3507,7.4238,7.47,7.47,7.5515,7.5976,7.5976,7.6823,7.7292,7.7292,7.8099,7.8938,7.9777,7.9777,8.0246,4.7887,4.9317,5.0394,4.9505,4.8107,4.6136,4.2973,3.9738,3.68,3.4906,3.3844,3.3568,3.4429,3.5386,3.6988,4.002,4.0685,4.2473,4.7236,4.9794,0.0,5.5855,6.1263,0.0,0.0,0.0,0.0,0.0,0.0,0.0,0.0,7.1041,7.1151,7.1552,7.1653,7.1743,7.1805,7.2535,7.3047,7.332,7.4492,7.5351,7.5937,7.6523,0.0,0.0,0.0,0.0,0.0,7.7187,7.7187,7.7187,7.7187,7.7187,7.7187,7.7187,7.7187,7.7187,7.6987,7.6856,7.6746,7.6405,7.6272,7.6185,7.6055,7.6015,7.6015,7.6015,7.6128,7.6273,7.6195,7.6254,7.6211,7.5787,7.5639,7.5515,7.5245,7.5207,7.5207,7.5207,7.5207,7.5207,7.5207,7.5207,7.5207,7.5207,7.5207,7.5207,7.5207,7.5207,7.5207,7.5207,7.5207,7.4976,7.4353,7.4315,7.4584,7.5168,7.5438,7.5592,7.5592,7.6438,7.6899,7.6899,7.7715,7.8407,7.9015,7.9246,7.9515,7.9815,8.04,8.0516,4.4855,4.6493,4.7456,4.7036,4.585,4.4183,4.1808,3.8819,3.6155,3.4868,3.3921,3.3584,3.4483,3.5345,3.6748,3.9144,4.0244,4.2066,4.5688,4.8894,0.0,5.6763,0.0,0.0,0.0,0.0,0.0,0.0,0.0,0.0,0.0,7.0898,7.1016,7.1266,7.1418,7.1562,7.1689,7.236,7.273,7.2812,7.3906,7.4609,7.4961,7.582,0.0,0.0,0.0,0.0,0.0,7.6367,7.6211,7.6211,7.6211,7.6406,7.6719,7.6719,7.6914,7.7187,7.6988,7.6852,7.6735,7.64,7.626,7.616,7.6048,7.6015,7.6015,7.6015,7.6106,7.6154,7.6041,7.6075,7.6147,7.6034,7.6015,7.6015,7.6015,7.6015,7.6015,7.6015,7.6015,7.6015,7.6015,7.6015,7.6015,7.6015,7.6015,7.6015,7.6015,7.6015,7.6015,7.6015,7.6015,7.5784,7.5245,7.52,7.5438,7.5976,7.6015,7.613,7.6476,7.7015,7.7445,7.7753,7.8561,7.9246,7.9815,8.0131,8.0123,7.9815,8.0708,8.0823,0.0,4.3308,4.4421,4.5982,4.4599,4.2662,4.1927,3.8612,0.0,3.4765,3.3945,3.3711,3.4687,3.5458,3.6253,3.7384,3.9474,4.1859,4.4412,4.8557,0.0,0.0,0.0,0.0,0.0,0.0,0.0,0.0,0.0,0.0,0.0,7.0898,7.0898,7.0898,7.1085,7.1348,7.1667,7.1684,7.1805,7.1992,7.207,7.2539,7.332,7.4219,0.0,0.0,0.0,0.0,0.0,7.4922,7.4609,7.457,7.4609,7.5117,7.5898,7.5898,7.6445,7.7187,7.6995,7.6778,7.6606,7.639,7.6154,7.6015,7.6015,7.6015,7.6015,7.6015,7.6015,7.6015,7.6015,7.6015,7.6015,7.6015,7.6015,7.6015,7.6015,7.6015,7.6015,7.6015,7.6015,7.6015,7.6015,7.6015,7.6015,7.6015,7.6015,7.6015,7.6015,7.6015,7.6015,7.6015,7.6015,7.6015,7.6015,7.6015,7.6015,7.6015,7.6015,7.6361,7.7176,7.7253,7.7638,7.8407,7.9323,7.9815,7.9815,8.0669,8.0669,7.9815,8.0708,8.1054,3.5977,0.0,3.984,4.024,3.9922,3.9168,0.0,3.6113,3.4724,3.3867,3.3555,3.4062,3.6289,3.6279,3.728,4.1481,4.2516,4.3916,4.7098,0.0,0.0,0.0,0.0,0.0,0.0,0.0,0.0,0.0,0.0,0.0,0.0,7.0898,7.0898,7.0898,7.094,7.1097,7.1318,7.1562,7.1701,7.1797,7.2613,7.3086,7.332,7.4219,0.0,0.0,0.0,0.0,7.4883,7.4687,7.4525,7.438,7.4529,7.5032,7.5671,7.5857,7.6445,7.7187,7.7146,7.6999,7.6768,7.6415,7.616,7.6015,7.6015,7.6015,7.6015,7.6015,7.6015,7.6015,7.6015,7.6015,7.6015,7.6015,7.6015,7.6015,7.6015,7.6015,7.6015,7.6015,7.6015,7.6015,7.6015,7.6015,7.6015,7.6015,7.6015,7.6015,7.6015,7.6015,7.6015,7.6015,7.6015,7.6015,7.6015,7.6015,7.6015,7.6015,7.6015,7.6092,7.6284,7.6938,7.7407,7.7599,7.9054,7.9815,7.9815,8.0669,8.0669,7.9815,8.0708,8.0746,3.3154,3.5887,3.8449,3.8844,3.8957,3.8676,3.7406,3.5544,3.3867,3.3008,3.3125,3.3945,3.5781,3.6615,3.8064,4.1314,4.3017,4.5781,0.0,0.0,0.0,0.0,0.0,0.0,0.0,0.0,0.0,0.0,0.0,0.0,0.0,7.0898,7.0898,7.0898,7.0898,7.0991,7.1216,7.1362,7.1544,7.1691,7.2278,7.2611,7.2734,7.3594,7.4219,0.0,0.0,0.0,7.4531,7.375,7.3271,7.3147,7.3316,7.3765,7.4335,7.4601,7.5193,7.5926,7.6444,7.6689,7.6721,7.64,7.616,7.6015,7.6015,7.6015,7.6015,7.6015,7.6015,7.6015,7.6015,7.6015,7.6015,7.6015,7.6015,7.6015,7.6015,7.6015,7.6015,7.6015,7.6015,7.6015,7.6015,7.6015,7.6015,7.6015,7.6015,7.6015,7.6015,7.6015,7.6015,7.6015,7.6015,7.6015,7.6015,7.6015,7.6015,7.6015,7.6015,7.6169,7.6592,7.7061,7.7676,7.8438,7.9746,8.0208,7.9815,8.0669,8.0669,7.9815,8.0708,8.0862,3.2266,3.5418,3.8472,3.8826,3.9218,3.9229,3.8239,3.5702,3.3358,3.2538,3.3125,3.414,3.5231,3.7237,3.916,4.0645,4.3562,0.0,5.5642,0.0,0.0,0.0,0.0,0.0,0.0,0.0,0.0,0.0,0.0,0.0,0.0,7.0898,7.0898,7.0898,7.0898,7.0966,7.1153,7.1195,7.1352,7.1603,7.1677,7.1802,7.199,7.2734,7.3515,0.0,0.0,0.0,7.4101,7.2617,7.1861,7.1679,7.1908,7.2291,7.2779,7.3136,7.3694,7.4438,7.5499,7.6113,7.6434,7.6327,7.6197,7.6055,7.5998,7.6015,7.6015,7.6015,7.6015,7.6015,7.6015,7.6015,7.6015,7.6015,7.6015,7.6015,7.6015,7.6015,7.6015,7.6015,7.6015,7.6015,7.6015,7.6015,7.6015,7.6015,7.6015,7.6015,7.6015,7.6015,7.6015,7.6015,7.6015,7.6015,7.6015,7.613,7.6207,7.6207,7.6053,7.6399,7.7253,7.7407,7.813,7.9592,8.0477,8.0554,7.9815,8.0669,8.0708,8.0015,8.09,8.1285,3.3672,3.6315,3.792,3.5898,3.6995,3.8014,3.5715,3.4818,3.4153,3.3293,3.4447,3.6283,3.8462,3.9694,4.17,4.5572,0.0,5.3236,0.0,0.0,0.0,0.0,0.0,0.0,0.0,0.0,0.0,0.0,0.0,0.0,0.0,0.0,7.0898,7.0898,7.0898,7.0925,7.094,7.1098,7.1223,7.1265,7.1557,7.1737,7.175,7.2066,7.2265,0.0,0.0,7.2265,7.2383,7.2109,7.1799,7.1552,7.1898,7.2212,7.2598,7.2927,7.3579,7.4428,7.5336,7.5672,7.5798,7.6187,7.6267,7.6219,7.6038,7.6015,7.6015,7.6015,7.6015,7.6015,7.6015,7.6015,7.6015,7.6015,7.6015,7.6015,7.6015,7.6015,7.6015,7.6015,7.6015,7.6015,7.6015,7.6015,7.6015,7.6015,7.6015,7.6015,7.6015,7.6015,7.6015,7.6015,7.6015,7.6015,7.6015,7.6669,7.7099,7.7099,7.6399,7.6399,7.7253,7.7946,7.8446,7.8677,7.9554,7.9931,7.9815,8.0669,8.1016,8.0939,8.1747,8.2131,3.2221,3.4744,3.6857,3.599,3.8461,4.0679,3.9033,3.7936,3.6996,3.6133,3.6985,3.8356,3.9955,4.2014,4.5142,5.0384,0.0,0.0,0.0,0.0,0.0,0.0,0.0,0.0,0.0,0.0,0.0,0.0,0.0,0.0,0.0,0.0,7.0898,7.0898,7.0898,7.0898,7.0898,7.0979,7.1103,7.1182,7.1481,7.1633,7.1694,7.1908,7.2265,7.2695,0.0,7.2265,7.2656,7.2187,7.1852,7.1624,7.1795,7.183,7.1819,7.2098,7.2775,7.373,7.4703,7.5316,7.5681,7.6268,7.6381,7.6277,7.6052,7.6015,7.6015,7.6015,7.6015,7.6015,7.6015,7.6015,7.6015,7.6015,7.6015,7.6015,7.6015,7.6015,7.6015,7.6015,7.6015,7.6015,7.6015,7.6015,7.6015,7.6015,7.6399,7.6707,7.6707,7.7092,7.7361,7.7361,7.7361,7.7361,7.7361,7.7715,7.7946,7.7946,7.7561,7.7522,7.7946,7.8746,7.9208,7.9208,8.0054,8.0516,8.0516,8.1323,8.1747,8.1785,8.2593,8.2986,3.209,3.3975,3.6063,3.7138,3.9813,4.2211,4.2347,4.0857,3.9447,3.9398,4.0085,4.0949,4.1753,4.4973,0.0,5.4277,5.6685,0.0,0.0,0.0,0.0,0.0,0.0,0.0,0.0,0.0,0.0,0.0,0.0,0.0,0.0,0.0,7.0898,7.0898,7.0898,7.0898,7.0898,7.0898,7.0992,7.112,7.136,7.1552,7.1659,7.1904,7.2344,7.2969,7.2305,7.2383,7.293,7.2265,7.1865,7.1693,7.1752,7.1568,7.1331,7.1446,7.2137,7.315,7.4215,7.5024,7.5692,7.6369,7.647,7.6272,7.6052,7.6015,7.6015,7.6015,7.6015,7.6015,7.6015,7.6015,7.6015,7.6015,7.6015,7.6015,7.6015,7.6015,7.6015,7.6015,7.6015,7.6053,7.6284,7.6284,7.6361,7.6553,7.7138,7.7599,7.7599,7.8138,7.8484,7.8484,7.8484,7.86,7.8792,7.8792,7.8907,7.91,7.8907,7.8792,7.8792,7.9631,8.0085,8.0085,8.0746,8.1208,8.1362,8.2016,8.2401,8.2631,8.3478,8.3909,3.6071,3.6208,3.6219,3.86,3.8888,3.9389,4.2434,4.1189,4.0066,4.2379,4.3569,4.4431,4.5117,4.9393,5.373,5.6372,5.9026,0.0,0.0,0.0,0.0,0.0,0.0,0.0,0.0,0.0,0.0,0.0,0.0,0.0,0.0,0.0,0.0,7.0898,7.0898,7.0898,7.0898,7.0898,7.0912,7.0946,7.1326,7.1527,7.1511,7.1851,7.2031,7.2109,7.2031,7.2031,7.2109,7.2031,7.1865,7.1738,7.1907,7.1857,7.1657,7.1536,7.2137,7.315,7.4215,7.5024,7.5727,7.6369,7.6475,7.6244,7.6052,7.6015,7.6015,7.6015,7.6015,7.6015,7.6015,7.6015,7.6015,7.6015,7.6015,7.6015,7.6015,7.6015,7.6015,7.6015,7.6015,7.6245,7.7061,7.7215,7.7445,7.8215,7.8369,7.8407,7.8407,7.8446,7.8484,7.8484,7.8484,7.8823,7.9631,7.97,8.0054,8.0862,8.0169,7.97,7.97,8.0554,8.1016,8.1016,8.1054,8.1477,8.2208,8.2285,8.2716,8.3524,8.4401,8.4816,3.4472,3.5139,3.6204,3.8727,3.9904,4.1205,4.4037,4.5186,4.6184,4.8184,4.8891,4.9208,4.9456,5.202,5.5056,5.8072,0.0,0.0,0.0,0.0,0.0,0.0,0.0,0.0,0.0,0.0,0.0,0.0,0.0,0.0,0.0,0.0,0.0,7.1271,7.1276,7.1276,7.1276,7.1276,7.1276,7.1276,7.1412,7.1481,7.1495,7.1849,7.1992,7.1992,7.1992,7.1992,7.1992,7.1992,7.1951,7.1865,7.1815,7.1557,7.1285,7.2139,7.2625,7.3137,7.4834,7.5493,7.5727,7.6369,7.6475,7.6277,7.6052,7.6015,7.6015,7.6015,7.6015,7.6015,7.6015,7.6015,7.6015,7.6015,7.6015,7.6015,7.6015,7.6438,7.683,7.683,7.7215,7.7676,7.7984,7.8061,7.8138,7.8446,7.8977,7.9323,7.9323,7.9785,8.0131,8.0131,8.0131,8.0246,8.0592,8.0592,8.0746,8.1093,8.0785,8.0592,8.0592,8.0939,8.1323,8.1823,8.1862,8.2247,8.3101,8.3632,8.4093,8.4439,8.5247,8.567,3.4116,3.4931,3.6404,3.8383,4.0546,4.3008,4.609,4.8168,5.0048,5.2274,5.2505,5.239,5.2659,5.3895,0.0,0.0,0.0,0.0,0.0,0.0,0.0,0.0,0.0,0.0,0.0,0.0,0.0,0.0,0.0,0.0,0.0,0.0,0.0,0.0,7.1481,7.1481,7.1481,7.1481,7.1481,7.1481,7.1536,7.1563,7.1572,7.1857,7.1992,7.1992,7.1992,7.1992,7.1992,7.1992,7.1952,7.1904,7.1993,7.1788,7.1623,7.2794,7.337,7.3779,7.5209,7.5774,7.5917,7.6373,7.6351,7.6179,7.6055,7.6015,7.6015,7.6015,7.6015,7.6015,7.6015,7.6015,7.6015,7.6015,7.6015,7.6092,7.6361,7.6861,7.7369,7.7638,7.8138,7.86,7.8869,7.8907,7.9015,7.9292,7.9823,8.0208,8.0208,8.0746,8.1093,8.1093,8.1093,8.1208,8.1477,8.1477,8.1593,8.1862,8.19,8.1785,8.1477,8.1747,8.2131,8.2708,8.2716,8.3131,8.4016,8.4593,8.5008,8.5277,8.6132,8.6517,3.6079,3.6149,3.6927,3.7815,4.0623,4.4278,4.8471,4.9433,5.0433,5.3857,5.3857,5.351,5.4357,5.5208,0.0,0.0,0.0,0.0,0.0,0.0,0.0,0.0,0.0,0.0,0.0,0.0,0.0,0.0,0.0,0.0,0.0,0.0,0.0,0.0,7.1485,7.1485,7.1485,7.1485,7.1485,7.1485,7.164,7.1691,7.1694,7.1908,7.1992,7.1992,7.1992,7.1992,7.1992,7.1992,7.1864,7.1757,7.2438,7.2677,7.2768,7.3438,7.4362,7.5287,7.5326,7.5737,7.63,7.63,7.616,7.6015,7.6015,7.6015,7.6015,7.6015,7.6015,7.6015,7.6015,7.6015,7.6015,7.6015,7.6015,7.6245,7.7138,7.733,7.7561,7.8369,7.8523,7.8792,7.9662,7.9815,8.0123,8.0977,8.1093,8.1093,8.1093,8.1093,8.1093,8.1093,8.1131,8.1439,8.2247,8.2324,8.267,8.3563,8.3601,8.3216,8.2362,8.3139,8.3601,8.3601,8.3601,8.4055,8.4893,8.4893,8.5316,8.6132,8.7017,8.7401,3.5044,3.6155,3.7969,3.9396,4.3666,4.8317,5.1395,5.2549,5.3933,5.7319,5.7357,5.6665,5.6324,5.7434,0.0,0.0,0.0,0.0,0.0,0.0,0.0,0.0,0.0,0.0,0.0,0.0,0.0,0.0,0.0,0.0,0.0,0.0,0.0,0.0,7.185,7.185,7.185,7.172,7.1642,7.1644,7.1677,7.1691,7.1694,7.1908,7.1992,7.1992,7.1992,7.1992,7.1992,7.1858,7.1629,7.1369,7.1722,7.2073,7.2473,7.3518,7.4408,7.5207,7.595,7.6242,7.6295,7.63,7.616,7.6015,7.6015,7.6015,7.6015,7.6015,7.6015,7.6015,7.6015,7.6438,7.6899,7.6899,7.6899,7.7138,7.7984,7.8631,7.9131,7.9361,7.99,8.04,8.0669,8.0708,8.0785,8.1054,8.1093,8.1093,8.1093,8.1593,8.1939,8.1939,8.2477,8.2947,8.3178,8.3216,8.3332,8.3563,8.417,8.4132,8.3255,8.3447,8.3901,8.4516,8.4516,8.4939,8.5747,8.5747,8.617,8.7017,8.7286,8.7709,3.6761,3.8372,4.0508,4.2547,4.6513,5.0861,5.4395,5.6165,5.7665,6.005,5.9858,5.9242,5.9056,5.9556,0.0,0.0,0.0,0.0,0.0,0.0,0.0,0.0,0.0,0.0,0.0,0.0,0.0,0.0,0.0,0.0,0.0,0.0,0.0,0.0,7.191,7.1865,7.1865,7.172,7.1624,7.1624,7.1624,7.1624,7.1631,7.1862,7.1992,7.1992,7.1909,7.1865,7.1861,7.1671,7.1435,7.127,7.2082,7.2506,7.2877,7.4271,7.5067,7.5487,7.6128,7.6267,7.6185,7.6191,7.6088,7.6015,7.6015,7.6015,7.6015,7.6015,7.6015,7.6092,7.6438,7.6899,7.7292,7.7292,7.7561,7.7984,7.8823,7.9438,7.9892,8.0246,8.0746,8.1093,8.1093,8.1093,8.1093,8.1093,8.1362,8.1593,8.1593,8.2285,8.2832,8.2832,8.3293,8.3755,8.4093,8.4132,8.4247,8.4555,8.5093,8.5132,8.4593,8.4593,8.4824,8.5354,8.5393,8.5632,8.6094,8.644,8.6901,8.7401,8.8094,8.8671,3.9704,4.1589,4.3739,4.6351,4.9163,5.2515,5.7319,5.9704,6.1133,6.1941,6.1518,6.1287,6.2056,6.1633,0.0,0.0,0.0,0.0,0.0,0.0,0.0,0.0,0.0,0.0,0.0,0.0,0.0,0.0,0.0,0.0,0.0,0.0,0.0,0.0,7.1805,7.1686,7.1677,7.1546,7.1457,0.0,7.1457,7.1457,7.1467,7.1795,7.1951,7.195,7.175,7.1673,7.1655,7.1524,7.1409,7.1451,7.2955,7.3593,7.3776,7.5322,7.5938,7.6015,7.6015,7.6015,7.6015,7.6015,7.6015,7.6015,7.6015,7.6015,7.6015,7.6015,7.6053,7.6284,7.7099,7.7407,7.7515,7.7515,7.8099,7.8869,7.9746,7.9931,8.0169,8.0939,8.1093,8.1093,8.1093,8.1093,8.1131,8.1208,8.19,8.2401,8.2401,8.3178,8.3717,8.3717,8.3793,8.4132,8.4939,8.5008,8.5316,8.6055,8.6094,8.6132,8.6209,8.6132,8.6094,8.6094,8.617,8.6209,8.6209,8.7094,8.7555,8.7671,8.9201,8.9932,3.7234,4.0239,4.3855,4.7043,5.1779,5.6285,5.8704,6.0594,6.1864,6.2062,6.2435,6.2814,6.3006,0.0,0.0,0.0,0.0,0.0,0.0,0.0,0.0,0.0,0.0,0.0,0.0,0.0,0.0,0.0,0.0,0.0,0.0,0.0,0.0,7.1756,7.1701,7.1651,7.1539,7.1344,7.1262,0.0,7.1262,7.1262,7.1276,7.1498,7.1627,7.1625,7.1552,7.146,7.1301,7.1285,7.1568,7.2013,7.2366,7.3314,7.4469,7.4853,7.5399,7.6015,7.6015,7.6015,7.6015,7.6015,7.6015,7.6015,7.6015,7.6015,7.6015,7.6015,7.6476,7.7061,7.7253,7.8284,7.9246,7.9246,7.94,7.9746,8.0631,8.0823,8.09,8.1054,8.1093,8.1093,8.1093,8.1093,8.1323,8.1939,8.2755,8.3332,8.3332,8.4093,8.4632,8.4632,8.5209,8.5632,8.5824,8.5863,8.594,8.6094,8.6094,8.6401,8.7094,8.6478,8.6094,8.6094,8.6786,8.7132,8.7132,8.7987,8.8748,8.9355,8.9739,9.0278,3.9004,4.2273,4.6124,5.1125,5.5011,5.8055,5.9742,6.1133,6.2095,6.2095,6.3051,6.4045,6.4474,0.0,0.0,0.0,0.0,0.0,0.0,0.0,0.0,0.0,0.0,0.0,0.0,0.0,0.0,0.0,0.0,0.0,0.0,7.1609,7.1609,7.1609,7.1501,7.1449,7.1374,7.1158,7.1044,7.1044,7.1044,7.1044,7.1062,7.1344,7.1481,7.1513,7.1843,7.192,7.1825,7.1727,7.1872,7.2213,7.2213,7.2976,7.4161,7.4546,7.5245,7.6015,7.6015,7.6015,7.6015,7.6015,7.6015,7.6015,7.6015,7.6015,7.6015,7.6015,7.663,7.7407,7.7753,7.8823,7.9892,8.0323,8.0439,8.0554,8.1016,8.1093,8.1093,8.1093,8.1093,8.1093,8.1093,8.14,8.1939,8.2785,8.367,8.4209,8.4209,8.4978,8.547,8.547,8.5863,8.6094,8.6094,8.6094,8.6286,8.6709,8.6709,8.7094,8.7987,8.7594,8.7325,8.7325,8.7786,8.8017,8.8017,8.8863,8.9479,8.9893,9.0316,9.0787,4.0777,4.462,4.8894,5.5362,5.7665,5.8742,6.0435,6.1364,6.1903,6.2056,6.3435,6.482,0.0,0.0,0.0,0.0,0.0,0.0,0.0,0.0,0.0,0.0,0.0,0.0,0.0,0.0,0.0,0.0,0.0,0.0,7.1518,7.1467,7.1431,7.1431,7.129,7.1195,7.1148,7.0966,7.0898,7.0898,7.0898,7.0898,7.0919,7.1237,7.1416,7.1446,7.1978,7.2225,7.2209,7.2019,7.2136,7.2399,7.2399,7.3053,7.4007,7.4661,7.5399,7.6015,7.6015,7.6015,7.6015,7.6015,7.6015,7.6015,7.6015,7.6015,7.6015,7.6169,7.6823,7.7715,7.8523,7.9361,8.0208,8.0939,8.1093,8.1093,8.1093,8.1093,8.1093,8.1093,8.1208,8.1362,8.1516,8.2208,8.2978,8.3708,8.4555,8.5132,8.5132,8.5709,8.6094,8.6094,8.6094,8.617,8.6324,8.6324,8.6709,8.7555,8.7632,8.8017,8.8863,8.891,8.8987,8.9141,8.8987,8.891,8.891,8.9748,9.0124,9.0124,9.0855,9.121,3.6965,4.3201,5.0356,5.5659,5.7659,5.8742,6.0435,6.0902,6.1172,0.0,6.3435,0.0,0.0,0.0,0.0,0.0,0.0,0.0,0.0,0.0,0.0,0.0,0.0,0.0,0.0,0.0,0.0,0.0,0.0,0.0,7.162,7.1416,7.1233,7.1233,7.1198,7.1137,7.0934,7.0925,7.0898,7.0898,7.0898,7.0898,7.0905,7.096,7.096,7.0998,7.1069,7.1126,7.1119,7.1073,7.1975,7.3315,7.3315,7.4276,7.5668,7.5784,7.5899,7.6015,7.6015,7.6015,7.6015,7.6015,7.6015,7.6015,7.6015,7.6015,7.6169,7.6899,7.7715,7.8561,7.94,8.0285,8.0977,8.1054,8.1093,8.1093,8.1093,8.1093,8.1093,8.1093,8.167,8.2362,8.3139,8.3978,8.4585,8.4709,8.544,8.594,8.594,8.6017,8.6094,8.6094,8.6094,8.6401,8.7171,8.7209,8.7594,8.8487,8.8526,8.8902,8.9701,8.9739,9.0094,9.0864,9.0124,8.9739,8.9739,9.0633,9.1018,9.1018,9.1171,9.121,3.9469,4.4739,4.9894,5.5011,5.6934,5.8017,5.9704,6.0435,6.0902,6.1287,0.0,0.0,0.0,0.0,0.0,0.0,0.0,0.0,0.0,0.0,0.0,0.0,0.0,0.0,0.0,0.0,0.0,0.0,0.0,7.0036,7.0661,7.0896,7.1047,7.1047,7.1047,7.0979,7.0898,7.0898,7.0898,7.0898,7.0898,7.0898,7.0898,7.0898,7.0898,7.0937,7.1398,7.1636,7.1636,7.1636,7.2135,7.2948,7.2922,7.3723,7.4943,7.5413,7.5922,7.6322,7.6228,7.6166,7.6135,7.6048,7.6015,7.6015,7.6015,7.6322,7.683,7.7176,7.8246,7.9323,7.97,8.0439,8.1093,8.1093,8.1093,8.1093,8.1093,8.1093,8.1246,8.167,8.2439,8.3324,8.417,8.467,8.5047,8.5508,8.5863,8.6094,8.6094,8.6094,8.6094,8.6094,8.6555,8.6978,8.7363,8.7863,8.8479,8.9325,8.9363,8.9748,9.0586,9.0624,9.0816,9.121,9.0816,9.0624,9.0624,9.1018,9.121,9.121,9.121,9.1479,4.0354,4.4393,4.7735,5.2818,5.5247,5.6863,5.8742,5.9858,6.0512,0.0,0.0,0.0,0.0,0.0,0.0,0.0,0.0,0.0,0.0,0.0,0.0,0.0,0.0,0.0,0.0,0.0,0.0,0.0,0.0,6.9554,6.9894,7.0547,7.0898,7.0898,7.0898,7.0898,7.0898,7.0898,7.0898,7.0898,7.0898,7.0898,7.0898,7.0898,7.0898,7.0937,7.1591,7.1867,7.1867,7.1867,7.2109,7.2533,7.2742,7.3445,7.4438,7.5302,7.6041,7.656,7.6424,7.6353,7.6261,7.6128,7.6055,7.6053,7.6245,7.6784,7.7407,7.7823,7.8823,7.9854,8.0092,8.0631,8.1093,8.1093,8.1093,8.117,8.1362,8.14,8.1708,8.2747,8.3478,8.4209,8.5055,8.5201,8.5401,8.6017,8.6094,8.6094,8.6094,8.6286,8.644,8.644,8.7209,8.7825,8.8017,8.8632,8.9363,9.0163,9.0239,9.0509,9.1171,9.121,9.121,9.121,9.121,9.121,9.121,9.121,9.1325,9.1518,9.1518,9.1979,3.5888,3.9542,4.335,4.8432,5.2202,5.528,5.778,5.8973,5.9819,0.0,0.0,0.0,0.0,0.0,0.0,0.0,0.0,0.0,0.0,0.0,0.0,0.0,0.0,0.0,0.0,0.0,0.0,0.0,0.0,6.9022,6.9866,7.0547,7.0898,7.0898,7.0898,7.0898,7.0898,7.0898,7.0898,7.0898,7.0898,7.0898,7.0898,7.0898,7.0898,7.0898,7.0937,7.0975,7.0975,7.0975,7.1562,7.2571,7.34,7.4333,7.533,7.619,7.6543,7.6582,7.6571,7.647,7.6295,7.6273,7.618,7.613,7.6984,7.7253,7.763,7.9208,7.9738,7.9969,8.0823,8.1054,8.1093,8.1093,8.1093,8.1323,8.2054,8.2247,8.2747,8.4439,8.4777,8.5085,8.5901,8.6055,8.6055,8.6094,8.6094,8.6094,8.6094,8.6824,8.7325,8.7325,8.8102,8.894,8.9701,8.9816,9.0201,9.1095,9.1133,9.1171,9.121,9.121,9.121,9.121,9.121,9.121,9.121,9.121,9.1633,9.2441,9.2441,9.2864,3.4237,3.7584,4.1277,4.5821,4.913,5.1895,5.4434,5.6511,5.8132,0.0,0.0,0.0,0.0,0.0,0.0,0.0,0.0,0.0,0.0,0.0,0.0,0.0,0.0,0.0,0.0,0.0,0.0,0.0,0.0,0.0,6.8883,6.9695,7.036,7.0898,7.0898,7.0898,7.0898,7.0898,7.0898,7.0898,7.0898,7.0898,7.0898,7.0898,7.0898,7.0898,7.0898,7.0898,7.0898,7.0898,7.1616,7.278,7.3604,7.465,7.5782,7.6642,7.6994,7.6987,7.6847,7.6641,7.6484,7.6348,7.654,7.6899,7.7215,7.8054,7.9015,7.9623,8.0208,8.0708,8.1016,8.1093,8.1246,8.1747,8.2554,8.3362,8.3862,8.3978,8.417,8.4777,8.5316,8.5747,8.6055,8.6094,8.594,8.5401,8.6247,8.6748,8.617,8.7363,8.8218,8.8218,8.8979,8.9594,8.9893,9.0393,9.0855,9.1171,9.121,9.121,9.121,9.121,9.1479,9.2018,9.2018,9.1748,9.121,9.1748,9.2172,9.2518,9.3018,9.371,3.2024,3.5207,3.9084,4.3256,4.5817,4.8317,5.2313,5.4511,5.6132,0.0,0.0,0.0,0.0,0.0,0.0,0.0,0.0,0.0,0.0,0.0,0.0,0.0,0.0,0.0,0.0,0.0,0.0,0.0,0.0,0.0,6.8353,6.9237,7.0052,7.086,7.0898,7.0898,7.0898,7.0898,7.0898,7.0898,7.0898,7.0898,7.0898,7.0898,7.0898,7.0898,7.0898,7.0898,7.0905,7.0985,7.1725,7.2899,7.3778,7.4857,7.6015,7.6875,7.7187,7.7187,7.7052,7.6802,7.6638,7.6754,7.7019,7.7407,7.7977,7.8938,7.9854,8.0169,8.0669,8.117,8.1439,8.1708,8.2054,8.2593,8.367,8.4624,8.4854,8.4893,8.497,8.5239,8.5747,8.6094,8.6094,8.6324,8.6363,8.5824,8.694,8.7632,8.7055,8.8209,8.9094,8.9094,8.9825,9.0355,9.0355,9.0855,9.121,9.121,9.121,9.1325,9.1633,9.1633,9.2056,9.2903,9.2903,9.2633,9.2056,9.2633,9.3056,9.3364,9.3903,9.4604,0.0,0.0,0.0,4.0585,4.2273,4.4662,5.1351,0.0,0.0,0.0,0.0,0.0,0.0,0.0,0.0,0.0,0.0,0.0,0.0,0.0,0.0,0.0,0.0,0.0,0.0,0.0,0.0,0.0,0.0,6.7436,6.8314,6.9206,7.0052,7.086,7.0898,7.0898,7.0898,7.0898,7.0898,7.0898,7.0898,7.0898,7.0898,7.0898,7.0898,7.0898,7.0898,7.0898,7.0925,7.1092,7.1835,7.2948,7.3915,7.4976,7.6055,7.6875,7.7187,7.7187,7.7187,7.6931,7.6766,7.754,7.76,7.7669,7.9323,7.9815,8.0015,8.0862,8.1131,8.1323,8.2131,8.2986,8.364,8.364,8.4286,8.4931,8.4931,8.4931,8.517,8.594,8.6094,8.6094,8.6132,8.6824,8.7401,8.7401,8.8141,8.8718,8.8718,8.9402,8.9893,8.9932,9.0701,9.121,9.121,9.121,9.121,9.121,9.121,9.1633,9.2479,9.2518,9.2903,9.371,9.3749,9.3749,9.3787,9.3749,9.4181,9.4989,9.5027,9.5489,3.021,0.0,0.0,0.0,0.0,0.0,0.0,0.0,0.0,0.0,0.0,0.0,0.0,0.0,0.0,0.0,0.0,0.0,0.0,0.0,0.0,0.0,0.0,0.0,0.0,0.0,0.0,0.0,6.6096,6.6596,6.7398,6.8898,7.0052,7.086,7.0898,7.0898,7.0898,7.0898,7.0898,7.0898,7.0898,7.0898,7.0898,7.0898,7.0898,7.0898,7.0898,7.0898,7.0905,7.0966,7.2029,7.3681,7.3963,7.5205,7.6875,7.7109,7.7103,7.6994,7.6993,7.711,7.7369,7.7563,7.8309,7.9208,7.9662,8.0246,8.0785,8.1016,8.1516,8.217,8.3024,8.3901,8.4555,8.4555,8.517,8.5786,8.5786,8.5786,8.5816,8.6055,8.6094,8.6286,8.694,8.7248,8.7401,8.7401,8.8141,8.8718,8.8718,8.9402,9.0124,9.0787,9.1056,9.121,9.121,9.121,9.121,9.121,9.1787,9.2249,9.2479,9.3056,9.3749,9.4604,9.4643,9.4941,9.5595,9.4941,9.4758,9.5027,9.5634,9.6057,3.1871,0.0,0.0,0.0,0.0,0.0,0.0,4.3508,0.0,0.0,0.0,0.0,0.0,0.0,0.0,0.0,0.0,0.0,0.0,0.0,0.0,0.0,0.0,0.0,0.0,0.0,0.0,6.5904,6.5904,6.6397,6.759,6.8936,7.0052,7.086,7.0898,7.0898,7.0898,7.0898,7.0898,7.0898,7.0898,7.0898,7.0898,7.0898,7.0898,7.0898,7.0898,7.0898,7.0937,7.1283,7.2428,7.3945,7.4378,7.5541,7.6941,7.6941,7.6868,7.6807,7.7152,7.7435,7.7716,7.8413,7.9159,7.9854,8.0239,8.0708,8.1093,8.1093,8.1939,8.3054,8.3901,8.4786,8.5401,8.5401,8.5747,8.6094,8.6094,8.6094,8.6094,8.6094,8.6401,8.6786,8.7325,8.7979,8.844,8.844,8.9171,8.9748,8.9748,9.0171,9.0624,9.1171,9.121,9.121,9.121,9.121,9.1364,9.171,9.221,9.2826,9.3527,9.3989,9.4643,9.5518,9.5518,9.5788,9.6288,9.5788,9.5518,9.5557,9.6057,9.6288,3.4244,3.535,0.0,0.0,0.0,0.0,4.3166,4.409,0.0,0.0,0.0,0.0,0.0,0.0,0.0,0.0,0.0,0.0,0.0,0.0,0.0,0.0,0.0,0.0,0.0,6.5743,6.5788,6.5897,6.5904,6.659,6.816,6.909,6.9937,7.0744,7.086,7.0898,7.0898,7.0898,7.0898,7.0898,7.0898,7.0898,7.0898,7.0898,7.0898,7.0898,7.0898,7.0937,7.1091,7.1982,7.2925,7.3891,7.4878,7.5821,7.6582,7.6582,7.6645,7.6821,7.7513,7.7826,7.809,7.9594,8.0014,8.0092,8.0862,8.1093,8.1131,8.1323,8.2516,8.3939,8.4824,8.5555,8.6094,8.6094,8.6094,8.6094,8.6094,8.6094,8.6132,8.6247,8.6863,8.744,8.7632,8.8902,8.9932,9.0047,9.0624,9.1095,9.121,9.1133,9.1095,9.121,9.121,9.121,9.121,9.1287,9.1672,9.2441,9.2672,9.345,9.4951,9.5104,9.5518,9.6288,9.6288,9.6288,9.6288,9.6288,9.6288,9.6288,9.6288,9.6288,3.8176,3.8421,3.8555,0.0,0.0,0.0,3.7657,3.8931,4.1089,0.0,0.0,0.0,0.0,0.0,0.0,0.0,0.0,0.0,0.0,0.0,0.0,0.0,0.0,0.0,0.0,6.4859,6.5128,6.5865,6.5904,6.632,6.7282,6.8167,6.9045,6.9898,7.0552,7.0898,7.0898,7.0898,7.0898,7.0898,7.0898,7.0898,7.0898,7.0898,7.0898,7.0898,7.0898,7.1283,7.2014,7.2899,7.3459,7.3876,7.4736,7.5694,7.6582,7.6582,7.6937,7.7416,7.7571,7.8411,7.9427,7.9736,8.0307,8.09,8.1054,8.1093,8.1362,8.2716,8.3862,8.4824,8.567,8.5978,8.6094,8.6094,8.6094,8.6094,8.6094,8.6094,8.6324,8.7017,8.7286,8.7825,8.9162,8.9663,9.0124,9.0825,9.047,9.0393,9.1133,9.0586,9.0432,9.1133,9.121,9.121,9.121,9.1825,9.2326,9.2479,9.3758,9.4643,9.4989,9.5672,9.6134,9.6288,9.6288,9.6288,9.6288,9.6288,9.6288,9.6288,9.6288,9.6288,4.0893,4.0854,4.0969,4.0123,0.0,0.0,0.0,0.0,4.0242,4.3666,0.0,0.0,0.0,0.0,0.0,0.0,0.0,0.0,0.0,0.0,0.0,0.0,0.0,0.0,0.0,6.4359,6.4974,6.582,6.5904,6.625,6.7058,6.7936,6.8814,6.9667,7.0475,7.0898,7.0898,7.0898,7.0898,7.0898,7.0898,7.0898,7.0898,7.0898,7.0898,7.0898,7.0898,7.1398,7.229,7.3122,7.3817,7.4326,7.5176,7.5815,7.6333,7.6798,7.7159,7.7557,7.8399,7.917,7.9854,8.0323,8.0746,8.1093,8.1093,8.1362,8.1939,8.3255,8.4209,8.5085,8.5893,8.6094,8.6094,8.6094,8.6094,8.6094,8.6094,8.644,8.7017,8.7872,8.8363,8.8902,8.9739,9.0278,9.0701,9.1133,9.0825,9.071,9.1133,9.0816,9.0701,9.1171,9.121,9.1364,9.1825,9.2249,9.2864,9.3681,9.4527,9.5181,9.5634,9.6057,9.6288,9.6288,9.6288,9.6288,9.6288,9.6288,9.6288,9.6288,9.6288,9.6288,0.0,0.0,0.0,0.0,0.0,4.1204,0.0,0.0,0.0,4.3797,0.0,0.0,0.0,0.0,0.0,0.0,0.0,0.0,0.0,0.0,0.0,0.0,0.0,0.0,0.0,6.3205,6.4166,6.5551,6.5205,6.548,6.6789,6.7667,6.8545,6.9436,7.0244,7.0744,7.0898,7.0898,7.0898,7.0898,7.0898,7.0898,7.0898,7.0898,7.0898,7.0898,7.1091,7.1629,7.2514,7.3392,7.4199,7.5007,7.5745,7.6015,7.6092,7.6984,7.7407,7.7753,7.9285,7.9892,8.0162,8.0862,8.1093,8.1131,8.1285,8.19,8.2708,8.3593,8.4478,8.5286,8.594,8.6094,8.6094,8.6094,8.6094,8.617,8.6324,8.6901,8.7709,8.8718,8.9479,8.9932,9.0124,9.074,9.121,9.121,9.121,9.121,9.121,9.121,9.121,9.121,9.1364,9.1748,9.2441,9.2787,9.3566,9.4912,9.5181,9.5557,9.6288,9.6288,9.6288,9.6288,9.6288,9.6288,9.6288,9.6288,9.6288,9.6288,9.6288,9.6288,0.0,0.0,0.0,0.0,4.5124,0.0,0.0,0.0,4.2175,4.0459,0.0,0.0,0.0,0.0,0.0,0.0,0.0,0.0,0.0,0.0,0.0,0.0,0.0,0.0,0.0,0.0,6.1396,6.4512,6.2666,6.2749,6.5865,6.6827,6.7667,6.8507,6.9398,7.0167,7.0898,7.0898,7.0898,7.0898,7.0898,7.0898,7.0898,7.0898,7.0898,7.0937,7.1706,7.2552,7.343,7.4238,7.5084,7.5861,7.5976,7.6015,7.6092,7.6984,7.7753,7.8484,7.9477,8.0323,8.0977,8.1054,8.1093,8.1246,8.1939,8.2755,8.364,8.4516,8.5363,8.5978,8.6094,8.6094,8.6094,8.6094,8.6094,8.6324,8.7094,8.7325,8.7863,8.947,8.9855,9.0163,9.0932,9.1133,9.121,9.121,9.121,9.121,9.121,9.121,9.121,9.121,9.1902,9.2402,9.2479,9.3873,9.4797,9.4989,9.5711,9.6211,9.6288,9.6288,9.6288,9.6288,9.6288,9.6288,9.6288,9.6288,9.6288,9.6288,9.6288,9.6288,0.0,0.0,0.0,0.0,0.0,0.0,0.0,0.0,4.0929,0.0,0.0,0.0,0.0,0.0,0.0,0.0,0.0,0.0,0.0,0.0,0.0,0.0,0.0,0.0,0.0,0.0,0.0,0.0,0.0,6.132,6.4243,6.5667,6.7013,6.8353,6.9244,7.009,7.0898,7.0898,7.0898,7.0898,7.0898,7.0898,7.0898,7.0898,7.0898,7.0937,7.1828,7.2706,7.3546,7.4353,7.5207,7.6015,7.6015,7.6015,7.6169,7.7484,7.8215,7.8715,8.0092,8.0785,8.1093,8.1093,8.1093,8.1246,8.2054,8.2909,8.3793,8.467,8.547,8.6094,8.6094,8.6094,8.6094,8.6094,8.6478,8.694,8.7325,8.8171,8.9047,8.9739,9.0316,9.0787,9.1133,9.121,9.121,9.121,9.121,9.121,9.121,9.121,9.1402,9.1902,9.2287,9.2903,9.3873,9.4604,9.522,9.5711,9.6095,9.6288,9.6288,9.6288,9.6288,9.6288,9.6288,9.6288,9.6288,9.6288,9.6288,9.6288,9.6288,9.6288,4.9582,0.0,0.0,0.0,0.0,0.0,0.0,0.0,0.0,0.0,0.0,0.0,0.0,0.0,0.0,0.0,0.0,0.0,0.0,0.0,0.0,0.0,0.0,0.0,0.0,0.0,0.0,0.0,0.0,0.0,6.3083,6.4512,6.6167,6.8314,6.9007,6.986,7.0898,7.0898,7.0898,7.0898,7.0898,7.0898,7.0898,7.0898,7.1014,7.1283,7.2168,7.3053,7.3899,7.4773,7.5515,7.6106,7.6122,7.6295,7.6619,7.7983,7.8638,7.9054,8.0592,8.1093,8.1093,8.1093,8.1246,8.1593,8.2401,8.3247,8.4132,8.4978,8.567,8.6094,8.6094,8.6094,8.617,8.6401,8.694,8.7517,8.7979,8.9047,8.997,9.0201,9.0787,9.121,9.121,9.121,9.121,9.121,9.121,9.121,9.121,9.1402,9.1787,9.2441,9.2903,9.3681,9.4912,9.522,9.5634,9.6249,9.6288,9.6288,9.6288,9.6288,9.6288,9.6288,9.6288,9.6288,9.6288,9.6288,9.6288,9.6288,9.6288,9.6288,0.0,0.0,0.0,4.7091,0.0,0.0,0.0,0.0,4.4093,0.0,0.0,0.0,0.0,0.0,0.0,0.0,0.0,0.0,0.0,0.0,0.0,0.0,0.0,0.0,0.0,0.0,0.0,0.0,0.0,0.0,6.2968,6.3352,6.4929,6.8276,6.843,6.9237,7.0898,7.0898,7.0898,7.0898,7.0898,7.0898,7.0898,7.0898,7.136,7.2213,7.3091,7.393,7.4728,7.5803,7.6278,7.6316,7.6484,7.6971,7.7626,7.8269,7.9015,7.9892,8.0785,8.1093,8.1093,8.1093,8.1631,8.2401,8.3293,8.417,8.5008,8.5816,8.6094,8.6094,8.6094,8.6094,8.6324,8.7171,8.7363,8.7825,8.947,8.9855,9.0163,9.097,9.1171,9.121,9.121,9.121,9.121,9.121,9.121,9.121,9.121,9.1941,9.2479,9.2479,9.395,9.4951,9.4989,9.5788,9.6288,9.6288,9.6288,9.6288,9.6288,9.6288,9.6288,9.6288,9.6288,9.6288,9.6288,9.6288,9.6288,9.6288,9.6288,9.6288,0.0,0.0,5.5857,5.0966,0.0,0.0,0.0,0.0,0.0,0.0,0.0,0.0,0.0,0.0,0.0,0.0,0.0,0.0,0.0,0.0,0.0,0.0,0.0,0.0,0.0,0.0,0.0,0.0,5.2813,0.0,0.0,6.1897,6.4051,6.7436,6.8084,6.9199,7.0898,7.0898,7.0898,7.0898,7.0898,7.0898,7.0898,7.0898,7.136,7.2252,7.3129,7.3969,7.4767,7.5859,7.63,7.6371,7.717,7.7848,7.8435,7.8604,7.9187,7.9931,8.0785,8.1188,8.1355,8.1762,8.216,8.2739,8.4057,8.467,8.5085,8.5863,8.6094,8.6094,8.6094,8.6517,8.7017,8.7325,8.8248,8.9201,8.9778,9.0355,9.0855,9.1133,9.121,9.121,9.121,9.121,9.121,9.121,9.171,9.2056,9.2056,9.2787,9.3518,9.4104,9.4643,9.522,9.5826,9.6134,9.6288,9.6288,9.6288,9.6288,9.6288,9.6288,9.6288,9.6288,9.6288,9.6288,9.6288,9.6288,9.6288,9.6288,9.6288,9.6288,5.7967,5.8544,0.0,5.4236,5.2911,0.0,4.6501,0.0,0.0,0.0,0.0,0.0,0.0,0.0,0.0,0.0,0.0,0.0,0.0,0.0,0.0,0.0,0.0,0.0,0.0,0.0,4.7428,5.1197,5.062,0.0,0.0,0.0,6.3326,6.6981,6.7936,6.9199,7.0898,7.0898,7.0898,7.0898,7.0898,7.0898,7.0898,7.1206,7.1822,7.2706,7.3553,7.4392,7.5236,7.5981,7.6494,7.6825,7.7593,7.8426,7.9259,7.9265,7.9681,8.0323,8.09,8.1381,8.1773,8.2178,8.2808,8.3614,8.4596,8.5085,8.5431,8.5931,8.6094,8.617,8.6478,8.6978,8.7555,8.8132,8.9124,8.997,9.0316,9.0778,9.121,9.121,9.121,9.121,9.121,9.1479,9.1672,9.1672,9.2133,9.2595,9.2903,9.3633,9.4373,9.4951,9.5297,9.5672,9.6249,9.6288,9.6288,9.6288,9.6288,9.6288,9.6288,9.6288,9.6288,9.6288,9.6288,9.6288,9.6288,9.6288,9.6288,9.6288,9.6288,9.6288]}]]